[[{"header":{"parameterUnit":"m.s-1","parameterCategory":1,"la1":31.0,"la2":29.5877,"lo1":-88.7671,"lo2":-86.6584,"dy":0.0162,"dx":0.0185,"nx":115,"ny":88,"refTime":"2023-05-05T12:00:00:Z","depth":0,"parameterNumber":2,"parameterNumberName":"U-component_of_WINDS"},"data":[0.0,0.0,0.0,0.0,0.0,0.0,0.0,0.0,0.0,0.0,0.0,0.0,0.0,0.0,0.0,0.0,0.0,0.0,0.0,0.0,0.0,0.0,0.0,0.0,0.0,0.0,0.0,0.0,0.0,0.0,0.0,0.0,0.0,0.0,0.0,0.0,0.0,0.0,0.0,0.0,0.0,0.0,0.0,0.0,0.0,0.0,0.0,0.0,0.0,0.0,0.0,0.0,0.0,0.0,0.0,0.0,0.0,0.0,0.0,0.0,0.0,0.0,0.0,0.0,0.0,0.0,0.0,0.0,0.0,0.0,0.0,0.0,0.0,0.0,0.0,0.0,0.0,0.0,0.0,0.0,0.0,0.0,0.0,0.0,0.0,0.0,0.0,0.0,0.0,0.0,0.0,0.0,0.0,0.0,0.0,0.0,0.0,0.0,0.0,0.0,0.0,0.0,0.0,0.0,0.0,0.0,0.0,0.0,0.0,0.0,0.0,0.0,0.0,0.0,0.0,0.0,0.0,0.0,0.0,0.0,0.0,0.0,0.0,0.0,0.0,0.0,0.0,0.0,0.0,0.0,0.0,0.0,0.0,0.0,0.0,0.0,0.0,0.0,0.0,0.0,0.0,0.0,0.0,0.0,0.0,0.0,0.0,0.0,0.0,0.0,0.0,0.0,0.0,0.0,0.0,0.0,0.0,0.0,0.0,0.0,0.0,0.0,0.0,0.0,0.0,0.0,0.0,0.0,0.0,0.0,0.0,0.0,0.0,0.0,0.0,0.0,0.0,0.0,0.0,0.0,0.0,0.0,0.0,0.0,0.0,0.0,0.0,0.0,0.0,0.0,0.0,0.0,0.0,0.0,0.0,0.0,0.0,0.0,0.0,0.0,0.0,0.0,0.0,0.0,0.0,0.0,0.0,0.0,0.0,0.0,0.0,0.0,0.0,0.0,0.0,0.0,0.0,0.0,0.0,0.0,0.0,0.0,0.0,0.0,0.0,0.0,0.0,0.0,0.0,0.0,0.0,0.0,0.0,0.0,0.0,0.0,0.0,0.0,0.0,0.0,0.0,0.0,0.0,0.0,0.0,0.0,0.0,0.0,0.0,0.0,0.0,0.0,0.0,0.0,0.0,0.0,0.0,0.0,0.0,0.0,0.0,0.0,0.0,0.0,0.0,0.0,0.0,0.0,0.0,0.0,0.0,0.0,0.0,0.0,0.0,0.0,0.0,0.0,0.0,0.0,0.0,0.0,0.0,0.0,0.0,0.0,0.0,0.0,0.0,0.0,0.0,0.0,0.0,0.0,0.0,0.0,0.0,0.0,0.0,0.0,0.0,0.0,0.0,0.0,0.0,0.0,0.0,0.0,0.0,0.0,0.0,0.0,0.0,0.0,0.0,0.0,0.0,0.0,0.0,0.0,0.0,0.0,0.0,0.0,0.0,0.0,0.0,0.0,0.0,0.0,0.0,0.0,0.0,0.0,0.0,0.0,0.0,0.0,0.0,0.0,0.0,0.0,0.0,0.0,0.0,0.0,0.0,0.0,0.0,0.0,0.0,0.0,0.0,0.0,0.0,0.0,0.0,0.0,0.0,0.0,0.0,0.0,0.0,0.0,0.0,0.0,0.0,0.0,0.0,0.0,0.0,0.0,0.0,0.0,0.0,0.0,0.0,0.0,0.0,0.0,0.0,0.0,0.0,0.0,0.0,0.0,0.0,0.0,0.0,0.0,0.0,0.0,0.0,0.0,0.0,0.0,0.0,0.0,0.0,0.0,0.0,0.0,0.0,0.0,0.0,0.0,0.0,0.0,0.0,0.0,0.0,0.0,0.0,0.0,0.0,0.0,0.0,0.0,0.0,0.0,0.0,0.0,0.0,0.0,0.0,0.0,0.0,0.0,0.0,0.0,0.0,0.0,0.0,0.0,0.0,0.0,0.0,0.0,0.0,0.0,0.0,0.0,0.0,0.0,0.0,0.0,0.0,0.0,0.0,0.0,0.0,0.0,0.0,0.0,0.0,0.0,0.0,0.0,0.0,0.0,0.0,0.0,0.0,0.0,0.0,0.0,0.0,0.0,0.0,0.0,0.0,0.0,0.0,0.0,0.0,0.0,0.0,0.0,0.0,0.0,0.0,0.0,0.0,0.0,0.0,0.0,0.0,0.0,0.0,0.0,0.0,0.0,0.0,0.0,0.0,0.0,0.0,0.0,0.0,0.0,0.0,0.0,0.0,0.0,0.0,0.0,0.0,0.0,0.0,0.0,0.0,0.0,0.0,0.0,0.0,0.0,0.0,0.0,0.0,0.0,0.0,0.0,0.0,0.0,0.0,0.0,0.0,0.0,0.0,0.0,0.0,0.0,0.0,0.0,0.0,0.0,0.0,0.0,0.0,0.0,0.0,0.0,0.0,0.0,0.0,0.0,0.0,0.0,0.0,0.0,0.0,0.0,0.0,0.0,0.0,0.0,0.0,0.0,0.0,0.0,0.0,0.0,0.0,0.0,0.0,0.0,0.0,0.0,0.0,0.0,0.0,0.0,0.0,0.0,0.0,0.0,0.0,0.0,0.0,0.0,0.0,0.0,0.0,0.0,0.0,0.0,0.0,0.0,0.0,0.0,0.0,0.0,0.0,0.0,0.0,0.0,0.0,0.0,0.0,0.0,0.0,0.0,0.0,0.0,0.0,0.0,0.0,0.0,0.0,0.0,0.0,0.0,0.0,0.0,0.0,0.0,0.0,0.0,0.0,0.0,0.0,0.0,0.0,0.0,0.0,0.0,0.0,0.0,0.0,0.0,0.0,0.0,0.0,0.0,0.0,0.0,0.0,0.0,0.0,0.0,0.0,0.0,0.0,0.0,0.0,0.0,0.0,0.0,0.0,0.0,0.0,0.0,0.0,0.0,0.0,0.0,0.0,0.0,0.0,0.0,0.0,0.0,0.0,0.0,0.0,0.0,0.0,0.0,0.0,0.0,0.0,0.0,0.0,0.0,0.0,0.0,0.0,0.0,0.0,0.0,0.0,0.0,0.0,0.0,0.0,0.0,0.0,0.0,0.0,0.0,0.0,0.0,0.0,0.0,0.0,0.0,0.0,0.0,0.0,0.0,0.0,0.0,0.0,0.0,0.0,0.0,0.0,0.0,0.0,0.0,0.0,0.0,0.0,0.0,0.0,0.0,0.0,0.0,0.0,0.0,0.0,0.0,0.0,0.0,0.0,0.0,0.0,0.0,0.0,0.0,0.0,0.0,0.0,0.0,0.0,0.0,0.0,0.0,0.0,0.0,0.0,0.0,0.0,0.0,0.0,0.0,0.0,0.0,0.0,0.0,0.0,0.0,0.0,0.0,0.0,0.0,0.0,0.0,0.0,0.0,0.0,0.0,0.0,0.0,0.0,0.0,0.0,0.0,0.0,0.0,0.0,0.0,0.0,0.0,0.0,0.0,0.0,0.0,0.0,0.0,0.0,0.0,0.0,0.0,0.0,0.0,0.0,0.0,0.0,0.0,0.0,0.0,0.0,0.0,0.0,0.0,0.0,0.0,0.0,0.0,0.0,0.0,0.0,0.0,0.0,0.0,0.0,0.0,0.0,0.0,0.0,0.0,0.0,0.0,0.0,0.0,0.0,0.0,0.0,0.0,0.0,0.0,0.0,0.0,0.0,0.0,0.0,0.0,0.0,0.0,0.0,0.0,0.0,0.0,0.0,0.0,0.0,0.0,0.0,0.0,0.0,0.0,0.0,0.0,0.0,0.0,0.0,0.0,0.0,0.0,0.0,0.0,0.0,0.0,0.0,0.0,0.0,0.0,0.0,0.0,0.0,0.0,0.0,0.0,0.0,0.0,0.0,0.0,0.0,0.0,0.0,0.0,0.0,0.0,0.0,0.0,0.0,0.0,0.0,0.0,0.0,0.0,0.0,0.0,0.0,0.0,0.0,0.0,0.0,0.0,0.0,0.0,0.0,0.0,0.0,0.0,0.0,0.0,0.0,0.0,0.0,0.0,0.0,0.0,0.0,0.0,0.0,0.0,0.0,0.0,0.0,0.0,0.0,0.0,0.0,0.0,0.0,0.0,0.0,0.0,0.0,0.0,0.0,0.0,0.0,0.0,0.0,0.0,0.0,0.0,0.0,0.0,0.0,0.0,0.0,0.0,0.0,0.0,0.0,0.0,0.0,0.0,0.0,0.0,0.0,0.0,0.0,0.0,0.0,0.0,0.0,0.0,0.0,0.0,0.0,0.0,0.0,0.0,0.0,0.0,0.0,0.0,0.0,0.0,0.0,0.0,-1.5782,0.0,0.0,0.0,0.0,0.0,0.0,0.0,0.0,0.0,0.0,0.0,0.0,0.0,0.0,0.0,0.0,0.0,0.0,0.0,0.0,0.0,0.0,0.0,0.0,0.0,0.0,0.0,0.0,0.0,0.0,0.0,0.0,0.0,0.0,0.0,0.0,0.0,0.0,0.0,0.0,0.0,0.0,0.0,0.0,0.0,0.0,0.0,0.0,0.0,0.0,0.0,0.0,0.0,0.0,0.0,0.0,0.0,0.0,0.0,0.0,0.0,0.0,0.0,0.0,0.0,0.0,0.0,0.0,0.0,0.0,0.0,0.0,0.0,0.0,0.0,0.0,0.0,0.0,0.0,0.0,0.0,0.0,0.0,0.0,0.0,0.0,0.0,0.0,0.0,0.0,0.0,0.0,0.0,0.0,0.0,0.0,0.0,0.0,0.0,0.0,0.0,0.0,0.0,0.0,0.0,0.0,0.0,0.0,0.0,0.0,-1.7755,-1.7539,-1.7786,-1.7527,-1.6717,0.0,0.0,0.0,0.0,0.0,0.0,0.0,0.0,0.0,0.0,0.0,0.0,0.0,0.0,0.0,0.0,0.0,0.0,0.0,0.0,0.0,0.0,0.0,0.0,0.0,0.0,0.0,0.0,0.0,0.0,0.0,0.0,0.0,0.0,0.0,0.0,0.0,0.0,0.0,0.0,0.0,0.0,0.0,0.0,0.0,0.0,0.0,0.0,0.0,0.0,0.0,0.0,0.0,0.0,0.0,0.0,0.0,0.0,0.0,0.0,0.0,0.0,0.0,0.0,0.0,0.0,0.0,0.0,0.0,0.0,0.0,0.0,0.0,0.0,0.0,0.0,0.0,0.0,0.0,0.0,0.0,0.0,0.0,0.0,0.0,0.0,0.0,0.0,0.0,0.0,0.0,0.0,0.0,0.0,0.0,0.0,0.0,0.0,0.0,0.0,0.0,0.0,0.0,0.0,0.0,0.0,0.0,0.0,0.0,0.0,0.0,0.0,-1.8974,-1.8607,-1.7426,0.0,0.0,0.0,0.0,0.0,0.0,0.0,0.0,0.0,0.0,0.0,0.0,0.0,0.0,0.0,0.0,0.0,0.0,0.0,0.0,0.0,0.0,0.0,0.0,0.0,0.0,0.0,0.0,0.0,0.0,0.0,0.0,0.0,0.0,0.0,0.0,0.0,0.0,0.0,0.0,0.0,0.0,0.0,0.0,0.0,0.0,0.0,0.0,0.0,0.0,0.0,0.0,0.0,0.0,0.0,0.0,0.0,0.0,0.0,0.0,0.0,0.0,0.0,0.0,0.0,0.0,0.0,0.0,0.0,0.0,0.0,0.0,0.0,0.0,0.0,0.0,0.0,0.0,0.0,0.0,0.0,0.0,0.0,0.0,0.0,0.0,0.0,0.0,0.0,0.0,0.0,0.0,0.0,0.0,0.0,0.0,0.0,0.0,0.0,0.0,0.0,0.0,0.0,0.0,0.0,0.0,0.0,0.0,0.0,0.0,-1.9208,-1.9731,-1.9454,0.0,-1.7221,0.0,0.0,0.0,0.0,0.0,0.0,0.0,0.0,0.0,0.0,0.0,0.0,0.0,0.0,0.0,0.0,0.0,0.0,0.0,0.0,0.0,0.0,0.0,0.0,0.0,0.0,0.0,0.0,0.0,0.0,0.0,0.0,0.0,0.0,0.0,0.0,0.0,0.0,0.0,0.0,0.0,0.0,0.0,0.0,0.0,0.0,0.0,0.0,0.0,0.0,0.0,0.0,0.0,0.0,0.0,0.0,0.0,0.0,0.0,0.0,0.0,0.0,0.0,0.0,0.0,0.0,0.0,0.0,0.0,0.0,0.0,0.0,0.0,0.0,0.0,0.0,0.0,0.0,0.0,0.0,0.0,0.0,0.0,0.0,0.0,0.0,0.0,0.0,0.0,0.0,0.0,0.0,0.0,0.0,0.0,0.0,0.0,0.0,0.0,0.0,0.0,0.0,0.0,0.0,0.0,0.0,0.0,0.0,0.0,0.0,-2.0362,-2.0891,-2.0415,-1.9682,0.0,0.0,0.0,0.0,0.0,0.0,0.0,0.0,0.0,0.0,0.0,0.0,0.0,0.0,0.0,0.0,0.0,0.0,0.0,0.0,0.0,0.0,0.0,0.0,0.0,0.0,0.0,0.0,0.0,0.0,0.0,0.0,0.0,0.0,0.0,0.0,0.0,0.0,0.0,0.0,0.0,0.0,0.0,0.0,0.0,0.0,0.0,0.0,0.0,0.0,0.0,0.0,0.0,0.0,0.0,0.0,0.0,0.0,0.0,0.0,0.0,0.0,0.0,0.0,0.0,0.0,0.0,0.0,0.0,0.0,0.0,0.0,0.0,0.0,0.0,0.0,0.0,0.0,0.0,0.0,0.0,0.0,0.0,0.0,0.0,0.0,0.0,0.0,0.0,0.0,0.0,0.0,0.0,0.0,0.0,0.0,0.0,0.0,0.0,0.0,0.0,0.0,0.0,0.0,0.0,0.0,0.0,0.0,0.0,0.0,-2.1018,-2.1025,-2.116,-2.0719,-2.02,-1.9665,0.0,0.0,0.0,0.0,0.0,0.0,0.0,0.0,0.0,0.0,0.0,0.0,0.0,0.0,0.0,0.0,0.0,0.0,0.0,0.0,0.0,0.0,0.0,0.0,0.0,0.0,0.0,0.0,0.0,0.0,0.0,0.0,0.0,0.0,0.0,0.0,0.0,0.0,0.0,0.0,0.0,0.0,0.0,0.0,0.0,0.0,0.0,0.0,0.0,0.0,0.0,0.0,0.0,0.0,0.0,0.0,0.0,0.0,0.0,0.0,0.0,0.0,0.0,0.0,0.0,0.0,0.0,0.0,0.0,0.0,0.0,0.0,0.0,0.0,0.0,0.0,0.0,0.0,0.0,0.0,0.0,0.0,0.0,0.0,0.0,0.0,0.0,0.0,0.0,0.0,0.0,0.0,0.0,0.0,0.0,0.0,0.0,0.0,0.0,0.0,0.0,0.0,0.0,0.0,0.0,0.0,0.0,0.0,-2.1399,-2.1164,-2.0767,-2.0291,-1.9993,-1.9654,0.0,0.0,0.0,0.0,0.0,0.0,0.0,0.0,0.0,0.0,0.0,0.0,0.0,0.0,0.0,0.0,0.0,0.0,0.0,0.0,0.0,0.0,0.0,0.0,0.0,0.0,0.0,0.0,0.0,0.0,0.0,0.0,0.0,0.0,0.0,0.0,0.0,0.0,0.0,0.0,0.0,0.0,0.0,0.0,0.0,0.0,0.0,0.0,0.0,0.0,0.0,0.0,0.0,0.0,0.0,0.0,0.0,0.0,0.0,0.0,0.0,0.0,0.0,0.0,0.0,0.0,0.0,0.0,0.0,0.0,0.0,0.0,0.0,0.0,0.0,0.0,0.0,0.0,0.0,0.0,0.0,0.0,0.0,0.0,0.0,0.0,0.0,0.0,0.0,0.0,0.0,0.0,0.0,0.0,0.0,0.0,0.0,0.0,0.0,0.0,0.0,0.0,0.0,0.0,0.0,0.0,0.0,0.0,0.0,-2.2337,-2.2024,-2.1231,-2.0035,-2.0601,-2.072,0.0,0.0,0.0,0.0,0.0,0.0,0.0,0.0,0.0,0.0,0.0,0.0,0.0,0.0,0.0,0.0,0.0,0.0,0.0,0.0,0.0,0.0,0.0,0.0,0.0,0.0,0.0,0.0,0.0,0.0,0.0,0.0,0.0,0.0,0.0,0.0,0.0,0.0,0.0,0.0,0.0,0.0,0.0,0.0,0.0,0.0,0.0,0.0,0.0,0.0,0.0,0.0,0.0,0.0,0.0,0.0,0.0,0.0,0.0,0.0,0.0,0.0,0.0,0.0,0.0,0.0,0.0,0.0,0.0,0.0,0.0,0.0,0.0,0.0,0.0,0.0,0.0,0.0,0.0,0.0,0.0,0.0,0.0,0.0,0.0,0.0,0.0,0.0,0.0,0.0,0.0,0.0,0.0,0.0,0.0,0.0,0.0,0.0,0.0,0.0,0.0,0.0,0.0,0.0,0.0,0.0,0.0,0.0,0.0,-2.2538,0.0,-2.0854,-1.9921,-2.08,-2.1078,0.0,0.0,0.0,0.0,0.0,0.0,0.0,0.0,0.0,0.0,0.0,0.0,0.0,0.0,0.0,0.0,0.0,0.0,0.0,0.0,0.0,0.0,0.0,0.0,0.0,0.0,0.0,0.0,0.0,0.0,0.0,0.0,0.0,0.0,0.0,0.0,0.0,0.0,0.0,0.0,0.0,0.0,0.0,0.0,0.0,0.0,0.0,0.0,0.0,0.0,0.0,0.0,0.0,0.0,0.0,0.0,0.0,0.0,0.0,0.0,0.0,0.0,0.0,0.0,0.0,0.0,0.0,0.0,0.0,0.0,0.0,0.0,0.0,0.0,0.0,0.0,0.0,0.0,0.0,0.0,0.0,0.0,0.0,0.0,0.0,0.0,0.0,0.0,0.0,0.0,0.0,0.0,0.0,0.0,0.0,0.0,0.0,0.0,0.0,0.0,0.0,0.0,0.0,0.0,0.0,0.0,0.0,0.0,-2.3584,-2.1751,-2.0223,-1.9674,-1.993,-2.0502,-2.0622,0.0,0.0,0.0,0.0,0.0,0.0,0.0,0.0,0.0,0.0,0.0,0.0,0.0,0.0,0.0,0.0,0.0,0.0,0.0,0.0,0.0,0.0,0.0,0.0,0.0,0.0,0.0,0.0,0.0,0.0,0.0,0.0,0.0,0.0,0.0,0.0,0.0,0.0,0.0,0.0,0.0,0.0,0.0,0.0,0.0,0.0,0.0,0.0,0.0,0.0,0.0,0.0,0.0,0.0,0.0,0.0,0.0,0.0,0.0,0.0,0.0,0.0,0.0,0.0,0.0,0.0,0.0,0.0,0.0,0.0,0.0,0.0,0.0,0.0,0.0,0.0,0.0,0.0,0.0,0.0,0.0,0.0,0.0,0.0,0.0,0.0,0.0,0.0,0.0,0.0,0.0,0.0,0.0,0.0,0.0,0.0,0.0,0.0,0.0,0.0,0.0,0.0,0.0,0.0,0.0,0.0,0.0,0.0,0.0,-2.1881,-2.1281,-2.1016,-2.1152,-2.1462,-2.1608,0.0,0.0,0.0,0.0,0.0,0.0,0.0,0.0,0.0,0.0,0.0,0.0,0.0,0.0,0.0,0.0,0.0,0.0,0.0,0.0,0.0,0.0,0.0,0.0,0.0,0.0,0.0,0.0,0.0,0.0,0.0,0.0,0.0,0.0,0.0,0.0,0.0,0.0,0.0,0.0,0.0,0.0,0.0,0.0,0.0,0.0,0.0,0.0,0.0,0.0,0.0,0.0,0.0,0.0,0.0,0.0,0.0,0.0,0.0,0.0,0.0,0.0,0.0,0.0,0.0,0.0,0.0,0.0,0.0,0.0,0.0,0.0,0.0,0.0,0.0,0.0,0.0,0.0,0.0,0.0,0.0,0.0,0.0,0.0,0.0,0.0,0.0,0.0,0.0,0.0,0.0,0.0,0.0,0.0,0.0,0.0,0.0,0.0,0.0,0.0,0.0,0.0,0.0,0.0,0.0,0.0,0.0,0.0,0.0,-2.2518,-2.1823,-2.1496,-2.1696,-2.2064,-2.218,-2.2028,0.0,0.0,0.0,0.0,0.0,0.0,0.0,0.0,0.0,0.0,0.0,0.0,0.0,0.0,0.0,0.0,0.0,0.0,0.0,0.0,0.0,0.0,0.0,0.0,0.0,0.0,0.0,0.0,0.0,0.0,0.0,0.0,0.0,0.0,0.0,0.0,0.0,0.0,0.0,0.0,0.0,0.0,0.0,0.0,0.0,0.0,0.0,0.0,0.0,0.0,0.0,0.0,0.0,0.0,0.0,0.0,0.0,0.0,0.0,0.0,0.0,0.0,0.0,0.0,0.0,0.0,0.0,0.0,0.0,0.0,0.0,0.0,0.0,0.0,0.0,0.0,0.0,0.0,0.0,0.0,0.0,0.0,0.0,0.0,0.0,0.0,0.0,0.0,0.0,0.0,0.0,0.0,0.0,0.0,0.0,0.0,0.0,0.0,0.0,0.0,0.0,0.0,0.0,0.0,0.0,0.0,0.0,0.0,-2.358,-2.1932,-2.1324,-2.1782,-2.2295,-2.2428,0.0,0.0,0.0,0.0,0.0,0.0,0.0,0.0,0.0,0.0,0.0,0.0,0.0,0.0,0.0,0.0,0.0,0.0,0.0,0.0,0.0,0.0,0.0,0.0,0.0,0.0,0.0,0.0,0.0,0.0,0.0,0.0,0.0,0.0,0.0,0.0,0.0,0.0,0.0,0.0,0.0,0.0,0.0,0.0,0.0,0.0,0.0,0.0,0.0,0.0,0.0,0.0,0.0,0.0,0.0,0.0,0.0,0.0,0.0,0.0,0.0,0.0,0.0,0.0,0.0,0.0,0.0,0.0,0.0,0.0,0.0,0.0,0.0,0.0,0.0,0.0,0.0,0.0,0.0,0.0,0.0,0.0,0.0,0.0,0.0,0.0,0.0,0.0,0.0,0.0,0.0,0.0,0.0,0.0,0.0,0.0,0.0,0.0,0.0,0.0,0.0,0.0,0.0,0.0,0.0,0.0,0.0,0.0,0.0,-2.3681,-2.3143,-2.2817,-2.2804,-2.3173,-2.3343,0.0,0.0,0.0,0.0,0.0,0.0,0.0,0.0,0.0,0.0,0.0,0.0,0.0,0.0,0.0,0.0,0.0,0.0,0.0,0.0,0.0,0.0,0.0,0.0,0.0,0.0,0.0,0.0,0.0,0.0,0.0,0.0,0.0,0.0,0.0,0.0,0.0,0.0,0.0,0.0,0.0,0.0,0.0,0.0,0.0,0.0,0.0,0.0,0.0,0.0,0.0,0.0,0.0,0.0,0.0,0.0,0.0,0.0,0.0,0.0,0.0,0.0,0.0,0.0,0.0,0.0,0.0,0.0,0.0,0.0,0.0,0.0,0.0,0.0,0.0,0.0,0.0,0.0,0.0,0.0,0.0,0.0,0.0,0.0,0.0,0.0,0.0,0.0,0.0,0.0,0.0,0.0,0.0,0.0,0.0,0.0,0.0,0.0,0.0,0.0,0.0,0.0,0.0,0.0,0.0,0.0,0.0,0.0,-2.3535,-2.3875,-2.3664,-2.3479,-2.3316,-2.3656,-2.3753,0.0,0.0,0.0,0.0,0.0,0.0,0.0,0.0,0.0,0.0,0.0,0.0,0.0,0.0,0.0,0.0,0.0,0.0,0.0,0.0,0.0,0.0,0.0,0.0,0.0,0.0,0.0,0.0,0.0,0.0,0.0,0.0,0.0,0.0,0.0,0.0,0.0,0.0,0.0,0.0,0.0,0.0,0.0,0.0,0.0,0.0,0.0,0.0,0.0,0.0,0.0,0.0,0.0,0.0,0.0,0.0,0.0,0.0,0.0,0.0,0.0,0.0,0.0,0.0,0.0,0.0,0.0,0.0,0.0,0.0,0.0,0.0,0.0,0.0,0.0,0.0,0.0,0.0,0.0,0.0,0.0,0.0,0.0,0.0,0.0,0.0,0.0,0.0,0.0,0.0,0.0,0.0,0.0,0.0,0.0,0.0,0.0,0.0,0.0,0.0,0.0,0.0,0.0,0.0,0.0,0.0,0.0,0.0,-2.4216,-2.413,-2.3888,-2.3712,-2.3629,-2.3896,-2.3876,0.0,0.0,0.0,0.0,0.0,0.0,0.0,0.0,0.0,0.0,0.0,0.0,0.0,0.0,0.0,0.0,0.0,0.0,0.0,0.0,0.0,0.0,0.0,0.0,0.0,0.0,0.0,0.0,0.0,0.0,0.0,0.0,0.0,0.0,0.0,0.0,0.0,0.0,0.0,0.0,0.0,0.0,0.0,0.0,0.0,0.0,0.0,0.0,0.0,0.0,0.0,0.0,0.0,0.0,0.0,0.0,0.0,0.0,0.0,0.0,0.0,0.0,0.0,0.0,0.0,0.0,0.0,0.0,0.0,0.0,0.0,0.0,0.0,0.0,0.0,0.0,0.0,0.0,0.0,0.0,0.0,0.0,0.0,0.0,0.0,0.0,0.0,0.0,0.0,0.0,0.0,0.0,0.0,0.0,0.0,0.0,0.0,0.0,0.0,0.0,0.0,0.0,0.0,0.0,0.0,0.0,0.0,0.0,-2.5091,-2.5023,-2.477,-2.4553,-2.4452,-2.4263,-2.3999,0.0,0.0,0.0,0.0,0.0,0.0,0.0,0.0,0.0,0.0,0.0,0.0,0.0,0.0,0.0,0.0,0.0,0.0,0.0,0.0,0.0,0.0,0.0,0.0,0.0,0.0,0.0,0.0,0.0,0.0,0.0,0.0,0.0,0.0,0.0,0.0,0.0,0.0,0.0,0.0,0.0,0.0,0.0,0.0,0.0,0.0,0.0,0.0,-1.433,0.0,0.0,0.0,0.0,0.0,0.0,0.0,0.0,0.0,0.0,0.0,0.0,0.0,0.0,0.0,0.0,0.0,0.0,0.0,0.0,0.0,0.0,0.0,0.0,0.0,0.0,0.0,0.0,0.0,0.0,0.0,0.0,0.0,0.0,0.0,0.0,0.0,0.0,0.0,0.0,0.0,0.0,0.0,0.0,0.0,0.0,0.0,0.0,0.0,0.0,0.0,0.0,0.0,0.0,0.0,0.0,0.0,0.0,0.0,-2.5389,-2.5351,-2.5091,-2.4896,-2.4737,-2.4439,-2.4098,0.0,0.0,0.0,0.0,0.0,0.0,0.0,0.0,0.0,0.0,0.0,0.0,0.0,0.0,0.0,0.0,0.0,0.0,0.0,0.0,0.0,0.0,0.0,0.0,0.0,0.0,0.0,0.0,0.0,0.0,0.0,0.0,0.0,0.0,0.0,0.0,0.0,0.0,0.0,0.0,0.0,0.0,0.0,0.0,0.0,0.0,0.0,0.0,0.0,0.0,0.0,0.0,0.0,0.0,0.0,0.0,0.0,0.0,0.0,0.0,0.0,0.0,0.0,0.0,0.0,0.0,0.0,0.0,0.0,0.0,0.0,0.0,0.0,0.0,0.0,0.0,0.0,0.0,0.0,0.0,0.0,0.0,0.0,0.0,0.0,0.0,0.0,0.0,0.0,0.0,0.0,0.0,0.0,0.0,0.0,0.0,0.0,0.0,0.0,0.0,0.0,0.0,0.0,0.0,0.0,0.0,0.0,-2.5432,-2.5387,-2.5389,-2.5157,-2.4949,-2.4809,-2.4554,-2.4174,-2.3671,0.0,0.0,0.0,0.0,0.0,0.0,0.0,0.0,0.0,0.0,0.0,0.0,0.0,0.0,0.0,0.0,0.0,0.0,0.0,0.0,0.0,0.0,0.0,0.0,0.0,0.0,0.0,0.0,0.0,0.0,0.0,0.0,0.0,0.0,0.0,0.0,0.0,0.0,-1.5521,-1.4935,0.0,0.0,0.0,0.0,0.0,0.0,0.0,0.0,-1.6485,0.0,0.0,0.0,0.0,0.0,0.0,0.0,0.0,0.0,0.0,0.0,0.0,0.0,0.0,0.0,0.0,0.0,0.0,0.0,0.0,0.0,0.0,0.0,0.0,0.0,0.0,0.0,0.0,0.0,0.0,0.0,0.0,0.0,0.0,0.0,0.0,0.0,0.0,0.0,0.0,0.0,0.0,0.0,0.0,0.0,0.0,0.0,0.0,0.0,0.0,0.0,0.0,0.0,0.0,0.0,0.0,-2.5511,-2.5429,-2.5395,-2.5398,-2.5201,-2.5,-2.479,-2.4654,-2.4338,-2.3878,0.0,0.0,0.0,0.0,0.0,0.0,0.0,0.0,0.0,0.0,0.0,0.0,0.0,0.0,0.0,0.0,0.0,0.0,0.0,0.0,0.0,0.0,0.0,0.0,0.0,0.0,0.0,0.0,0.0,0.0,0.0,0.0,0.0,0.0,0.0,0.0,0.0,0.0,0.0,-1.6142,-1.6053,0.0,0.0,0.0,0.0,0.0,0.0,0.0,0.0,-1.5761,0.0,0.0,0.0,0.0,0.0,0.0,0.0,0.0,0.0,0.0,0.0,0.0,0.0,0.0,0.0,0.0,0.0,0.0,0.0,0.0,0.0,0.0,0.0,0.0,0.0,0.0,0.0,0.0,0.0,0.0,0.0,0.0,0.0,0.0,0.0,0.0,0.0,0.0,0.0,0.0,0.0,0.0,0.0,0.0,0.0,0.0,0.0,0.0,0.0,0.0,0.0,0.0,0.0,0.0,0.0,-2.5498,-2.548,-2.5412,-2.5397,-2.5203,-2.503,-2.491,-2.4666,-2.4372,0.0,0.0,0.0,0.0,0.0,0.0,0.0,0.0,0.0,0.0,0.0,0.0,0.0,0.0,0.0,0.0,0.0,0.0,0.0,0.0,0.0,0.0,0.0,0.0,0.0,0.0,0.0,0.0,0.0,0.0,0.0,0.0,0.0,0.0,0.0,0.0,0.0,0.0,0.0,0.0,-1.7036,-1.6754,-1.6986,0.0,0.0,0.0,0.0,0.0,0.0,-1.7211,-1.6619,0.0,0.0,0.0,0.0,0.0,0.0,0.0,0.0,0.0,0.0,0.0,0.0,0.0,0.0,0.0,0.0,0.0,0.0,0.0,0.0,0.0,0.0,0.0,0.0,0.0,0.0,0.0,0.0,0.0,0.0,0.0,0.0,0.0,0.0,0.0,0.0,0.0,0.0,0.0,0.0,0.0,0.0,0.0,0.0,0.0,0.0,0.0,0.0,0.0,0.0,0.0,0.0,0.0,0.0,0.0,-2.5525,-2.5517,-2.5445,-2.5387,-2.5224,-2.5084,-2.4981,-2.4678,-2.4388,0.0,0.0,0.0,0.0,0.0,0.0,0.0,0.0,0.0,0.0,0.0,0.0,0.0,0.0,0.0,0.0,0.0,0.0,0.0,0.0,0.0,0.0,0.0,0.0,0.0,0.0,0.0,0.0,0.0,0.0,0.0,0.0,0.0,0.0,0.0,0.0,0.0,0.0,0.0,0.0,0.0,-1.7399,-1.7562,-1.788,0.0,0.0,0.0,0.0,-1.8259,-1.7838,0.0,0.0,0.0,0.0,0.0,0.0,0.0,0.0,0.0,0.0,0.0,0.0,0.0,0.0,0.0,0.0,0.0,0.0,0.0,0.0,0.0,0.0,0.0,0.0,0.0,0.0,0.0,0.0,0.0,0.0,0.0,0.0,0.0,0.0,0.0,0.0,0.0,0.0,0.0,0.0,0.0,0.0,0.0,0.0,0.0,0.0,0.0,0.0,0.0,0.0,0.0,0.0,0.0,0.0,0.0,0.0,-2.5582,-2.5511,-2.5459,-2.5311,-2.5233,-2.5099,-2.4915,-2.4697,-2.4424,0.0,0.0,0.0,0.0,0.0,0.0,0.0,0.0,0.0,0.0,0.0,0.0,0.0,0.0,0.0,0.0,0.0,0.0,0.0,0.0,0.0,0.0,0.0,0.0,0.0,0.0,0.0,0.0,0.0,0.0,0.0,0.0,0.0,0.0,0.0,0.0,0.0,0.0,0.0,0.0,0.0,-1.8415,-1.8229,-1.8721,-1.8992,0.0,0.0,-1.8452,-1.8421,-1.7838,0.0,0.0,0.0,0.0,0.0,0.0,0.0,0.0,0.0,0.0,0.0,0.0,0.0,0.0,0.0,0.0,0.0,0.0,0.0,0.0,0.0,0.0,0.0,0.0,0.0,0.0,0.0,0.0,0.0,0.0,0.0,0.0,0.0,0.0,0.0,0.0,0.0,0.0,0.0,0.0,0.0,0.0,0.0,0.0,0.0,0.0,0.0,0.0,0.0,0.0,0.0,0.0,0.0,0.0,0.0,-2.5676,-2.561,-2.5579,-2.5492,-2.5357,-2.5293,-2.5168,-2.5032,-2.479,-2.4508,0.0,0.0,0.0,0.0,0.0,0.0,0.0,0.0,0.0,0.0,0.0,0.0,0.0,0.0,0.0,0.0,0.0,0.0,0.0,0.0,0.0,0.0,0.0,0.0,0.0,0.0,0.0,0.0,0.0,0.0,0.0,0.0,0.0,0.0,0.0,0.0,0.0,0.0,0.0,0.0,0.0,0.0,-1.8787,-1.8863,0.0,0.0,0.0,-1.8325,-1.8135,0.0,0.0,0.0,0.0,0.0,0.0,0.0,0.0,0.0,0.0,0.0,0.0,0.0,0.0,0.0,0.0,0.0,0.0,0.0,0.0,0.0,0.0,0.0,0.0,0.0,0.0,0.0,0.0,0.0,0.0,0.0,0.0,0.0,0.0,0.0,0.0,0.0,0.0,0.0,0.0,0.0,0.0,0.0,0.0,0.0,0.0,0.0,0.0,0.0,0.0,0.0,0.0,0.0,0.0,0.0,0.0,0.0,-2.5605,-2.561,-2.5538,-2.5421,-2.5322,-2.5212,-2.5088,-2.4847,0.0,0.0,0.0,0.0,0.0,0.0,0.0,0.0,0.0,0.0,0.0,0.0,0.0,0.0,0.0,0.0,0.0,0.0,0.0,0.0,0.0,0.0,0.0,0.0,0.0,0.0,0.0,-2.2712,0.0,0.0,0.0,0.0,0.0,0.0,0.0,0.0,0.0,0.0,0.0,0.0,0.0,0.0,-1.9777,-1.9188,-1.8964,-1.8878,0.0,0.0,-1.8548,-1.8349,-1.816,-1.7985,0.0,0.0,0.0,0.0,0.0,0.0,0.0,0.0,0.0,0.0,0.0,0.0,0.0,0.0,0.0,0.0,0.0,0.0,0.0,0.0,0.0,0.0,0.0,0.0,0.0,0.0,0.0,0.0,0.0,0.0,0.0,0.0,0.0,0.0,0.0,0.0,0.0,0.0,0.0,0.0,0.0,0.0,0.0,0.0,0.0,0.0,0.0,0.0,0.0,0.0,0.0,0.0,0.0,0.0,-2.5664,-2.56,-2.5613,-2.5532,-2.5404,-2.5341,-2.522,-2.5006,-2.4926,-2.47,0.0,0.0,0.0,0.0,0.0,0.0,0.0,0.0,0.0,0.0,0.0,0.0,0.0,0.0,0.0,0.0,0.0,0.0,0.0,0.0,0.0,0.0,0.0,0.0,0.0,0.0,0.0,0.0,0.0,0.0,0.0,0.0,0.0,0.0,0.0,0.0,0.0,0.0,0.0,0.0,0.0,-1.9378,-1.9442,-1.935,-1.9419,0.0,-1.9842,-1.9684,-1.9408,-1.9382,-1.9233,-1.886,0.0,0.0,0.0,0.0,0.0,0.0,0.0,0.0,0.0,0.0,0.0,0.0,0.0,0.0,0.0,0.0,0.0,0.0,0.0,0.0,0.0,0.0,0.0,0.0,0.0,0.0,0.0,0.0,0.0,0.0,0.0,0.0,0.0,0.0,0.0,0.0,0.0,0.0,0.0,0.0,0.0,0.0,0.0,0.0,0.0,0.0,0.0,0.0,0.0,0.0,0.0,0.0,0.0,-2.57,-2.5673,-2.5606,-2.5566,-2.5452,-2.5359,-2.5252,-2.5137,-2.5019,-2.4823,0.0,0.0,0.0,0.0,0.0,0.0,0.0,0.0,0.0,0.0,0.0,0.0,0.0,0.0,0.0,0.0,0.0,0.0,0.0,0.0,0.0,0.0,0.0,0.0,0.0,0.0,0.0,0.0,-2.3376,-2.3458,-2.3562,0.0,0.0,0.0,0.0,0.0,0.0,0.0,0.0,0.0,0.0,-1.9527,-1.9673,-1.9489,0.0,0.0,-1.9759,-1.9657,-1.9054,-1.9286,-1.9356,-1.8659,-1.8512,0.0,0.0,0.0,0.0,0.0,0.0,0.0,0.0,0.0,0.0,0.0,0.0,0.0,0.0,0.0,0.0,0.0,0.0,0.0,0.0,0.0,0.0,0.0,0.0,0.0,0.0,0.0,0.0,0.0,0.0,0.0,0.0,0.0,0.0,0.0,0.0,0.0,0.0,0.0,0.0,0.0,0.0,0.0,0.0,0.0,0.0,0.0,0.0,0.0,0.0,0.0,0.0,-2.5696,-2.5703,-2.5664,-2.5578,-2.5505,-2.5418,-2.5303,-2.5198,-2.5075,-2.4915,0.0,0.0,0.0,0.0,0.0,0.0,0.0,0.0,0.0,0.0,0.0,0.0,0.0,0.0,0.0,0.0,0.0,0.0,0.0,0.0,0.0,0.0,0.0,0.0,0.0,0.0,0.0,0.0,-2.3771,-2.3771,-2.385,0.0,0.0,0.0,0.0,0.0,0.0,0.0,0.0,0.0,0.0,-1.9713,-1.9837,-1.9673,-1.9627,-1.9932,-2.0209,-2.0203,-1.9719,-2.0058,-2.011,-1.9404,0.0,0.0,0.0,0.0,0.0,0.0,0.0,0.0,0.0,0.0,0.0,0.0,0.0,0.0,0.0,0.0,0.0,0.0,0.0,0.0,0.0,0.0,0.0,0.0,0.0,0.0,0.0,-2.6327,0.0,0.0,-2.7485,0.0,0.0,0.0,0.0,0.0,0.0,0.0,0.0,0.0,0.0,0.0,0.0,0.0,0.0,0.0,0.0,0.0,0.0,0.0,0.0,0.0,0.0,-2.5691,-2.5703,-2.57,-2.5634,-2.5511,-2.5499,-2.539,-2.5209,-2.5145,-2.4993,-2.479,0.0,0.0,0.0,0.0,0.0,0.0,0.0,0.0,0.0,0.0,0.0,0.0,0.0,0.0,0.0,0.0,0.0,0.0,0.0,0.0,0.0,0.0,0.0,0.0,0.0,0.0,-2.4173,-2.4116,-2.4058,0.0,0.0,0.0,0.0,0.0,0.0,0.0,0.0,0.0,-1.9977,-1.9885,-1.9851,-1.9977,-1.9884,-2.0182,-2.1308,-2.1461,-2.1565,-2.1843,-2.1988,-2.1949,0.0,0.0,0.0,0.0,0.0,0.0,0.0,0.0,0.0,0.0,0.0,0.0,0.0,0.0,0.0,0.0,0.0,0.0,0.0,0.0,0.0,0.0,0.0,0.0,0.0,0.0,0.0,-2.5281,-2.5324,0.0,0.0,0.0,0.0,0.0,0.0,0.0,0.0,0.0,0.0,0.0,-2.5063,-2.5088,0.0,0.0,0.0,0.0,0.0,0.0,0.0,0.0,0.0,0.0,0.0,0.0,-2.5705,-2.5702,-2.5703,-2.5666,-2.5576,-2.5511,-2.5461,-2.5332,-2.5214,-2.5061,-2.4869,0.0,0.0,0.0,0.0,0.0,0.0,0.0,0.0,0.0,0.0,0.0,0.0,0.0,0.0,0.0,0.0,0.0,0.0,0.0,0.0,0.0,0.0,0.0,0.0,0.0,-2.4393,0.0,0.0,0.0,0.0,0.0,0.0,0.0,0.0,0.0,0.0,-2.0198,-1.9966,-1.9998,-1.995,-1.996,-1.9991,-1.9881,-1.9932,0.0,0.0,0.0,0.0,0.0,0.0,0.0,0.0,0.0,0.0,0.0,0.0,0.0,0.0,-1.7429,-1.7368,-1.7417,-1.7685,-1.8306,0.0,0.0,0.0,0.0,0.0,0.0,0.0,0.0,0.0,0.0,0.0,0.0,0.0,0.0,-2.4802,-2.4791,-2.4723,0.0,0.0,0.0,0.0,0.0,0.0,0.0,0.0,-2.4764,-2.4842,-2.4991,-2.5044,-2.5107,-2.516,-2.5206,-2.5302,0.0,0.0,0.0,0.0,0.0,0.0,0.0,0.0,-2.5703,-2.5697,-2.5703,-2.5538,-2.5184,-2.5401,-2.5344,-2.4988,-2.4841,-2.4706,-2.4524,-2.3617,-2.3074,0.0,0.0,0.0,0.0,0.0,0.0,0.0,0.0,0.0,0.0,0.0,0.0,0.0,0.0,0.0,0.0,0.0,0.0,0.0,0.0,0.0,0.0,0.0,-2.4645,0.0,0.0,0.0,0.0,0.0,0.0,0.0,0.0,0.0,-2.1186,-2.0467,-2.0039,-2.0039,-2.003,-2.0031,-2.0031,0.0,0.0,0.0,0.0,0.0,0.0,0.0,-2.186,-2.0742,-2.0833,-2.0848,-2.0212,-1.9619,-1.9184,-1.9213,0.0,0.0,-1.8055,-1.7985,-1.8211,-1.9107,-1.9121,-1.9135,-1.9512,-1.9406,-1.9286,0.0,0.0,0.0,0.0,-2.4791,0.0,0.0,0.0,-2.4787,-2.4791,0.0,-2.4742,0.0,0.0,0.0,0.0,-2.4692,-2.4613,0.0,0.0,-2.4738,-2.4802,-2.4996,-2.4999,-2.5025,-2.5082,-2.5088,-2.5172,-2.5292,-2.5351,0.0,0.0,0.0,0.0,0.0,0.0,-2.5661,-2.5629,-2.5602,-2.5194,-2.4381,-2.5075,-2.5054,-2.4142,-2.4005,-2.3905,-2.3781,-2.2899,-2.2351,-2.2311,-2.2154,0.0,0.0,0.0,0.0,0.0,0.0,0.0,0.0,0.0,0.0,0.0,0.0,0.0,0.0,0.0,0.0,0.0,0.0,0.0,0.0,-2.4851,0.0,0.0,0.0,0.0,0.0,0.0,0.0,0.0,0.0,-2.2872,-2.1429,-2.061,-2.0127,-2.0108,0.0,0.0,0.0,0.0,-2.0202,-2.0757,-2.0788,-2.0873,-2.128,-2.1962,-2.2378,-2.2162,0.0,0.0,-2.1618,-2.0505,-2.004,-2.1295,-1.975,-1.8404,-1.8641,-1.8635,-1.889,-1.9785,-1.9653,-1.9412,-1.9639,-1.9671,-1.9494,-2.4301,0.0,0.0,0.0,0.0,-2.4578,-2.4626,-2.4719,-2.4673,-2.4726,-2.4806,-2.4742,0.0,0.0,0.0,0.0,0.0,0.0,-2.4512,-2.4594,-2.4613,-2.4642,-2.47,-2.4847,-2.4929,-2.4961,-2.5101,-2.5191,-2.5225,-2.525,-2.5023,-2.4606,0.0,0.0,0.0,0.0,-2.4736,-2.4731,-2.4171,-2.4023,-2.4374,-2.3956,-2.3834,-2.4,-2.3465,-2.3391,-2.3839,-2.2462,-2.1912,-2.2426,-2.1796,0.0,0.0,0.0,0.0,0.0,0.0,0.0,0.0,0.0,0.0,0.0,0.0,0.0,0.0,0.0,0.0,0.0,0.0,0.0,-2.4931,-2.5,-2.4968,0.0,0.0,0.0,0.0,0.0,0.0,0.0,0.0,0.0,-2.2174,-2.1403,-2.0726,0.0,0.0,-2.0108,-2.0108,-2.0059,-2.0064,-2.0221,-2.0602,0.0,-2.0827,-2.1352,-2.1691,-2.1465,-2.1273,-2.1141,-2.1033,-2.0727,-2.0587,-2.0975,-2.0088,-1.9447,-1.9854,-1.9779,-1.9822,-2.0372,-2.0705,-2.088,-2.0797,-2.0607,-2.0382,-2.4097,-2.4229,-2.4355,-2.4442,-2.4495,-2.4512,-2.4561,-2.466,-2.4594,-2.461,-2.466,-2.461,-2.4594,-2.4594,-2.4575,0.0,0.0,0.0,-2.4409,-2.4512,-2.4512,-2.4561,-2.4607,-2.4794,-2.4865,-2.4879,-2.5032,-2.5132,-2.5144,-2.5176,-2.4831,-2.4188,0.0,-2.4807,-2.3597,-2.4059,-2.4152,-2.3879,-2.3366,-2.3202,-2.3373,-2.2792,-2.2829,-2.352,-2.2755,-2.2504,-2.2891,-2.1637,-2.1129,-2.1513,-2.1056,-2.0967,0.0,0.0,0.0,0.0,0.0,0.0,0.0,0.0,0.0,0.0,0.0,-2.5,-2.5,0.0,0.0,0.0,-2.4824,-2.4707,-2.5057,-2.4519,0.0,0.0,0.0,0.0,0.0,0.0,0.0,-2.3925,-2.3439,-2.2829,-2.2059,-2.1574,-2.0991,-2.0213,-2.0108,-2.0108,-2.0108,0.0,-1.9991,-1.9998,-2.0311,-2.0476,-2.0299,-2.0781,-2.1187,-2.1215,-2.1309,-2.1353,-2.1353,-2.1079,-2.093,-2.1035,-2.0153,-1.9409,-2.0052,-1.9964,-1.9947,-2.042,-2.0938,-2.122,-2.104,-2.0957,-2.0845,-2.3876,-2.4016,-2.4247,-2.4408,-2.4459,-2.4459,-2.4512,-2.458,-2.4512,-2.4476,-2.4495,-2.4425,-2.4408,-2.4408,-2.4372,0.0,-2.4372,-2.4321,-2.4357,-2.4478,-2.4425,-2.4441,-2.4575,-2.4726,-2.4787,-2.4779,-2.4926,-2.5006,-2.4975,-2.5031,-2.4675,-2.3928,-2.4744,-2.4783,-2.4051,-2.4049,-2.3731,-2.3003,-2.291,-2.2497,-2.1738,-2.163,-2.1973,-2.2772,-2.1972,-2.1509,-2.1493,-2.0683,-2.018,-2.0116,-2.0107,-2.0117,-2.0108,0.0,0.0,0.0,0.0,0.0,0.0,0.0,0.0,0.0,0.0,0.0,0.0,0.0,0.0,0.0,-2.4455,0.0,-2.5141,-2.3821,0.0,0.0,0.0,-2.3871,-2.3809,-2.3752,-2.3386,-2.2576,0.0,0.0,-2.1388,-2.1304,-2.102,-2.0232,-2.0117,-2.0108,-2.0108,-2.006,-1.9992,-1.9982,-1.9988,-1.9949,-1.9832,-2.0304,-2.0836,-2.117,-2.1759,-2.1998,-2.1959,-2.1392,-2.118,-2.1685,-2.0082,-1.8836,-1.9556,-1.9521,-1.9464,-1.9918,-2.0516,-2.0911,-2.0858,-2.0994,-2.1055,-2.381,-2.3858,-2.3979,-2.4116,-2.4266,-2.4284,-2.4339,-2.4442,-2.4374,-2.4392,-2.4495,-2.4409,-2.443,-2.4375,-2.4284,-2.4284,-2.4321,-2.4247,-2.4247,-2.4266,-2.4303,-2.4338,-2.4374,-2.4543,-2.4657,-2.4654,-2.4842,-2.4585,-2.3979,-2.4043,-2.3683,-2.2972,-2.3167,-2.2929,-2.2242,-2.2243,-2.2194,-2.2096,-2.1461,-2.1008,-2.0814,-2.0785,-2.1159,-2.1948,-2.1136,-2.0965,-2.1528,-2.0723,-2.0265,-2.025,-2.02,-2.0175,-2.0167,-2.0182,0.0,0.0,0.0,0.0,0.0,0.0,0.0,0.0,0.0,-2.4234,-2.4203,0.0,-2.5005,0.0,-2.4822,-2.5125,-2.5184,-2.4937,0.0,0.0,-2.4977,-2.4606,-2.3961,-2.3819,-2.3448,-2.2595,-2.2438,-2.214,-2.1472,-2.1336,-2.1022,-2.0295,-2.0115,-2.0108,-2.0108,-2.0079,-2.0069,-2.0011,-1.9991,-1.9939,-1.9823,-2.0201,-2.0551,-2.057,-2.1054,-2.1372,-2.1306,-2.11,-2.0982,-2.104,-2.0205,-1.9573,-1.9644,-1.9491,-1.9117,-1.8879,-1.9898,-2.11,-2.1387,-2.1472,-2.1388,-2.3571,-2.3558,-2.3707,-2.3795,-2.3842,-2.4036,-2.4153,-2.4211,-2.4191,-2.4192,-2.4229,-2.4172,-2.4135,-2.4172,-2.4134,-2.4153,-2.4191,-2.4209,-2.419,-2.419,-2.4266,-2.4303,-2.4303,-2.4461,-2.4561,-2.4578,-2.4738,-2.4379,-2.3596,-2.3657,-2.3339,-2.2593,-2.2195,-2.1867,-2.1583,-2.1567,-2.1462,-2.1172,-2.0734,-2.0516,-2.0506,-2.0542,-2.074,-2.1115,-2.0709,-2.0638,-2.1062,-2.0605,-2.0334,-2.0294,-2.0272,-2.0238,-2.0238,-2.0227,-2.0249,0.0,0.0,0.0,0.0,0.0,0.0,0.0,0.0,0.0,0.0,0.0,-2.4753,-2.4647,-2.4807,-2.502,-2.5284,-2.4681,-2.4571,-2.5216,-2.4907,-2.4337,-2.3463,-2.3313,-2.2791,-2.1581,-2.1407,-2.123,-2.0909,-2.0824,-2.0623,-2.0233,-2.0143,-2.0108,-2.0108,-2.0108,-2.0108,-2.0041,-2.0041,-2.0001,-1.9866,-1.9999,-2.0107,-2.0023,-2.0426,-2.0764,-2.0666,-2.0525,-2.046,-2.0326,-1.9703,-1.9152,-1.9152,-1.9052,-1.8822,-1.8839,-1.941,-2.011,-2.0301,-2.0439,-2.0446,-2.3217,-2.3182,-2.3435,-2.3445,-2.3369,-2.3732,-2.3915,-2.3955,-2.3976,-2.3955,-2.3876,-2.3834,-2.3834,-2.3894,-2.3955,-2.4016,-2.4094,-2.417,-2.4208,-2.419,-2.4266,-2.4284,-2.4303,-2.443,-2.4498,-2.4495,-2.4629,-2.4257,-2.3512,-2.3498,-2.3132,-2.2399,-2.1553,-2.1196,-2.132,-2.1378,-2.1081,-2.0415,-2.0477,-2.0515,-2.0507,-2.0566,-2.0578,-2.0501,-2.05,-2.0472,-2.041,-2.0421,-2.0379,-2.034,-2.0314,-2.0327,-2.0314,-2.0301,-2.0301,0.0,-2.0294,0.0,0.0,0.0,0.0,0.0,0.0,0.0,0.0,-2.3882,-2.4336,-2.5236,-2.4737,-2.4652,-2.5346,-2.408,-2.3804,-2.5192,-2.4687,-2.3803,-2.2853,-2.2679,-2.1979,-2.0299,-2.0117,-2.0134,-2.0249,-2.0161,-2.0152,-2.02,-2.015,-2.0135,-2.0107,-2.0117,-2.0108,-2.0108,-2.0108,-2.004,-1.9918,-1.9806,-1.9711,-1.9606,-1.9879,-2.0154,-2.0065,-1.9861,-1.9666,-1.9573,-1.9054,-1.8557,-1.8485,-1.8551,-1.869,-1.8864,-1.9018,-1.9096,-1.9001,-1.9149,-1.907,-2.297,-2.2977,-2.3052,-2.3102,-2.3102,-2.3271,-2.3486,-2.3692,-2.3795,-2.3831,-2.3807,-2.3807,-2.3807,-2.3828,-2.3834,-2.3896,-2.4016,-2.4094,-2.4133,-2.419,-2.421,-2.4247,-2.4303,-2.4394,-2.4447,-2.4517,-2.453,-2.4169,-2.3416,-2.2782,-2.2115,-2.1374,-2.0573,-2.0245,-2.0356,0.0,0.0,0.0,-2.048,-2.0506,-2.0507,-2.0566,-2.0603,-2.0572,-2.0531,0.0,-2.0487,-2.0482,-2.0468,-2.0468,-2.0408,0.0,0.0,0.0,0.0,0.0,0.0,0.0,0.0,0.0,0.0,0.0,-2.0771,-2.1145,-2.2016,-2.2759,-2.3816,-2.5211,-2.5294,-2.5316,-2.5449,-2.52,-2.5129,-2.5403,-2.5266,-2.4521,-2.3032,-2.2776,-2.2077,-2.0327,-2.0152,-2.0192,-2.0265,-2.0265,-2.0287,-2.034,-2.0258,-2.0175,-2.0167,-2.0134,-2.0117,-2.0108,-2.0117,-2.0068,-1.9918,-1.9839,-1.9732,-1.9614,-1.9538,-1.9518,-1.939,-1.9218,-1.902,-1.8886,-1.8684,-1.8522,-1.8385,-1.8728,-1.8866,-1.84,-1.8551,-1.8901,-1.9306,-1.9361,-1.9301,-2.3264,-2.3175,-2.2929,-2.2799,0.0,-2.2876,-2.3035,-2.317,-2.3422,-2.3549,-2.3499,-2.3476,-2.3476,-2.3522,-2.3531,-2.3404,-2.3133,-2.3674,-2.3699,-2.3449,-2.3931,-2.4172,-2.4247,-2.4321,-2.4358,-2.4393,-2.4481,-2.4122,-2.3337,-2.2544,-2.1793,-2.1092,-2.0318,-1.9952,-2.0058,-2.0107,-2.0215,-2.0352,-2.0448,-2.0516,-2.0508,-2.0559,-2.0585,-2.0546,-2.0516,0.0,0.0,0.0,0.0,0.0,0.0,0.0,0.0,-2.0415,0.0,-2.0383,-2.039,-2.041,-2.041,-2.041,-2.039,-2.0396,-2.0383,-2.0944,-2.2198,-2.3082,-2.4121,-2.5313,-2.5478,-2.5524,-2.5507,-2.5517,-2.5524,-2.5488,-2.5062,-2.4218,-2.3047,-2.241,-2.1606,-2.0493,-2.0203,-2.0223,-2.034,-2.0334,-2.0334,-2.0386,-2.028,-2.0211,-2.0205,-2.0134,-2.0108,-2.0117,-2.0117,-2.0068,-1.9988,-1.9896,-1.9797,-1.9669,-1.9527,-1.9416,-1.928,-1.9084,-1.8896,-1.8824,-1.875,-1.8638,-1.85,-1.8732,-1.8728,-1.8272,-1.8273,-1.8384,-1.8552,-1.8353,-1.8108,-2.3641,-2.3401,-2.2969,-2.2672,-2.246,-2.2579,-2.2659,-2.2685,-2.3052,0.0,0.0,-2.3119,-2.3102,-2.3193,-2.3241,-2.2964,-2.2451,-2.3113,-2.3202,-2.2833,-2.352,-2.3966,-2.419,-2.4266,-2.4303,-2.4284,-2.4411,-2.4129,-2.3475,-2.2669,-2.1942,-2.1285,-2.0489,-2.0059,-2.0015,-2.0116,-2.0208,-2.0288,-2.0424,-2.0476,-2.048,-2.0555,-2.0555,-2.0505,-2.0508,-2.0504,-2.0513,-2.0501,-2.0511,-2.0506,-2.0506,-2.0516,-2.0515,-2.0515,-2.0504,-2.0506,-2.0502,-2.0502,-2.0502,-2.0502,-2.0502,-2.0502,-2.0502,-2.1129,-2.2674,-2.3515,-2.4348,-2.5227,-2.5409,-2.5505,-2.5507,-2.551,-2.542,-2.5279,-2.4571,-2.3755,-2.2774,-2.1966,-2.1182,-2.0435,-2.0223,-2.0265,-2.0372,-2.036,-2.0328,-2.036,-2.0294,-2.0219,-2.0205,-2.0182,-2.0135,-2.0145,-2.0127,-2.0069,-2.0019,-1.9947,-1.987,-1.9757,-1.9617,-1.9513,-1.9431,-1.9232,-1.9069,-1.9001,-1.8914,-1.8733,-1.86,-1.8575,-1.8461,-1.8176,-1.8091,-1.7988,-1.7664,-1.7273,-1.6988,-2.3723,-2.3062,-2.3245,-2.2885,-2.2254,-2.2394,-2.2504,-2.2542,-2.2842,-2.2995,-2.3045,-2.3003,-2.307,-2.3102,-2.3193,-2.3194,-2.31,-2.2652,-2.2823,-2.3515,-2.3035,-2.328,-2.4095,-2.419,-2.4209,-2.421,-2.4284,-2.4302,-2.4153,-2.3356,-2.2638,-2.2004,-2.124,-2.0552,-2.0067,-2.0079,-2.0143,-2.0222,-2.0359,-2.0415,-2.0413,-2.0483,-2.0509,-2.0511,-2.0502,-2.0508,-2.0506,-2.05,-2.051,-2.0506,-2.0504,-2.0499,-2.0503,-2.0503,-2.05,-2.051,-2.051,-2.051,-2.051,-2.0513,-2.051,-2.051,-2.051,-2.0904,-2.1789,-2.2677,-2.3531,-2.4385,-2.509,-2.5564,-2.5511,-2.5453,-2.5136,-2.4532,-2.4246,-2.3555,-2.2015,-2.1652,-2.1193,-2.0346,-2.0241,-2.0314,-2.0392,-2.0396,-2.0394,-2.0402,-2.0315,-2.0287,-2.0273,-2.0225,-2.0216,-2.0225,-2.0182,-2.0108,-2.0089,-2.0028,-1.9963,-1.9896,-1.9744,-1.9638,-1.9572,-1.9427,-1.928,-1.9134,-1.9,-1.8771,-1.8524,-1.8443,-1.8363,-1.8215,-1.8113,-1.8005,-1.7878,-1.7486,-1.7052,-2.4464,-2.4098,-2.3474,-2.2983,-2.2677,-2.2423,-2.2338,-2.2422,-2.2515,-2.2632,-2.2755,-2.2738,-2.2764,-2.2842,-2.2868,-2.2675,-2.2366,-2.2125,-2.2051,-2.2038,-2.1885,-2.2044,-2.249,-2.2605,-2.2607,-2.2628,-2.2703,-2.2758,-2.2758,-2.1987,-2.1519,-2.1332,-2.068,-2.0207,-1.9977,-2.0011,-2.0079,-2.0134,-2.0287,-2.0352,-2.0394,-2.0419,-2.0453,-2.0513,-2.0511,-2.051,-2.0504,-2.0507,-2.0508,-2.0562,-2.0543,-2.054,-2.051,-2.0527,-2.0545,-2.0516,-2.0516,-2.0516,-2.0501,-2.0501,-2.0501,-2.0501,-2.0501,-2.0631,-2.102,-2.1858,-2.2726,-2.3558,-2.4025,-2.4418,-2.4768,-2.4432,-2.4135,-2.4222,-2.3396,-2.2473,-2.1717,-2.1139,-2.074,-2.0392,-2.0338,-2.0371,-2.0452,-2.0448,-2.0434,-2.0399,-2.034,-2.0295,-2.0287,-2.0265,-2.0254,-2.0238,-2.0205,-2.018,-2.0162,-2.0108,-2.0048,-1.9998,-1.9858,-1.9757,-1.9695,-1.9555,-1.9383,-1.9274,-1.9115,-1.8913,-1.8642,-1.8545,-1.8445,-1.8284,-1.8176,-1.807,-1.7922,-1.7509,-1.7035,-2.4968,-2.4842,-2.3653,-2.2972,-2.2775,-2.2329,-2.2168,-2.2209,-2.2237,-2.2276,-2.2432,-2.246,-2.2497,-2.2579,-2.2579,-2.2323,-2.1876,-2.1826,-2.1633,-2.1243,-2.1092,-2.1132,-2.1378,-2.1319,-2.127,-2.1308,-2.1348,-2.1405,-2.137,-2.0844,-2.0566,-2.0588,-2.0033,-1.9763,-1.987,-1.9947,-2.0001,-2.0079,-2.0175,-2.0272,-2.036,-2.0388,-2.0425,-2.0458,-2.048,-2.0487,-2.0516,-2.0504,-2.0515,-2.0584,-2.0604,-2.0566,-2.0544,-2.0583,-2.0581,-2.0516,-2.0534,-2.0516,-2.052,-2.052,-2.054,-2.052,-2.0519,-2.0518,-2.0572,-2.1143,-2.1887,-2.2659,-2.3026,-2.34,-2.383,-2.345,-2.3176,-2.3527,-2.2469,-2.1598,-2.1314,-2.0718,-2.0357,-2.0405,-2.0418,-2.0449,-2.0491,-2.0502,-2.0483,-2.0418,-2.0365,-2.0289,-2.0115,-2.0051,-2.0025,-2.0029,-2.0108,-2.0219,-2.0214,-2.0182,-2.0136,-2.0117,-1.9998,-1.9904,-1.9816,-1.9656,-1.9495,-1.9419,-1.9259,-1.9051,-1.886,-1.8698,-1.8545,-1.8348,-1.8243,-1.8155,-1.7922,-1.7479,-1.691,-2.4691,-2.4253,-2.3694,-2.285,-2.1976,-2.1932,-2.1928,-2.1957,-2.2015,-2.2089,-2.2225,-2.2366,-2.2432,-2.2515,-2.2579,-2.2554,-2.2417,-2.1876,-2.201,-2.2471,-2.1348,-2.122,-2.1914,-2.1468,-2.1245,-2.1267,-2.1252,-2.1182,-2.1165,-2.1186,-2.0989,-2.0482,-1.9855,-1.9599,-1.9701,-1.9842,-1.9945,-1.9992,-2.0031,-2.0116,-2.0292,-2.0308,-2.034,-2.0418,-2.0395,-2.0443,-2.0492,-2.0506,-2.0503,-2.0501,-2.0566,-2.0596,-2.0604,-2.0605,-2.0605,-2.0605,-2.0586,-2.0586,-2.0586,-2.0605,-2.0586,-2.0605,-2.0585,-2.0584,-2.0584,-2.066,-2.104,-2.182,-2.2608,-2.3007,-2.313,-2.297,-2.2625,-2.2191,-2.1812,-2.1386,-2.072,-2.0448,-2.0422,-2.0497,-2.0497,-2.0497,-2.0438,-2.0398,-2.0409,-2.0274,-2.0239,-2.0045,-1.9541,-1.9313,-1.9289,-1.9391,-1.9799,-2.0234,-2.0269,-2.0241,-2.0208,-2.018,-2.0117,-2.0059,-2.0009,-1.9881,-1.9738,-1.955,-1.9376,-1.9164,-1.893,-1.8734,-1.8603,-1.841,-1.829,-1.8187,-1.7866,-1.7486,-1.6953,-2.4658,-2.4451,-2.351,-2.2489,-2.1622,-2.1708,-2.1827,-2.184,-2.1735,-2.1751,-2.1797,-2.1915,-2.2135,-2.2449,-2.246,-2.2497,-2.2473,-2.185,-2.1738,-2.2004,-2.1038,-2.0807,-2.1126,-2.0965,-2.0643,-2.0283,-2.025,-2.0061,-1.9767,-1.9866,-1.9812,-1.9573,-1.9418,-1.9438,-1.9509,-1.9668,-1.972,-1.9755,-1.9851,-1.9918,-2.0011,-2.015,-2.0265,-2.0282,-2.0315,-2.0377,-2.0425,-2.0439,-2.0465,-2.0497,-2.0561,-2.0572,-2.0549,-2.0549,-2.0531,-2.0533,-2.0551,-2.0549,-2.0531,-2.0537,-2.054,-2.054,-2.0583,-2.0605,-2.0605,-2.0605,-2.0761,-2.1066,-2.1429,-2.1767,-2.2169,-2.1831,-2.1562,-2.1585,-2.1254,-2.0794,-2.0452,-2.0418,-2.0474,-2.0506,-2.0525,-2.0295,-1.9887,-1.9744,-1.9718,-1.9696,-1.9696,-1.9526,-1.9204,-1.8784,-1.8442,-1.8531,-1.9115,-1.9823,-2.0199,-2.0292,-2.0254,-2.0249,-2.0182,-2.0108,-2.0088,-1.9952,-1.9776,-1.9725,-1.9485,-1.9292,-1.9084,-1.8861,-1.8696,-1.8471,-1.8273,-1.8146,-1.7839,-1.7392,-1.6869,-2.4426,-2.4396,-2.3305,-2.2181,-2.1246,-2.1402,-2.1495,-2.1509,-2.1401,-2.1339,-2.1401,-2.1526,-2.1768,-2.2106,-2.2248,-2.2377,-2.2347,-2.1924,-2.1738,-2.1661,-2.1034,-2.0729,-2.0759,-2.0581,-2.0286,-1.9848,-1.9625,-1.9199,-1.8686,-1.8751,-1.8843,-1.8896,-1.9082,-1.9246,-1.9341,-1.9475,-1.9536,-1.9585,-1.9682,-1.9713,-1.9786,-1.999,-2.0116,-2.0167,-2.0235,-2.0294,-2.0359,-2.0383,-2.0395,-2.048,-2.0527,-2.0542,-2.05,-2.0503,-2.0506,-2.0503,-2.05,-2.05,-2.05,-2.0514,-2.0501,-2.0501,-2.0552,-2.0559,-2.056,-2.0579,-2.0601,-2.0625,-2.0605,-2.0912,-2.126,-2.0901,-2.0809,-2.1258,-2.0774,-2.0379,-2.0097,-2.0141,-2.0041,-1.9872,-1.9686,-1.9666,-1.9044,-1.8868,-1.8871,-1.8841,-1.8974,-1.8845,-1.8575,-1.8003,-1.7657,-1.7599,-1.8127,-1.8893,-1.9812,-2.0244,-2.0262,-2.0277,-2.0205,-2.0136,-2.0108,-1.9952,-1.982,-1.977,-1.9532,-1.9301,-1.9109,-1.8911,-1.8414,-1.8248,-1.8036,-1.7897,-1.7766,-1.7304,-1.6926,-2.3797,-2.3948,-2.3079,-2.1972,-2.0827,-2.086,-2.086,-2.0909,-2.0909,-2.0942,-2.1039,-2.115,-2.1276,-2.1401,-2.1915,-2.2209,-2.222,-2.2226,-2.2248,-2.2218,-2.1504,-2.1259,-2.1411,-2.0739,-2.0413,-2.0246,-1.9695,-1.9136,-1.8612,-1.8598,-1.8675,-1.8788,-1.8896,-1.9034,-1.9184,-1.9277,-1.9361,-1.9476,-1.9485,-1.9577,-1.9699,-1.9763,-1.99,-2.0069,-2.0106,-2.0167,-2.0284,-2.0313,-2.0334,-2.0418,-2.0464,-2.0495,-2.0499,-2.049,-2.0438,-2.0458,-2.0438,-2.0438,-2.0438,-2.0422,-2.0461,-2.0503,-2.0514,-2.0521,-2.0525,-2.057,-2.0594,-2.0596,-2.056,-2.0586,-2.0716,-2.0651,-2.0527,-2.0525,-2.0514,-2.0061,-1.933,-1.9295,-1.8944,-1.8429,-1.8255,-1.8203,-1.8081,-1.8058,-1.8028,-1.8076,-1.8423,-1.8369,-1.7347,-1.7079,-1.6964,-1.6826,-1.6955,-1.7367,-1.8826,-1.971,-2.0166,-2.0334,-2.0269,-2.0075,-2.0098,-2.0036,-1.9889,-1.9657,-1.9306,-1.9064,-1.9017,-1.8576,-1.7858,-1.7542,-1.7425,-1.7342,-1.7483,-1.7309,-1.7002,-2.3046,-2.2486,-2.237,-2.1647,-2.0608,-2.0662,-2.0744,-2.0744,-2.0613,-2.0579,-2.0579,-2.0679,-2.0778,-2.0795,-2.1229,-2.1601,-2.1886,-2.2135,-2.2265,-2.2164,-2.1461,-2.1116,-2.1102,-2.0339,-1.9764,-1.941,-1.9166,-1.8778,-1.835,-1.8383,-1.8465,-1.8563,-1.8752,-1.8861,-1.8967,-1.9086,-1.92,-1.9246,-1.9274,-1.9353,-1.9442,-1.9471,-1.9596,-1.9842,-1.9928,-2.0031,-2.0171,-2.0156,-2.0238,-2.0354,-2.034,-2.0383,-2.036,-1.9896,-1.9599,-1.9569,-1.9126,-1.9068,-1.9515,-1.9644,-1.9915,-2.0432,-2.0509,-2.0521,-2.0547,-2.0566,-2.0547,-2.0572,-2.0549,-2.0539,-2.0585,-2.0566,-2.031,-1.9779,-1.9661,-1.9333,-1.8652,-1.8397,-1.8277,-1.7974,-1.7548,-1.7185,-1.7168,-1.7166,-1.7159,-1.7174,-1.7471,-1.7337,-1.683,-1.6346,-1.6035,-1.6015,-1.6342,-1.6898,-1.734,-1.8792,-1.9701,-2.0166,-2.0243,-1.9669,-1.9454,-1.925,-1.9052,-1.8208,-1.8116,-1.8179,-1.7904,-1.7572,-1.694,-1.6779,-1.6693,-1.6932,-1.7122,-1.706,-1.6921,-2.2636,-2.17,-2.1862,-2.1279,-2.035,-2.0373,-2.0441,-2.0441,-2.0273,-2.0185,-2.0235,-2.0289,-2.0323,-2.0392,-2.0697,-2.0991,-2.1324,-2.1721,-2.1828,-2.1561,-2.1078,-2.0755,-2.0488,-1.9924,-1.9493,-1.9102,-1.8857,-1.8504,-1.8056,-1.81,-1.8184,-1.8266,-1.8487,-1.8658,-1.8733,-1.8896,-1.9002,-1.9018,-1.912,-1.9184,-1.9214,-1.9277,-1.9365,-1.9555,-1.9695,-1.9862,-2.003,-2.0041,-1.9933,-1.9842,-1.9841,-1.9896,-1.9877,-1.9159,-1.8808,-1.8984,-1.8368,-1.8135,-1.8659,-1.9012,-1.9461,-2.0037,-2.0351,-2.0525,-2.0558,-2.0514,-2.0536,-2.054,-2.0521,-2.0462,-2.0197,-2.0088,-1.9841,-1.9257,-1.8945,-1.8456,-1.7688,-1.753,-1.7387,-1.7049,-1.66,-1.6314,-1.6281,-1.6269,-1.6269,-1.6288,-1.6445,-1.6445,-1.6211,-1.5839,-1.5405,-1.5449,-1.5879,-1.6342,-1.6795,-1.778,-1.8511,-1.8993,-1.9424,-1.8988,-1.872,-1.8493,-1.7957,-1.7036,-1.6696,-1.6809,-1.6706,-1.6419,-1.6196,-1.6029,-1.6221,-1.6482,-1.669,-1.6898,-1.6775,-2.2636,-2.1675,-2.161,-2.1046,-2.0157,-1.9935,-1.9884,-1.999,-1.9869,-1.9904,-1.999,-2.0005,-2.0025,-2.0061,-2.0357,-2.0527,-2.0662,-2.1135,-2.1077,-2.0587,-2.0504,-2.0162,-1.9646,-1.9398,-1.9293,-1.9282,-1.8902,-1.8329,-1.7783,-1.7811,-1.7878,-1.7988,-1.8142,-1.833,-1.851,-1.8659,-1.8788,-1.8807,-1.8949,-1.9018,-1.9018,-1.9148,-1.9259,-1.9323,-1.9442,-1.963,-1.9885,-1.9888,-1.9629,-1.9057,-1.8967,-1.8981,-1.8963,-1.8247,-1.8134,-1.8619,-1.8208,-1.7864,-1.7956,-1.8562,-1.8911,-1.9294,-1.9953,-2.0363,-2.0336,-2.0445,-2.0513,-2.0503,-2.0383,-2.0127,-1.9432,-1.9124,-1.901,-1.9059,-1.8309,-1.7556,-1.6867,-1.6644,-1.6383,-1.5755,-1.5543,-1.5451,-1.5446,-1.5558,-1.5602,-1.5582,-1.56,-1.5639,-1.562,-1.5497,-1.5437,-1.5405,-1.5564,-1.5859,-1.6284,-1.6735,-1.7187,-1.7605,-1.8038,-1.8092,-1.8049,-1.7843,-1.7251,-1.6419,-1.6233,-1.6317,-1.5887,-1.5629,-1.5465,-1.5374,-1.5678,-1.5952,-1.6112,-1.6308,-1.6597,-2.2702,-2.1921,-2.1643,-2.1147,-2.0437,-2.0023,-1.9848,-1.9848,-1.9797,-1.9797,-1.9797,-1.9833,-1.9848,-1.9919,-2.0061,-2.0166,-2.02,-2.0579,-2.0782,-2.0606,-1.9787,-1.927,-1.8897,-1.799,-1.7551,-1.7675,-1.7582,-1.7494,-1.7434,-1.7496,-1.7589,-1.7726,-1.7905,-1.8074,-1.8163,-1.827,-1.8353,-1.8469,-1.8565,-1.8622,-1.8661,-1.8807,-1.8965,-1.9081,-1.923,-1.9413,-1.9668,-1.9775,-1.973,-1.9504,-1.9087,-1.8603,-1.8033,-1.7285,-1.6978,-1.7099,-1.6494,-1.6364,-1.6885,-1.7219,-1.7675,-1.8225,-1.9032,-1.9483,-1.9686,-2.0138,-2.0409,-2.0377,-1.9951,-1.9391,-1.9071,-1.797,-1.7441,-1.7414,-1.7142,-1.6687,-1.5958,-1.5776,-1.5636,-1.543,-1.5368,-1.5399,-1.5412,-1.5387,-1.5415,-1.5413,-1.5409,-1.5405,-1.541,-1.5403,-1.5418,-1.5413,-1.5455,-1.5461,-1.582,-1.6072,-1.628,-1.6705,-1.7067,-1.7229,-1.7204,-1.7083,-1.6471,-1.6078,-1.5901,-1.5648,-1.5213,-1.4975,-1.4879,-1.4873,-1.5163,-1.5345,-1.547,-1.5809,-1.6259,-2.2556,-2.1988,-2.1527,-2.107,-2.0571,-2.0025,-1.9762,-1.9797,-1.9762,-1.9762,-1.9762,-1.9762,-1.9762,-1.9797,-1.9884,-1.9919,-1.9955,-2.02,-2.041,-2.0473,-1.9657,-1.8993,-1.8629,-1.7515,-1.6991,-1.7061,-1.7027,-1.6984,-1.7084,-1.7183,-1.7281,-1.7441,-1.7595,-1.7732,-1.7856,-1.7975,-1.8121,-1.8163,-1.8266,-1.8348,-1.8375,-1.851,-1.8661,-1.8842,-1.8999,-1.9166,-1.9323,-1.9217,-1.9214,-1.9137,-1.8383,-1.7698,-1.7461,-1.6544,-1.6,-1.6208,-1.5741,-1.5478,-1.5965,-1.6387,-1.6701,-1.7354,-1.8117,-1.8614,-1.8756,-1.9273,-1.9465,-1.9414,-1.8982,-1.8494,-1.8008,-1.7208,-1.6361,-1.6047,-1.6092,-1.5873,-1.5379,-1.5291,-1.5291,-1.528,-1.5319,-1.5349,-1.5333,-1.5363,-1.5397,-1.5416,-1.5409,-1.5404,-1.5412,-1.5382,-1.5385,-1.5373,-1.5401,-1.5412,-1.5423,-1.5466,-1.5466,-1.584,-1.6243,-1.6288,-1.6271,-1.6182,-1.578,-1.5561,-1.5369,-1.5356,-1.4981,-1.4809,-1.4696,-1.4721,-1.4814,-1.5114,-1.5468,-1.5927,-1.6321,-2.2333,-2.1903,-2.1364,-2.0958,-2.0484,-1.9968,-1.9728,-1.9726,-1.969,-1.969,-1.9726,-1.969,-1.969,-1.9726,-1.9762,-1.9797,-1.9848,-1.9955,-2.0025,-2.0012,-1.9712,-1.9311,-1.8345,-1.7811,-1.7631,-1.7562,-1.7135,-1.6955,-1.7081,-1.6979,-1.6972,-1.7133,-1.7256,-1.7384,-1.7566,-1.7811,-1.7878,-1.7883,-1.8057,-1.8086,-1.8069,-1.8255,-1.8415,-1.8566,-1.8753,-1.8895,-1.8856,-1.8455,-1.8176,-1.8129,-1.697,-1.6592,-1.6828,-1.5746,-1.5396,-1.6091,-1.5562,-1.5261,-1.5395,-1.5868,-1.6329,-1.6445,-1.7207,-1.7738,-1.7761,-1.7994,-1.8169,-1.8164,-1.7864,-1.7402,-1.6758,-1.6292,-1.5907,-1.5299,-1.5364,-1.5371,-1.5302,-1.5287,-1.5274,-1.5217,-1.525,-1.5278,-1.5217,-1.5299,-1.5362,-1.539,-1.539,-1.539,-1.5362,-1.531,-1.529,-1.5316,-1.5326,-1.5348,-1.5366,-1.5362,-1.5366,-1.5517,-1.5798,-1.5742,-1.568,-1.5586,-1.5491,-1.5245,-1.5099,-1.5018,-1.4927,-1.4782,-1.4662,-1.4677,-1.4862,-1.5166,-1.5418,-1.5716,-1.6025,-2.2363,-2.2241,-2.1816,-2.1267,-2.0698,-2.0138,-1.966,-1.9317,-1.9376,-1.9435,-1.9523,-1.956,-1.9617,-1.969,-1.9726,-1.9726,-1.9726,-1.9812,-1.9848,-1.9869,-1.9908,-1.9078,-1.8129,-1.8129,-1.8127,-1.7879,-1.7572,-1.7429,-1.7468,-1.7061,-1.6901,-1.6956,-1.7007,-1.7075,-1.724,-1.7338,-1.737,-1.7448,-1.7549,-1.7625,-1.7715,-1.7893,-1.8086,-1.8235,-1.8469,-1.8624,-1.8682,-1.8185,-1.7333,-1.6485,-1.6156,-1.5681,-1.5504,-1.5076,-1.499,-1.5184,-1.5182,-1.5057,-1.5109,-1.5324,-1.5478,-1.5549,-1.633,-1.6848,-1.6854,-1.7432,-1.7752,-1.7733,-1.7244,-1.6638,-1.6305,-1.5749,-1.527,-1.5171,-1.5201,-1.5279,-1.5279,-1.5246,-1.5206,-1.5187,-1.5166,-1.5171,-1.5192,-1.5217,-1.5244,-1.5265,-1.5288,-1.5226,-1.5128,-1.524,-1.5235,-1.5231,-1.5244,-1.5283,-1.5303,-1.5316,-1.5345,-1.5368,-1.5477,-1.5494,-1.5463,-1.5428,-1.5364,-1.526,-1.5205,-1.5144,-1.5031,-1.4889,-1.4806,-1.471,-1.474,-1.4917,-1.4841,-1.5006,-1.5379,-2.217,-2.2161,-2.1749,-2.1412,-2.1054,-2.0261,-1.9749,-1.9493,-1.9278,-1.9213,-1.9288,-1.9339,-1.945,-1.9493,-1.9545,-1.956,-1.9581,-1.9669,-1.9705,-1.9669,-1.9782,-1.9375,-1.8779,-1.8838,-1.8671,-1.8423,-1.8112,-1.8013,-1.7914,-1.7429,-1.7183,-1.7199,-1.6955,-1.6946,-1.7007,-1.7083,-1.7133,-1.724,-1.7281,-1.7377,-1.7479,-1.7612,-1.7755,-1.7936,-1.8128,-1.8263,-1.8054,-1.7754,-1.7253,-1.6675,-1.6127,-1.552,-1.5129,-1.4791,-1.4724,-1.4765,-1.4867,-1.4936,-1.4957,-1.5015,-1.5057,-1.5136,-1.565,-1.585,-1.5984,-1.6449,-1.6739,-1.6598,-1.6112,-1.5881,-1.5732,-1.5228,-1.4987,-1.5011,-1.5133,-1.5199,-1.5215,-1.5174,-1.5151,-1.5139,-1.5133,-1.5101,-1.5151,-1.513,-1.4954,-1.4854,-1.5023,-1.4854,-1.4712,-1.4943,-1.5102,-1.5039,-1.5102,-1.5168,-1.5138,-1.5119,-1.4996,-1.505,-1.4956,-1.5025,-1.5124,-1.5173,-1.5348,-1.5323,-1.5302,-1.5267,-1.5144,-1.5041,-1.496,-1.4859,-1.4754,-1.4732,-1.4774,-1.4665,-1.4986,-2.1855,-2.1894,-2.1443,-2.1372,-2.1295,-2.0371,-1.9884,-1.9771,-1.9363,-1.9127,-1.9078,-1.9064,-1.9176,-1.9265,-1.9302,-1.9288,-1.9376,-1.9487,-1.9501,-1.9501,-1.9596,-1.9576,-1.9612,-1.9363,-1.9262,-1.9142,-1.878,-1.861,-1.8422,-1.7966,-1.7754,-1.7701,-1.7293,-1.7024,-1.7109,-1.7159,-1.7129,-1.7099,-1.7191,-1.7289,-1.7329,-1.7401,-1.7526,-1.7687,-1.79,-1.7838,-1.7572,-1.7358,-1.7365,-1.7881,-1.6424,-1.5616,-1.5478,-1.4799,-1.4593,-1.4648,-1.4719,-1.4803,-1.4873,-1.4928,-1.4979,-1.5011,-1.5061,-1.509,-1.5233,-1.5415,-1.5491,-1.5515,-1.514,-1.5169,-1.5076,-1.4877,-1.4785,-1.4866,-1.5014,-1.5056,-1.5069,-1.5101,-1.5107,-1.5066,-1.5062,-1.4953,-1.4953,-1.4826,-1.4513,-1.3821,-1.4033,-1.3939,-1.3959,-1.4252,-1.4507,-1.4712,-1.4839,-1.5025,-1.4978,-1.4924,-1.4719,-1.4598,-1.4423,-1.4418,-1.4609,-1.4788,-1.5212,-1.539,-1.5362,-1.5346,-1.5338,-1.523,-1.513,-1.5055,-1.4947,-1.501,-1.5088,-1.4848,-1.4922,-2.1664,-2.1698,-2.1655,-2.1416,-2.1032,-2.0785,-2.0187,-1.9418,-1.9385,-1.9205,-1.8936,-1.8993,-1.9055,-1.9153,-1.9153,-1.9153,-1.9176,-1.9288,-1.9391,-1.9413,-1.9376,-1.945,-1.9581,-1.9622,-1.9747,-1.9619,-1.9265,-1.9054,-1.8901,-1.8579,-1.8297,-1.828,-1.8091,-1.7914,-1.7567,-1.7559,-1.7327,-1.7059,-1.7115,-1.719,-1.7191,-1.7256,-1.7353,-1.7496,-1.7704,-1.7871,-1.7786,-1.7369,-1.7213,-1.7029,-1.6237,-1.5321,-1.4778,-1.4476,-1.4375,-1.4439,-1.4555,-1.4641,-1.4671,-1.4766,-1.4876,-1.493,-1.4936,-1.496,-1.5027,-1.5071,-1.5113,-1.5114,-1.504,-1.4897,-1.4711,-1.4208,-1.4208,-1.4516,-1.4686,-1.4732,-1.4854,-1.4962,-1.4995,-1.4892,-1.4413,-1.4007,-1.4027,-1.3441,-1.3119,-1.2852,-1.2846,-1.2837,-1.3088,-1.3448,-1.375,-1.398,-1.4237,-1.4308,-1.4092,-1.4042,-1.3957,-1.3863,-1.3754,-1.3689,-1.3891,-1.4287,-1.4669,-1.5072,-1.541,-1.5408,-1.5395,-1.5368,-1.526,-1.521,-1.5149,-1.514,-1.5093,-1.4916,-1.4814,-2.152,-2.1506,-2.1568,-2.1472,-2.1203,-2.0914,-2.0492,-2.0,-1.9753,-1.9418,-1.9063,-1.9072,-1.902,-1.8927,-1.8927,-1.8927,-1.8988,-1.9026,-1.9191,-1.9302,-1.9265,-1.9265,-1.9339,-1.956,-1.969,-1.9722,-1.9606,-1.9493,-1.9412,-1.91,-1.8826,-1.8811,-1.8641,-1.8342,-1.812,-1.8071,-1.7808,-1.7427,-1.7359,-1.7336,-1.7122,-1.7141,-1.7208,-1.7288,-1.7455,-1.7641,-1.771,-1.7608,-1.7342,-1.707,-1.6519,-1.5699,-1.4759,-1.4374,-1.4242,-1.4325,-1.4416,-1.4534,-1.4587,-1.4668,-1.4747,-1.485,-1.4859,-1.4866,-1.4917,-1.4992,-1.5038,-1.4971,-1.4683,-1.4315,-1.383,-1.3424,-1.339,-1.3524,-1.3695,-1.3613,-1.3688,-1.4055,-1.4387,-1.4209,-1.3588,-1.3179,-1.2787,-1.2339,-1.1948,-1.179,-1.2271,-1.2271,-1.193,-1.2282,-1.2783,-1.3093,-1.3407,-1.3459,-1.3175,-1.3045,-1.2997,-1.2973,-1.2955,-1.2924,-1.3022,-1.3543,-1.4084,-1.45,-1.4948,-1.539,-1.5408,-1.5388,-1.5345,-1.534,-1.5268,-1.5221,-1.5125,-1.5012,-1.4906,-2.1361,-2.1375,-2.1375,-2.1471,-2.1486,-2.1035,-2.0841,-2.074,-2.0326,-1.9834,-1.9405,-1.9322,-1.9251,-1.8965,-1.8846,-1.8825,-1.8774,-1.8836,-1.895,-1.9139,-1.9064,-1.9116,-1.9191,-1.925,-1.9362,-1.9617,-1.963,-1.9752,-1.9708,-1.9528,-1.929,-1.9216,-1.8947,-1.8749,-1.8656,-1.8594,-1.8372,-1.7849,-1.7678,-1.7534,-1.7151,-1.7094,-1.6984,-1.7043,-1.715,-1.7296,-1.7462,-1.7569,-1.7582,-1.7164,-1.7151,-1.6519,-1.5579,-1.4741,-1.4302,-1.4472,-1.4465,-1.4434,-1.4526,-1.4581,-1.4635,-1.4774,-1.4766,-1.4766,-1.4812,-1.4881,-1.4817,-1.4432,-1.3989,-1.3189,-1.2579,-1.2317,-1.235,-1.2459,-1.2407,-1.2293,-1.2327,-1.2859,-1.3036,-1.3196,-1.2635,-1.2114,-1.1888,-1.1549,-1.1132,-1.0867,-1.1352,-1.1581,-1.1205,-1.1196,-1.1734,-1.2228,-1.2558,-1.2515,-1.2233,-1.1644,-1.1644,-1.1796,-1.187,-1.1895,-1.1963,-1.2382,-1.2931,-1.3914,-1.4437,-1.4791,-1.5053,-1.5014,-1.5058,-1.5271,-1.5381,-1.5314,-1.5212,-1.5131,-1.5022,-2.1229,-2.1229,-2.1375,-2.141,-2.1396,-2.1301,-2.107,-2.0753,-2.063,-2.0323,-1.9901,-1.986,-1.9834,-1.967,-1.9294,-1.8997,-1.8874,-1.8885,-1.8892,-1.8965,-1.8912,-1.8951,-1.908,-1.8979,-1.9026,-1.9213,-1.9339,-1.9487,-1.9632,-1.9671,-1.9562,-1.9642,-1.9541,-1.9338,-1.9076,-1.8989,-1.8778,-1.8176,-1.7858,-1.7581,-1.7397,-1.695,-1.6649,-1.6712,-1.6815,-1.6977,-1.7175,-1.7415,-1.7574,-1.7618,-1.7247,-1.6626,-1.594,-1.5306,-1.4988,-1.4802,-1.4517,-1.4319,-1.4381,-1.4471,-1.4533,-1.4603,-1.4627,-1.4707,-1.4766,-1.4728,-1.4395,-1.3607,-1.2731,-1.195,-1.2464,-1.1755,-1.1793,-1.2093,-1.217,-1.2116,-1.1934,-1.1724,-1.1706,-1.1958,-1.1488,-1.1048,-1.0867,-1.0667,-1.0285,-1.0012,-1.0183,-1.0346,-1.0102,-1.0311,-1.0794,-1.1278,-1.1718,-1.1531,-1.1278,-1.0531,-1.0131,-1.0352,-1.0447,-1.0494,-1.0662,-1.1037,-1.1711,-1.2781,-1.3504,-1.3836,-1.4087,-1.4353,-1.4526,-1.4581,-1.4918,-1.5311,-1.5135,-1.4927,-1.5135,-2.1082,-2.1095,-2.1193,-2.118,-2.118,-2.118,-2.1129,-2.0982,-2.0941,-2.0756,-2.047,-2.0364,-2.023,-1.9998,-1.9778,-1.9503,-1.9377,-1.9376,-1.9404,-1.9402,-1.9244,-1.9115,-1.9148,-1.8906,-1.8841,-1.8889,-1.8927,-1.9078,-1.9325,-1.9457,-1.9508,-1.9581,-1.9617,-1.9546,-1.9441,-1.942,-1.9061,-1.8585,-1.8069,-1.7664,-1.741,-1.6741,-1.6456,-1.6382,-1.649,-1.6659,-1.6799,-1.7002,-1.7264,-1.7389,-1.7266,-1.7024,-1.6557,-1.586,-1.5088,-1.4619,-1.4257,-1.4123,-1.4177,-1.4255,-1.4344,-1.4474,-1.4497,-1.4574,-1.4576,-1.4345,-1.3649,-1.2561,-1.1923,-1.1118,-1.0995,-1.0695,-1.0702,-1.0915,-1.1075,-1.1042,-1.0843,-1.0398,-1.053,-1.0758,-1.0394,-1.0078,-0.9893,-0.9667,-0.9398,-0.9243,-0.9194,-0.9167,-0.9157,-0.9517,-1.0016,-1.0266,-1.0667,-1.0603,-1.0429,-0.9977,-0.9429,-0.9472,-0.9532,-0.9565,-0.9691,-1.0257,-1.0915,-1.1769,-1.2326,-1.2762,-1.3113,-1.336,-1.3597,-1.3862,-1.4165,-1.4433,-1.4671,-1.4803,-1.4896,-2.0997,-2.0997,-2.0997,-2.0997,-2.0997,-2.0997,-2.1033,-2.1131,-2.1166,-2.1008,-2.0805,-2.0737,-2.0552,-2.0274,-2.0158,-2.0064,-2.0025,-1.9943,-1.9945,-1.9878,-1.9475,-1.9321,-1.9207,-1.8908,-1.862,-1.8581,-1.8489,-1.8567,-1.8898,-1.9072,-1.9161,-1.9213,-1.931,-1.9457,-1.9485,-1.9441,-1.9215,-1.8901,-1.8253,-1.7684,-1.6922,-1.6414,-1.6108,-1.5968,-1.6108,-1.6203,-1.6324,-1.6512,-1.6773,-1.696,-1.7085,-1.7164,-1.7017,-1.6192,-1.5134,-1.4212,-1.3941,-1.39,-1.398,-1.405,-1.4185,-1.4326,-1.4404,-1.4445,-1.407,-1.3476,-1.2576,-1.1539,-1.084,-1.0539,-1.0086,-0.9775,-0.9789,-0.984,-0.9863,-0.9735,-0.9839,-0.9709,-0.9601,-0.96,-0.9323,-0.9247,-0.9181,-0.93,-0.9158,-0.914,-0.9099,-0.9022,-0.9011,-0.8994,-0.9307,-0.9357,-0.9543,-0.959,-0.9582,-0.9663,-0.9349,-0.9359,-0.9412,-0.9439,-0.9516,-0.9686,-1.0328,-1.0889,-1.1155,-1.1576,-1.1953,-1.2358,-1.2603,-1.2887,-1.3267,-1.3515,-1.3658,-1.4014,-1.4283,-2.0888,-2.0951,-2.0947,-2.0997,-2.0997,-2.0997,-2.0997,-2.1033,-2.1046,-2.1006,-2.0957,-2.0948,-2.093,-2.0791,-2.0562,-2.0298,-2.0117,-2.0075,-2.013,-2.0106,-1.9597,-1.9336,-1.9169,-1.8583,-1.8442,-1.8347,-1.8161,-1.8187,-1.8344,-1.8616,-1.8745,-1.8707,-1.8912,-1.9093,-1.9176,-1.9228,-1.9221,-1.911,-1.8208,-1.702,-1.595,-1.5625,-1.5507,-1.5477,-1.5536,-1.5667,-1.5853,-1.6034,-1.6227,-1.647,-1.6716,-1.6563,-1.612,-1.6105,-1.5638,-1.4924,-1.428,-1.3774,-1.395,-1.3987,-1.4046,-1.4232,-1.4356,-1.4136,-1.3446,-1.2408,-1.1679,-1.2118,-1.084,-0.9961,-0.9721,-0.9695,-0.9673,-0.9625,-0.9596,-0.9573,-0.956,-0.9287,-0.9159,-0.8835,-0.8697,-0.8695,-0.8687,-0.8867,-0.9015,-0.8998,-0.8987,-0.8869,-0.8807,-0.8767,-0.8779,-0.8891,-0.9005,-0.9068,-0.9149,-0.9177,-0.9243,-0.9245,-0.9311,-0.9339,-0.9385,-0.9438,-0.9497,-0.9984,-1.0206,-1.0592,-1.1157,-1.1488,-1.1635,-1.187,-1.2205,-1.2412,-1.2566,-1.3026,-1.3568,-2.0612,-2.0775,-2.0812,-2.0848,-2.0848,-2.0848,-2.0861,-2.0911,-2.0974,-2.0961,-2.0997,-2.0997,-2.0997,-2.0966,-2.0823,-2.0731,-2.0597,-2.0562,-2.0603,-2.052,-2.0089,-1.974,-1.9486,-1.8976,-1.8616,-1.8043,-1.7882,-1.7666,-1.7787,-1.7908,-1.8121,-1.8333,-1.8411,-1.862,-1.8798,-1.8851,-1.895,-1.865,-1.7853,-1.6698,-1.584,-1.535,-1.5134,-1.5088,-1.5225,-1.5359,-1.5463,-1.5638,-1.5796,-1.5994,-1.613,-1.6173,-1.5973,-1.5826,-1.5503,-1.5457,-1.4792,-1.4408,-1.4297,-1.4042,-1.4012,-1.4087,-1.4172,-1.381,-1.2757,-1.1671,-1.0721,-1.0581,-1.0062,-0.9611,-0.9507,-0.9481,-0.9471,-0.9471,-0.941,-0.9348,-0.926,-0.9004,-0.8764,-0.8394,-0.8038,-0.7923,-0.7902,-0.8096,-0.823,-0.8323,-0.8359,-0.8386,-0.8374,-0.8399,-0.8436,-0.8526,-0.8639,-0.8749,-0.8874,-0.8957,-0.9092,-0.9143,-0.9231,-0.9261,-0.9245,-0.9285,-0.9376,-0.9269,-0.9383,-0.9833,-1.0386,-1.0464,-1.0473,-1.0785,-1.1132,-1.134,-1.159,-1.2261,-1.2651,-2.0334,-2.0599,-2.0586,-2.0549,-2.0599,-2.0662,-2.0725,-2.0775,-2.0838,-2.0875,-2.0898,-2.0898,-2.0898,-2.0947,-2.0983,-2.0904,-2.0944,-2.0997,-2.1046,-2.0979,-2.0624,-2.0084,-1.9476,-1.9008,-1.8369,-1.7651,-1.7393,-1.7227,-1.7089,-1.7131,-1.7406,-1.7855,-1.7882,-1.8082,-1.8347,-1.8358,-1.8316,-1.803,-1.7365,-1.6439,-1.565,-1.5226,-1.4914,-1.485,-1.4935,-1.5088,-1.5134,-1.5225,-1.5344,-1.5521,-1.5536,-1.5665,-1.5814,-1.5918,-1.5998,-1.605,-1.5815,-1.5637,-1.5207,-1.4726,-1.4218,-1.4094,-1.3656,-1.3043,-1.2249,-1.1214,-1.0547,-1.0069,-0.9592,-0.9412,-0.9293,-0.9247,-0.9228,-0.921,-0.9171,-0.9064,-0.8908,-0.8605,-0.8288,-0.7976,-0.7484,-0.6857,-0.6902,-0.718,-0.7386,-0.7591,-0.7712,-0.7832,-0.7918,-0.7984,-0.8113,-0.8206,-0.838,-0.851,-0.862,-0.8738,-0.8897,-0.9067,-0.9168,-0.9231,-0.9245,-0.9277,-0.9359,-0.9167,-0.8947,-0.9259,-0.9942,-0.9619,-0.934,-0.9852,-1.0273,-1.038,-1.0698,-1.1359,-1.1484,-2.0233,-2.0233,-2.0233,-2.0233,-2.0233,-2.041,-2.0511,-2.0562,-2.0662,-2.0699,-2.0699,-2.0762,-2.0812,-2.0875,-2.0875,-2.0924,-2.0997,-2.0997,-2.0983,-2.0846,-2.0447,-1.9907,-1.9317,-1.8645,-1.7895,-1.7144,-1.6888,-1.6765,-1.665,-1.6522,-1.6705,-1.6947,-1.731,-1.7557,-1.776,-1.7787,-1.7544,-1.7287,-1.684,-1.6258,-1.551,-1.5086,-1.4809,-1.449,-1.4451,-1.4525,-1.4606,-1.4886,-1.5145,-1.5332,-1.5422,-1.5531,-1.595,-1.6278,-1.6576,-1.6749,-1.6931,-1.677,-1.6443,-1.5395,-1.4744,-1.4276,-1.3281,-1.1969,-1.152,-1.0292,-0.985,-1.0024,-0.9414,-0.9171,-0.9106,-0.9113,-0.9005,-0.8891,-0.8779,-0.8558,-0.837,-0.8103,-0.7799,-0.7495,-0.6884,-0.6036,-0.56,-0.5795,-0.6256,-0.6476,-0.7127,-0.7271,-0.7474,-0.7575,-0.7779,-0.7923,-0.8131,-0.8277,-0.8377,-0.8555,-0.8801,-0.9011,-0.9136,-0.9218,-0.9286,-0.9332,-0.9305,-0.9296,-0.9156,-0.9296,-0.935,-0.9257,-0.9189,-0.9273,-0.9483,-0.984,-0.9901,-1.0236,-1.0045,-1.9965,-1.9978,-1.9965,-2.0067,-2.0233,-2.0283,-2.0296,-2.0347,-2.0385,-2.0498,-2.0549,-2.0649,-2.0712,-2.0775,-2.0762,-2.0762,-2.0799,-2.0799,-2.0848,-2.0871,-2.0633,-2.014,-1.9494,-1.8741,-1.8118,-1.7226,-1.6735,-1.6448,-1.6362,-1.6188,-1.6231,-1.6479,-1.6723,-1.7018,-1.7173,-1.7325,-1.7126,-1.6901,-1.6626,-1.6125,-1.5839,-1.5341,-1.5092,-1.498,-1.5105,-1.5211,-1.5294,-1.5558,-1.5729,-1.5857,-1.5948,-1.607,-1.6214,-1.6717,-1.6978,-1.7181,-1.7326,-1.7379,-1.7096,-1.5909,-1.4831,-1.32,-1.1781,-1.0394,-1.0082,-0.9173,-0.8846,-0.8906,-0.8918,-0.8592,-0.8773,-0.8773,-0.8721,-0.8579,-0.8345,-0.8078,-0.7701,-0.7373,-0.6748,-0.6212,-0.5564,-0.4821,-0.4523,-0.434,-0.4868,-0.5394,-0.6117,-0.6714,-0.6842,-0.7142,-0.7344,-0.7635,-0.7849,-0.8185,-0.8329,-0.8518,-0.8738,-0.8912,-0.9112,-0.9229,-0.9304,-0.9204,-0.9204,-0.9241,-0.9268,-0.9229,-0.9161,-0.9078,-0.9129,-0.9331,-0.9464,-0.9635,-0.956,-0.9426,-0.9241,-1.9798,-1.9798,-1.9798,-1.9901,-2.0067,-2.0131,-2.0131,-2.0144,-2.0182,-2.0296,-2.0398,-2.0448,-2.0498,-2.0498,-2.0448,-2.0435,-2.0385,-2.0372,-2.0498,-2.0485,-2.0421,-2.0049,-1.9361,-1.863,-1.7836,-1.7053,-1.6527,-1.6144,-1.5969,-1.5969,-1.5957,-1.5957,-1.6076,-1.6411,-1.6782,-1.6993,-1.7034,-1.6793,-1.66,-1.6228,-1.6006,-1.5698,-1.535,-1.5374,-1.5457,-1.5504,-1.5601,-1.5757,-1.6014,-1.6107,-1.6214,-1.6382,-1.6621,-1.6838,-1.6944,-1.7072,-1.7292,-1.7413,-1.6783,-1.5222,-1.3305,-1.0851,-0.8573,-0.7621,-0.7384,-0.704,-0.6518,-0.7239,-0.7465,-0.7761,-0.7905,-0.7962,-0.7953,-0.7747,-0.7649,-0.7372,-0.6793,-0.6344,-0.5529,-0.4813,-0.4274,-0.3903,-0.3466,-0.3325,-0.3926,-0.4485,-0.5131,-0.5651,-0.5859,-0.6282,-0.6898,-0.7229,-0.7605,-0.7959,-0.8319,-0.846,-0.8607,-0.8807,-0.8998,-0.9247,-0.9304,-0.9221,-0.9222,-0.9332,-0.9295,-0.9101,-0.9101,-0.9228,-0.9332,-0.9464,-0.9568,-0.9654,-0.9594,-0.9516,-0.9456,-1.9798,-1.9798,-1.9798,-1.9798,-1.9862,-1.9939,-1.999,-2.0029,-2.0131,-2.0195,-2.0182,-2.0093,-2.0042,-1.999,-1.9914,-1.9862,-1.9862,-1.9811,-1.9862,-1.9926,-1.9862,-1.923,-1.8658,-1.8044,-1.7507,-1.6303,-1.5936,-1.579,-1.557,-1.5614,-1.557,-1.5558,-1.5691,-1.5901,-1.6312,-1.6582,-1.6637,-1.6552,-1.66,-1.6338,-1.6046,-1.5934,-1.572,-1.5581,-1.5647,-1.5788,-1.584,-1.5992,-1.6195,-1.623,-1.6086,-1.611,-1.6251,-1.6639,-1.6763,-1.6689,-1.7515,-1.7267,-1.6006,-1.295,-1.0104,-0.7736,-0.5689,-0.4162,-0.3562,-0.3472,-0.4084,-0.5154,-0.5614,-0.6082,-0.6466,-0.6867,-0.6908,-0.6933,-0.6833,-0.6544,-0.5954,-0.5287,-0.451,-0.3832,-0.352,-0.316,-0.2611,-0.2404,-0.3033,-0.3609,-0.4202,-0.4607,-0.492,-0.5501,-0.6215,-0.6672,-0.7048,-0.7255,-0.7618,-0.8208,-0.8501,-0.8691,-0.894,-0.9199,-0.9368,-0.9385,-0.9411,-0.9464,-0.9403,-0.9255,-0.9358,-0.9464,-0.9497,-0.953,-0.9647,-0.9705,-0.9646,-0.9641,-0.9631,-1.9604,-1.9798,-1.9604,-1.9656,-1.9798,-1.9862,-1.9862,-1.9914,-1.9978,-2.0029,-1.9914,-1.9823,-1.9656,-1.954,-1.9396,-1.9239,-1.9251,-1.9251,-1.9303,-1.9396,-1.9291,-1.9073,-1.8526,-1.7918,-1.727,-1.6495,-1.602,-1.5613,-1.539,-1.5345,-1.5435,-1.548,-1.5424,-1.5647,-1.5913,-1.6132,-1.6219,-1.6306,-1.6423,-1.6409,-1.6288,-1.6262,-1.6241,-1.6027,-1.6163,-1.6271,-1.6271,-1.6434,-1.657,-1.6584,-1.6439,-1.6545,-1.6676,-1.7057,-1.7122,-1.6891,-1.726,-1.5668,-1.2785,-0.9462,-0.6835,-0.4974,-0.3259,-0.1759,-0.1833,-0.1865,-0.2489,-0.3113,-0.3621,-0.4262,-0.5135,-0.5631,-0.5814,-0.5965,-0.5878,-0.5595,-0.5093,-0.4358,-0.3629,-0.3045,-0.2619,-0.2254,-0.1778,-0.1611,-0.2094,-0.2566,-0.3094,-0.3789,-0.4201,-0.4869,-0.5552,-0.6007,-0.6349,-0.651,-0.6821,-0.7419,-0.7795,-0.792,-0.8529,-0.92,-0.935,-0.9313,-0.9464,-0.9438,-0.9448,-0.9457,-0.9448,-0.9465,-0.9514,-0.9578,-0.9662,-0.9793,-0.9862,-0.9888,-0.9912,-1.9356,-1.95,-1.9356,-1.9356,-1.95,-1.9604,-1.972,-1.9798,-1.9875,-1.9772,-1.9552,-1.9396,-1.9186,-1.9016,-1.8815,-1.8667,-1.8679,-1.8679,-1.8667,-1.8815,-1.8721,-1.8536,-1.8223,-1.7909,-1.7237,-1.6598,-1.6052,-1.5623,-1.5372,-1.5165,-1.504,-1.5062,-1.5153,-1.5244,-1.5468,-1.568,-1.5969,-1.6057,-1.6132,-1.6175,-1.6231,-1.6342,-1.6502,-1.6584,-1.6727,-1.6978,-1.7023,-1.7131,-1.7213,-1.7188,-1.7162,-1.7219,-1.7314,-1.737,-1.7334,-1.6955,-1.5609,-1.3738,-1.0404,-0.7311,-0.5014,-0.2968,-0.1037,0.0258,0.0576,0.0889,0.031,-0.0424,-0.1407,-0.2294,-0.3111,-0.3695,-0.4418,-0.4538,-0.4682,-0.4412,-0.4115,-0.3382,-0.2837,-0.2254,-0.1735,-0.1348,-0.1016,-0.1048,-0.1163,-0.1566,-0.1992,-0.2689,-0.3399,-0.4054,-0.4629,-0.5036,-0.5641,-0.5991,-0.6239,-0.6658,-0.6957,-0.7128,-0.7833,-0.8662,-0.8872,-0.8787,-0.9109,-0.943,-0.943,-0.9421,-0.9412,-0.9439,-0.9465,-0.9522,-0.9591,-0.9784,-1.001,-1.0041,-1.0029,-1.8999,-1.8975,-1.8999,-1.8934,-1.8987,-1.9198,-1.95,-1.9708,-1.9617,-1.9396,-1.9133,-1.8839,-1.856,-1.8278,-1.8127,-1.8018,-1.8018,-1.8073,-1.8073,-1.8084,-1.8139,-1.7931,-1.773,-1.7478,-1.6994,-1.6573,-1.602,-1.5534,-1.5415,-1.4967,-1.4616,-1.4512,-1.4651,-1.4789,-1.5051,-1.5244,-1.5674,-1.5879,-1.6161,-1.623,-1.636,-1.6508,-1.6652,-1.6773,-1.6966,-1.7135,-1.7219,-1.7326,-1.7361,-1.7289,-1.717,-1.7207,-1.7267,-1.7327,-1.6898,-1.5924,-1.4292,-1.1911,-0.941,-0.6558,-0.3915,-0.1779,0.1377,0.3115,0.3471,0.2987,0.2452,0.1857,0.1072,0.0277,-0.0503,-0.159,-0.2632,-0.2928,-0.3295,-0.3145,-0.2973,-0.248,-0.1994,-0.1469,-0.0936,-0.0535,-0.0222,-0.0196,-0.0384,-0.067,-0.1057,-0.1451,-0.2168,-0.294,-0.3475,-0.3859,-0.454,-0.5422,-0.5741,-0.5849,-0.5957,-0.6063,-0.6937,-0.7702,-0.7933,-0.842,-0.8996,-0.933,-0.9384,-0.9411,-0.9394,-0.9403,-0.9412,-0.9465,-0.9538,-0.9677,-0.9882,-0.9971,-0.9965,-1.8709,-1.8643,-1.8429,-1.8375,-1.8429,-1.8643,-1.8804,-1.8845,-1.8792,-1.8643,-1.829,-1.8018,-1.7799,-1.7512,-1.7301,-1.7301,-1.729,-1.7346,-1.7523,-1.7523,-1.759,-1.749,-1.7368,-1.717,-1.6765,-1.6331,-1.5842,-1.5432,-1.505,-1.4624,-1.443,-1.443,-1.4373,-1.4466,-1.4558,-1.4708,-1.5384,-1.5939,-1.6303,-1.6492,-1.6598,-1.6764,-1.6822,-1.6879,-1.691,-1.705,-1.71,-1.7015,-1.6886,-1.6427,-1.6524,-1.6524,-1.599,-1.6531,-1.6587,-1.5589,-1.3907,-1.1936,-0.9511,-0.6993,-0.4559,-0.2277,0.0196,0.2006,0.2899,0.3526,0.3644,0.3301,0.2963,0.2158,0.1178,0.0142,-0.0783,-0.1351,-0.1765,-0.197,-0.1818,-0.1695,-0.1213,-0.0703,-0.0162,0.0245,0.0534,0.0444,0.024,0.0088,-0.0174,-0.0521,-0.1019,-0.1799,-0.245,-0.2853,-0.3562,-0.4487,-0.467,-0.4764,-0.4892,-0.5113,-0.6063,-0.6915,-0.7357,-0.7969,-0.8833,-0.9261,-0.9364,-0.9384,-0.9394,-0.9394,-0.9394,-0.9412,-0.9472,-0.9609,-0.9733,-0.9844,-0.9925,-1.8344,-1.817,-1.7995,-1.7831,-1.7776,-1.7941,-1.7941,-1.7886,-1.8255,-1.8213,-1.7854,-1.7579,-1.7245,-1.7078,-1.692,-1.692,-1.6965,-1.6965,-1.7078,-1.7145,-1.7155,-1.7099,-1.7032,-1.6965,-1.6749,-1.6275,-1.5892,-1.5549,-1.5014,-1.4425,-1.415,-1.4046,-1.4093,-1.4208,-1.4298,-1.4544,-1.5012,-1.5593,-1.6095,-1.6553,-1.6749,-1.6885,-1.6825,-1.6831,-1.678,-1.6893,-1.7008,-1.6893,-1.6609,-1.6316,-1.6593,-1.6354,-1.5916,-1.6276,-1.5962,-1.4974,-1.3716,-1.2009,-1.0027,-0.7941,-0.578,-0.3883,-0.1972,-0.0408,0.152,0.2669,0.3531,0.396,0.4017,0.3754,0.2747,0.1793,0.099,0.0229,-0.0252,-0.077,-0.0798,-0.0828,-0.0423,0.0075,0.0546,0.0973,0.1114,0.1005,0.0892,0.0689,0.0488,0.0219,-0.0234,-0.0863,-0.1521,-0.2045,-0.278,-0.3573,-0.3729,-0.4149,-0.46,-0.4969,-0.5507,-0.6269,-0.6759,-0.7551,-0.8439,-0.8992,-0.9356,-0.9384,-0.9403,-0.9394,-0.9403,-0.9412,-0.9421,-0.9516,-0.9632,-0.9749,-0.9856,-1.7931,-1.7645,-1.7612,-1.7423,-1.719,-1.719,-1.7088,-1.692,-1.7788,-1.8007,-1.7689,-1.7312,-1.6965,-1.6751,-1.6705,-1.6751,-1.6807,-1.6807,-1.6807,-1.6807,-1.6874,-1.6874,-1.6807,-1.6751,-1.6698,-1.657,-1.6231,-1.5606,-1.5141,-1.4644,-1.4157,-1.3724,-1.3876,-1.4024,-1.4137,-1.4397,-1.4767,-1.5131,-1.5438,-1.5703,-1.6089,-1.6356,-1.6546,-1.6709,-1.6896,-1.7102,-1.7335,-1.7368,-1.7335,-1.7113,-1.6959,-1.6639,-1.6063,-1.5816,-1.5168,-1.4433,-1.3364,-1.2126,-1.0573,-0.8705,-0.7145,-0.5444,-0.3863,-0.2353,-0.0519,0.1755,0.2887,0.3719,0.3716,0.3837,0.3104,0.2701,0.2094,0.1405,0.0819,0.0403,0.0215,0.015,0.0197,0.0641,0.0994,0.1391,0.1464,0.1351,0.1278,0.1199,0.1027,0.0805,0.0488,-0.0043,-0.0668,-0.1289,-0.2197,-0.3023,-0.3641,-0.4092,-0.4667,-0.508,-0.5471,-0.5122,-0.5259,-0.6514,-0.8068,-0.8707,-0.9319,-0.9375,-0.9403,-0.9403,-0.9403,-0.9403,-0.9403,-0.943,-0.9514,-0.9651,-0.9762,-1.759,-1.7301,-1.6874,-1.6761,-1.692,-1.6864,-1.6976,-1.7078,-1.7088,-1.7032,-1.6761,-1.6648,-1.6602,-1.6534,-1.6534,-1.6591,-1.6637,-1.6637,-1.6694,-1.6751,-1.6751,-1.6694,-1.6684,-1.6637,-1.6591,-1.6398,-1.6019,-1.5571,-1.5112,-1.4811,-1.4686,-1.4635,-1.4522,-1.4417,-1.4109,-1.4355,-1.453,-1.4759,-1.4872,-1.5278,-1.586,-1.6009,-1.6102,-1.6322,-1.6513,-1.6457,-1.656,-1.6446,-1.6059,-1.5695,-1.6067,-1.5624,-1.4781,-1.479,-1.4392,-1.3692,-1.3009,-1.2012,-1.0932,-0.9544,-0.8165,-0.6773,-0.5306,-0.3941,-0.2106,0.0311,0.1934,0.2709,0.3327,0.349,0.3577,0.3366,0.3083,0.2424,0.1861,0.152,0.1221,0.1019,0.0838,0.1117,0.1426,0.1594,0.1689,0.1712,0.1669,0.1545,0.1399,0.1208,0.1078,0.0666,0.0022,-0.0693,-0.1748,-0.2557,-0.3311,-0.4223,-0.489,-0.5326,-0.5714,-0.4983,-0.4125,-0.6348,-0.8633,-0.89,-0.9265,-0.9338,-0.9384,-0.9402,-0.9411,-0.9385,-0.9394,-0.9421,-0.943,-0.9522,-0.9669,-1.7423,-1.6976,-1.642,-1.6269,-1.6363,-1.642,-1.6477,-1.6581,-1.6513,-1.641,-1.6306,-1.6374,-1.6374,-1.6374,-1.6374,-1.642,-1.6534,-1.6534,-1.6534,-1.6591,-1.6591,-1.6591,-1.6524,-1.6467,-1.641,-1.6193,-1.5731,-1.5308,-1.5103,-1.4828,-1.4736,-1.4828,-1.4797,-1.4643,-1.4307,-1.4317,-1.4366,-1.4546,-1.4586,-1.4935,-1.554,-1.5679,-1.5854,-1.6026,-1.5999,-1.5999,-1.6056,-1.5989,-1.581,-1.5432,-1.5636,-1.482,-1.415,-1.3963,-1.3623,-1.3025,-1.2474,-1.1919,-1.0927,-1.0013,-0.9042,-0.7803,-0.6782,-0.5374,-0.4536,-0.2213,-0.0264,0.067,0.227,0.2668,0.3038,0.2982,0.3013,0.2637,0.2405,0.2204,0.1738,0.1335,0.1305,0.1407,0.1661,0.1802,0.1874,0.1816,0.1755,0.1631,0.1508,0.1491,0.1384,0.1258,0.0654,-0.0089,-0.1165,-0.233,-0.3293,-0.4311,-0.5299,-0.5672,-0.6065,-0.6018,-0.5959,-0.7681,-0.9194,-0.9226,-0.9245,-0.9301,-0.9338,-0.9375,-0.9357,-0.9339,-0.9375,-0.9403,-0.9421,-0.9439,-0.954,-1.7211,-1.6648,-1.6144,-1.5914,-1.5914,-1.5914,-1.5914,-1.5961,-1.6009,-1.6056,-1.6124,-1.6259,-1.6327,-1.6374,-1.6374,-1.6374,-1.6363,-1.6363,-1.6363,-1.6374,-1.6374,-1.6316,-1.6316,-1.6327,-1.6202,-1.5985,-1.5664,-1.5487,-1.533,-1.5089,-1.4918,-1.4713,-1.462,-1.4663,-1.457,-1.455,-1.462,-1.4522,-1.4538,-1.4521,-1.4844,-1.5223,-1.5514,-1.5651,-1.572,-1.5778,-1.5826,-1.5816,-1.5816,-1.5565,-1.508,-1.4246,-1.352,-1.3243,-1.2826,-1.2359,-1.1988,-1.1428,-1.0793,-1.0199,-0.9493,-0.8675,-0.785,-0.7092,-0.6173,-0.4728,-0.2763,-0.1264,0.0376,0.1655,0.2017,0.2548,0.2573,0.2711,0.2605,0.2513,0.2,0.1597,0.1648,0.1688,0.1777,0.1905,0.1937,0.1878,0.1799,0.1672,0.1626,0.162,0.1559,0.1424,0.1057,0.032,-0.058,-0.1779,-0.313,-0.4398,-0.5506,-0.6373,-0.68,-0.7151,-0.7649,-0.8588,-0.9157,-0.9209,-0.9253,-0.9265,-0.9303,-0.9348,-0.9321,-0.9321,-0.9385,-0.943,-0.9421,-0.943,-0.943,-1.6581,-1.6087,-1.5972,-1.5914,-1.5914,-1.5914,-1.5914,-1.5914,-1.5904,-1.5914,-1.5972,-1.5972,-1.6087,-1.6374,-1.6374,-1.6374,-1.6316,-1.6249,-1.6181,-1.6181,-1.6087,-1.6029,-1.6029,-1.6087,-1.5972,-1.5843,-1.5716,-1.5736,-1.5481,-1.5499,-1.5575,-1.5449,-1.5535,-1.5329,-1.4909,-1.4899,-1.4779,-1.4668,-1.4651,-1.4685,-1.4792,-1.5032,-1.4917,-1.5032,-1.5147,-1.5147,-1.5137,-1.501,-1.4942,-1.4765,-1.4419,-1.3709,-1.3164,-1.2736,-1.2297,-1.1864,-1.149,-1.1178,-1.0674,-1.0231,-0.9611,-0.9427,-0.8754,-0.8505,-0.7568,-0.6634,-0.499,-0.3984,-0.2327,-0.054,0.0207,0.1157,0.155,0.1881,0.1989,0.1874,0.1546,0.1573,0.1721,0.1677,0.1666,0.1777,0.1828,0.181,0.184,0.175,0.1692,0.1692,0.1659,0.1529,0.1425,0.0638,-0.0161,-0.1583,-0.307,-0.4499,-0.566,-0.6666,-0.746,-0.7647,-0.8039,-0.8697,-0.9106,-0.9126,-0.9187,-0.9216,-0.9265,-0.9339,-0.9367,-0.9376,-0.943,-0.9474,-0.9448,-0.9421,-0.9421]},{"header":{"parameterUnit":"m.s-1","parameterCategory":1,"la1":31.0,"la2":29.5877,"lo1":-88.7671,"lo2":-86.6584,"dy":0.0162,"dx":0.0185,"nx":115,"ny":88,"refTime":"2023-05-05T12:00:00:Z","depth":0,"parameterNumber":3,"parameterNumberName":"V-component_of_WINDS"},"data":[0.0,0.0,0.0,0.0,0.0,0.0,0.0,0.0,0.0,0.0,0.0,0.0,0.0,0.0,0.0,0.0,0.0,0.0,0.0,0.0,0.0,0.0,0.0,0.0,0.0,0.0,0.0,0.0,0.0,0.0,0.0,0.0,0.0,0.0,0.0,0.0,0.0,0.0,0.0,0.0,0.0,0.0,0.0,0.0,0.0,0.0,0.0,0.0,0.0,0.0,0.0,0.0,0.0,0.0,0.0,0.0,0.0,0.0,0.0,0.0,0.0,0.0,0.0,0.0,0.0,0.0,0.0,0.0,0.0,0.0,0.0,0.0,0.0,0.0,0.0,0.0,0.0,0.0,0.0,0.0,0.0,0.0,0.0,0.0,0.0,0.0,0.0,0.0,0.0,0.0,0.0,0.0,0.0,0.0,0.0,0.0,0.0,0.0,0.0,0.0,0.0,0.0,0.0,0.0,0.0,0.0,0.0,0.0,0.0,0.0,0.0,0.0,0.0,0.0,0.0,0.0,0.0,0.0,0.0,0.0,0.0,0.0,0.0,0.0,0.0,0.0,0.0,0.0,0.0,0.0,0.0,0.0,0.0,0.0,0.0,0.0,0.0,0.0,0.0,0.0,0.0,0.0,0.0,0.0,0.0,0.0,0.0,0.0,0.0,0.0,0.0,0.0,0.0,0.0,0.0,0.0,0.0,0.0,0.0,0.0,0.0,0.0,0.0,0.0,0.0,0.0,0.0,0.0,0.0,0.0,0.0,0.0,0.0,0.0,0.0,0.0,0.0,0.0,0.0,0.0,0.0,0.0,0.0,0.0,0.0,0.0,0.0,0.0,0.0,0.0,0.0,0.0,0.0,0.0,0.0,0.0,0.0,0.0,0.0,0.0,0.0,0.0,0.0,0.0,0.0,0.0,0.0,0.0,0.0,0.0,0.0,0.0,0.0,0.0,0.0,0.0,0.0,0.0,0.0,0.0,0.0,0.0,0.0,0.0,0.0,0.0,0.0,0.0,0.0,0.0,0.0,0.0,0.0,0.0,0.0,0.0,0.0,0.0,0.0,0.0,0.0,0.0,0.0,0.0,0.0,0.0,0.0,0.0,0.0,0.0,0.0,0.0,0.0,0.0,0.0,0.0,0.0,0.0,0.0,0.0,0.0,0.0,0.0,0.0,0.0,0.0,0.0,0.0,0.0,0.0,0.0,0.0,0.0,0.0,0.0,0.0,0.0,0.0,0.0,0.0,0.0,0.0,0.0,0.0,0.0,0.0,0.0,0.0,0.0,0.0,0.0,0.0,0.0,0.0,0.0,0.0,0.0,0.0,0.0,0.0,0.0,0.0,0.0,0.0,0.0,0.0,0.0,0.0,0.0,0.0,0.0,0.0,0.0,0.0,0.0,0.0,0.0,0.0,0.0,0.0,0.0,0.0,0.0,0.0,0.0,0.0,0.0,0.0,0.0,0.0,0.0,0.0,0.0,0.0,0.0,0.0,0.0,0.0,0.0,0.0,0.0,0.0,0.0,0.0,0.0,0.0,0.0,0.0,0.0,0.0,0.0,0.0,0.0,0.0,0.0,0.0,0.0,0.0,0.0,0.0,0.0,0.0,0.0,0.0,0.0,0.0,0.0,0.0,0.0,0.0,0.0,0.0,0.0,0.0,0.0,0.0,0.0,0.0,0.0,0.0,0.0,0.0,0.0,0.0,0.0,0.0,0.0,0.0,0.0,0.0,0.0,0.0,0.0,0.0,0.0,0.0,0.0,0.0,0.0,0.0,0.0,0.0,0.0,0.0,0.0,0.0,0.0,0.0,0.0,0.0,0.0,0.0,0.0,0.0,0.0,0.0,0.0,0.0,0.0,0.0,0.0,0.0,0.0,0.0,0.0,0.0,0.0,0.0,0.0,0.0,0.0,0.0,0.0,0.0,0.0,0.0,0.0,0.0,0.0,0.0,0.0,0.0,0.0,0.0,0.0,0.0,0.0,0.0,0.0,0.0,0.0,0.0,0.0,0.0,0.0,0.0,0.0,0.0,0.0,0.0,0.0,0.0,0.0,0.0,0.0,0.0,0.0,0.0,0.0,0.0,0.0,0.0,0.0,0.0,0.0,0.0,0.0,0.0,0.0,0.0,0.0,0.0,0.0,0.0,0.0,0.0,0.0,0.0,0.0,0.0,0.0,0.0,0.0,0.0,0.0,0.0,0.0,0.0,0.0,0.0,0.0,0.0,0.0,0.0,0.0,0.0,0.0,0.0,0.0,0.0,0.0,0.0,0.0,0.0,0.0,0.0,0.0,0.0,0.0,0.0,0.0,0.0,0.0,0.0,0.0,0.0,0.0,0.0,0.0,0.0,0.0,0.0,0.0,0.0,0.0,0.0,0.0,0.0,0.0,0.0,0.0,0.0,0.0,0.0,0.0,0.0,0.0,0.0,0.0,0.0,0.0,0.0,0.0,0.0,0.0,0.0,0.0,0.0,0.0,0.0,0.0,0.0,0.0,0.0,0.0,0.0,0.0,0.0,0.0,0.0,0.0,0.0,0.0,0.0,0.0,0.0,0.0,0.0,0.0,0.0,0.0,0.0,0.0,0.0,0.0,0.0,0.0,0.0,0.0,0.0,0.0,0.0,0.0,0.0,0.0,0.0,0.0,0.0,0.0,0.0,0.0,0.0,0.0,0.0,0.0,0.0,0.0,0.0,0.0,0.0,0.0,0.0,0.0,0.0,0.0,0.0,0.0,0.0,0.0,0.0,0.0,0.0,0.0,0.0,0.0,0.0,0.0,0.0,0.0,0.0,0.0,0.0,0.0,0.0,0.0,0.0,0.0,0.0,0.0,0.0,0.0,0.0,0.0,0.0,0.0,0.0,0.0,0.0,0.0,0.0,0.0,0.0,0.0,0.0,0.0,0.0,0.0,0.0,0.0,0.0,0.0,0.0,0.0,0.0,0.0,0.0,0.0,0.0,0.0,0.0,0.0,0.0,0.0,0.0,0.0,0.0,0.0,0.0,0.0,0.0,0.0,0.0,0.0,0.0,0.0,0.0,0.0,0.0,0.0,0.0,0.0,0.0,0.0,0.0,0.0,0.0,0.0,0.0,0.0,0.0,0.0,0.0,0.0,0.0,0.0,0.0,0.0,0.0,0.0,0.0,0.0,0.0,0.0,0.0,0.0,0.0,0.0,0.0,0.0,0.0,0.0,0.0,0.0,0.0,0.0,0.0,0.0,0.0,0.0,0.0,0.0,0.0,0.0,0.0,0.0,0.0,0.0,0.0,0.0,0.0,0.0,0.0,0.0,0.0,0.0,0.0,0.0,0.0,0.0,0.0,0.0,0.0,0.0,0.0,0.0,0.0,0.0,0.0,0.0,0.0,0.0,0.0,0.0,0.0,0.0,0.0,0.0,0.0,0.0,0.0,0.0,0.0,0.0,0.0,0.0,0.0,0.0,0.0,0.0,0.0,0.0,0.0,0.0,0.0,0.0,0.0,0.0,0.0,0.0,0.0,0.0,0.0,0.0,0.0,0.0,0.0,0.0,0.0,0.0,0.0,0.0,0.0,0.0,0.0,0.0,0.0,0.0,0.0,0.0,0.0,0.0,0.0,0.0,0.0,0.0,0.0,0.0,0.0,0.0,0.0,0.0,0.0,0.0,0.0,0.0,0.0,0.0,0.0,0.0,0.0,0.0,0.0,0.0,0.0,0.0,0.0,0.0,0.0,0.0,0.0,0.0,0.0,0.0,0.0,0.0,0.0,0.0,0.0,0.0,0.0,0.0,0.0,0.0,0.0,0.0,0.0,0.0,0.0,0.0,0.0,0.0,0.0,0.0,0.0,0.0,0.0,0.0,0.0,0.0,0.0,0.0,0.0,0.0,0.0,0.0,0.0,0.0,0.0,0.0,0.0,0.0,0.0,0.0,0.0,0.0,0.0,0.0,0.0,0.0,0.0,0.0,0.0,0.0,0.0,0.0,0.0,0.0,0.0,0.0,0.0,0.0,0.0,0.0,0.0,0.0,0.0,0.0,0.0,0.0,0.0,0.0,0.0,0.0,0.0,0.0,0.0,0.0,0.0,0.0,0.0,0.0,0.0,0.0,0.0,0.0,0.0,0.0,0.0,0.0,0.0,0.0,0.0,0.0,0.0,0.0,0.0,0.0,0.0,0.0,0.0,0.0,0.0,0.0,0.0,0.0,0.0,0.0,0.0,0.0,0.0,0.0,0.0,0.0,0.0,0.0,0.0,0.0,0.0,0.0,0.0,0.0,0.0,0.0,0.0,0.0,0.0,-1.3126,0.0,0.0,0.0,0.0,0.0,0.0,0.0,0.0,0.0,0.0,0.0,0.0,0.0,0.0,0.0,0.0,0.0,0.0,0.0,0.0,0.0,0.0,0.0,0.0,0.0,0.0,0.0,0.0,0.0,0.0,0.0,0.0,0.0,0.0,0.0,0.0,0.0,0.0,0.0,0.0,0.0,0.0,0.0,0.0,0.0,0.0,0.0,0.0,0.0,0.0,0.0,0.0,0.0,0.0,0.0,0.0,0.0,0.0,0.0,0.0,0.0,0.0,0.0,0.0,0.0,0.0,0.0,0.0,0.0,0.0,0.0,0.0,0.0,0.0,0.0,0.0,0.0,0.0,0.0,0.0,0.0,0.0,0.0,0.0,0.0,0.0,0.0,0.0,0.0,0.0,0.0,0.0,0.0,0.0,0.0,0.0,0.0,0.0,0.0,0.0,0.0,0.0,0.0,0.0,0.0,0.0,0.0,0.0,0.0,0.0,-1.164,-1.1998,-1.2396,-1.2793,-1.3119,0.0,0.0,0.0,0.0,0.0,0.0,0.0,0.0,0.0,0.0,0.0,0.0,0.0,0.0,0.0,0.0,0.0,0.0,0.0,0.0,0.0,0.0,0.0,0.0,0.0,0.0,0.0,0.0,0.0,0.0,0.0,0.0,0.0,0.0,0.0,0.0,0.0,0.0,0.0,0.0,0.0,0.0,0.0,0.0,0.0,0.0,0.0,0.0,0.0,0.0,0.0,0.0,0.0,0.0,0.0,0.0,0.0,0.0,0.0,0.0,0.0,0.0,0.0,0.0,0.0,0.0,0.0,0.0,0.0,0.0,0.0,0.0,0.0,0.0,0.0,0.0,0.0,0.0,0.0,0.0,0.0,0.0,0.0,0.0,0.0,0.0,0.0,0.0,0.0,0.0,0.0,0.0,0.0,0.0,0.0,0.0,0.0,0.0,0.0,0.0,0.0,0.0,0.0,0.0,0.0,0.0,0.0,0.0,0.0,0.0,0.0,0.0,-1.2559,-1.3029,-1.3191,0.0,0.0,0.0,0.0,0.0,0.0,0.0,0.0,0.0,0.0,0.0,0.0,0.0,0.0,0.0,0.0,0.0,0.0,0.0,0.0,0.0,0.0,0.0,0.0,0.0,0.0,0.0,0.0,0.0,0.0,0.0,0.0,0.0,0.0,0.0,0.0,0.0,0.0,0.0,0.0,0.0,0.0,0.0,0.0,0.0,0.0,0.0,0.0,0.0,0.0,0.0,0.0,0.0,0.0,0.0,0.0,0.0,0.0,0.0,0.0,0.0,0.0,0.0,0.0,0.0,0.0,0.0,0.0,0.0,0.0,0.0,0.0,0.0,0.0,0.0,0.0,0.0,0.0,0.0,0.0,0.0,0.0,0.0,0.0,0.0,0.0,0.0,0.0,0.0,0.0,0.0,0.0,0.0,0.0,0.0,0.0,0.0,0.0,0.0,0.0,0.0,0.0,0.0,0.0,0.0,0.0,0.0,0.0,0.0,0.0,-1.1145,-1.1797,-1.2394,0.0,-1.3394,0.0,0.0,0.0,0.0,0.0,0.0,0.0,0.0,0.0,0.0,0.0,0.0,0.0,0.0,0.0,0.0,0.0,0.0,0.0,0.0,0.0,0.0,0.0,0.0,0.0,0.0,0.0,0.0,0.0,0.0,0.0,0.0,0.0,0.0,0.0,0.0,0.0,0.0,0.0,0.0,0.0,0.0,0.0,0.0,0.0,0.0,0.0,0.0,0.0,0.0,0.0,0.0,0.0,0.0,0.0,0.0,0.0,0.0,0.0,0.0,0.0,0.0,0.0,0.0,0.0,0.0,0.0,0.0,0.0,0.0,0.0,0.0,0.0,0.0,0.0,0.0,0.0,0.0,0.0,0.0,0.0,0.0,0.0,0.0,0.0,0.0,0.0,0.0,0.0,0.0,0.0,0.0,0.0,0.0,0.0,0.0,0.0,0.0,0.0,0.0,0.0,0.0,0.0,0.0,0.0,0.0,0.0,0.0,0.0,0.0,-1.0713,-1.1461,-1.2327,-1.3151,0.0,0.0,0.0,0.0,0.0,0.0,0.0,0.0,0.0,0.0,0.0,0.0,0.0,0.0,0.0,0.0,0.0,0.0,0.0,0.0,0.0,0.0,0.0,0.0,0.0,0.0,0.0,0.0,0.0,0.0,0.0,0.0,0.0,0.0,0.0,0.0,0.0,0.0,0.0,0.0,0.0,0.0,0.0,0.0,0.0,0.0,0.0,0.0,0.0,0.0,0.0,0.0,0.0,0.0,0.0,0.0,0.0,0.0,0.0,0.0,0.0,0.0,0.0,0.0,0.0,0.0,0.0,0.0,0.0,0.0,0.0,0.0,0.0,0.0,0.0,0.0,0.0,0.0,0.0,0.0,0.0,0.0,0.0,0.0,0.0,0.0,0.0,0.0,0.0,0.0,0.0,0.0,0.0,0.0,0.0,0.0,0.0,0.0,0.0,0.0,0.0,0.0,0.0,0.0,0.0,0.0,0.0,0.0,0.0,0.0,-0.969,-1.0312,-1.1251,-1.2083,-1.2931,-1.3833,0.0,0.0,0.0,0.0,0.0,0.0,0.0,0.0,0.0,0.0,0.0,0.0,0.0,0.0,0.0,0.0,0.0,0.0,0.0,0.0,0.0,0.0,0.0,0.0,0.0,0.0,0.0,0.0,0.0,0.0,0.0,0.0,0.0,0.0,0.0,0.0,0.0,0.0,0.0,0.0,0.0,0.0,0.0,0.0,0.0,0.0,0.0,0.0,0.0,0.0,0.0,0.0,0.0,0.0,0.0,0.0,0.0,0.0,0.0,0.0,0.0,0.0,0.0,0.0,0.0,0.0,0.0,0.0,0.0,0.0,0.0,0.0,0.0,0.0,0.0,0.0,0.0,0.0,0.0,0.0,0.0,0.0,0.0,0.0,0.0,0.0,0.0,0.0,0.0,0.0,0.0,0.0,0.0,0.0,0.0,0.0,0.0,0.0,0.0,0.0,0.0,0.0,0.0,0.0,0.0,0.0,0.0,0.0,-0.8919,-0.9368,-1.0129,-1.1132,-1.166,-1.2222,0.0,0.0,0.0,0.0,0.0,0.0,0.0,0.0,0.0,0.0,0.0,0.0,0.0,0.0,0.0,0.0,0.0,0.0,0.0,0.0,0.0,0.0,0.0,0.0,0.0,0.0,0.0,0.0,0.0,0.0,0.0,0.0,0.0,0.0,0.0,0.0,0.0,0.0,0.0,0.0,0.0,0.0,0.0,0.0,0.0,0.0,0.0,0.0,0.0,0.0,0.0,0.0,0.0,0.0,0.0,0.0,0.0,0.0,0.0,0.0,0.0,0.0,0.0,0.0,0.0,0.0,0.0,0.0,0.0,0.0,0.0,0.0,0.0,0.0,0.0,0.0,0.0,0.0,0.0,0.0,0.0,0.0,0.0,0.0,0.0,0.0,0.0,0.0,0.0,0.0,0.0,0.0,0.0,0.0,0.0,0.0,0.0,0.0,0.0,0.0,0.0,0.0,0.0,0.0,0.0,0.0,0.0,0.0,0.0,-0.8574,-0.9349,-0.9788,-0.9935,-1.1012,-1.1963,0.0,0.0,0.0,0.0,0.0,0.0,0.0,0.0,0.0,0.0,0.0,0.0,0.0,0.0,0.0,0.0,0.0,0.0,0.0,0.0,0.0,0.0,0.0,0.0,0.0,0.0,0.0,0.0,0.0,0.0,0.0,0.0,0.0,0.0,0.0,0.0,0.0,0.0,0.0,0.0,0.0,0.0,0.0,0.0,0.0,0.0,0.0,0.0,0.0,0.0,0.0,0.0,0.0,0.0,0.0,0.0,0.0,0.0,0.0,0.0,0.0,0.0,0.0,0.0,0.0,0.0,0.0,0.0,0.0,0.0,0.0,0.0,0.0,0.0,0.0,0.0,0.0,0.0,0.0,0.0,0.0,0.0,0.0,0.0,0.0,0.0,0.0,0.0,0.0,0.0,0.0,0.0,0.0,0.0,0.0,0.0,0.0,0.0,0.0,0.0,0.0,0.0,0.0,0.0,0.0,0.0,0.0,0.0,0.0,-0.8259,0.0,-0.8906,-0.9131,-1.0371,-1.1444,0.0,0.0,0.0,0.0,0.0,0.0,0.0,0.0,0.0,0.0,0.0,0.0,0.0,0.0,0.0,0.0,0.0,0.0,0.0,0.0,0.0,0.0,0.0,0.0,0.0,0.0,0.0,0.0,0.0,0.0,0.0,0.0,0.0,0.0,0.0,0.0,0.0,0.0,0.0,0.0,0.0,0.0,0.0,0.0,0.0,0.0,0.0,0.0,0.0,0.0,0.0,0.0,0.0,0.0,0.0,0.0,0.0,0.0,0.0,0.0,0.0,0.0,0.0,0.0,0.0,0.0,0.0,0.0,0.0,0.0,0.0,0.0,0.0,0.0,0.0,0.0,0.0,0.0,0.0,0.0,0.0,0.0,0.0,0.0,0.0,0.0,0.0,0.0,0.0,0.0,0.0,0.0,0.0,0.0,0.0,0.0,0.0,0.0,0.0,0.0,0.0,0.0,0.0,0.0,0.0,0.0,0.0,0.0,-0.7493,-0.8024,-0.7311,-0.7552,-0.8874,-0.9779,-1.0507,0.0,0.0,0.0,0.0,0.0,0.0,0.0,0.0,0.0,0.0,0.0,0.0,0.0,0.0,0.0,0.0,0.0,0.0,0.0,0.0,0.0,0.0,0.0,0.0,0.0,0.0,0.0,0.0,0.0,0.0,0.0,0.0,0.0,0.0,0.0,0.0,0.0,0.0,0.0,0.0,0.0,0.0,0.0,0.0,0.0,0.0,0.0,0.0,0.0,0.0,0.0,0.0,0.0,0.0,0.0,0.0,0.0,0.0,0.0,0.0,0.0,0.0,0.0,0.0,0.0,0.0,0.0,0.0,0.0,0.0,0.0,0.0,0.0,0.0,0.0,0.0,0.0,0.0,0.0,0.0,0.0,0.0,0.0,0.0,0.0,0.0,0.0,0.0,0.0,0.0,0.0,0.0,0.0,0.0,0.0,0.0,0.0,0.0,0.0,0.0,0.0,0.0,0.0,0.0,0.0,0.0,0.0,0.0,0.0,-0.7481,-0.7484,-0.7701,-0.8332,-0.9611,-1.0364,0.0,0.0,0.0,0.0,0.0,0.0,0.0,0.0,0.0,0.0,0.0,0.0,0.0,0.0,0.0,0.0,0.0,0.0,0.0,0.0,0.0,0.0,0.0,0.0,0.0,0.0,0.0,0.0,0.0,0.0,0.0,0.0,0.0,0.0,0.0,0.0,0.0,0.0,0.0,0.0,0.0,0.0,0.0,0.0,0.0,0.0,0.0,0.0,0.0,0.0,0.0,0.0,0.0,0.0,0.0,0.0,0.0,0.0,0.0,0.0,0.0,0.0,0.0,0.0,0.0,0.0,0.0,0.0,0.0,0.0,0.0,0.0,0.0,0.0,0.0,0.0,0.0,0.0,0.0,0.0,0.0,0.0,0.0,0.0,0.0,0.0,0.0,0.0,0.0,0.0,0.0,0.0,0.0,0.0,0.0,0.0,0.0,0.0,0.0,0.0,0.0,0.0,0.0,0.0,0.0,0.0,0.0,0.0,0.0,-0.6777,-0.7038,-0.7402,-0.8004,-0.9252,-1.0108,-1.0389,0.0,0.0,0.0,0.0,0.0,0.0,0.0,0.0,0.0,0.0,0.0,0.0,0.0,0.0,0.0,0.0,0.0,0.0,0.0,0.0,0.0,0.0,0.0,0.0,0.0,0.0,0.0,0.0,0.0,0.0,0.0,0.0,0.0,0.0,0.0,0.0,0.0,0.0,0.0,0.0,0.0,0.0,0.0,0.0,0.0,0.0,0.0,0.0,0.0,0.0,0.0,0.0,0.0,0.0,0.0,0.0,0.0,0.0,0.0,0.0,0.0,0.0,0.0,0.0,0.0,0.0,0.0,0.0,0.0,0.0,0.0,0.0,0.0,0.0,0.0,0.0,0.0,0.0,0.0,0.0,0.0,0.0,0.0,0.0,0.0,0.0,0.0,0.0,0.0,0.0,0.0,0.0,0.0,0.0,0.0,0.0,0.0,0.0,0.0,0.0,0.0,0.0,0.0,0.0,0.0,0.0,0.0,0.0,-0.6098,-0.6134,-0.6672,-0.7767,-0.8895,-0.9694,0.0,0.0,0.0,0.0,0.0,0.0,0.0,0.0,0.0,0.0,0.0,0.0,0.0,0.0,0.0,0.0,0.0,0.0,0.0,0.0,0.0,0.0,0.0,0.0,0.0,0.0,0.0,0.0,0.0,0.0,0.0,0.0,0.0,0.0,0.0,0.0,0.0,0.0,0.0,0.0,0.0,0.0,0.0,0.0,0.0,0.0,0.0,0.0,0.0,0.0,0.0,0.0,0.0,0.0,0.0,0.0,0.0,0.0,0.0,0.0,0.0,0.0,0.0,0.0,0.0,0.0,0.0,0.0,0.0,0.0,0.0,0.0,0.0,0.0,0.0,0.0,0.0,0.0,0.0,0.0,0.0,0.0,0.0,0.0,0.0,0.0,0.0,0.0,0.0,0.0,0.0,0.0,0.0,0.0,0.0,0.0,0.0,0.0,0.0,0.0,0.0,0.0,0.0,0.0,0.0,0.0,0.0,0.0,0.0,-0.5522,-0.6147,-0.6867,-0.7741,-0.9011,-0.9789,0.0,0.0,0.0,0.0,0.0,0.0,0.0,0.0,0.0,0.0,0.0,0.0,0.0,0.0,0.0,0.0,0.0,0.0,0.0,0.0,0.0,0.0,0.0,0.0,0.0,0.0,0.0,0.0,0.0,0.0,0.0,0.0,0.0,0.0,0.0,0.0,0.0,0.0,0.0,0.0,0.0,0.0,0.0,0.0,0.0,0.0,0.0,0.0,0.0,0.0,0.0,0.0,0.0,0.0,0.0,0.0,0.0,0.0,0.0,0.0,0.0,0.0,0.0,0.0,0.0,0.0,0.0,0.0,0.0,0.0,0.0,0.0,0.0,0.0,0.0,0.0,0.0,0.0,0.0,0.0,0.0,0.0,0.0,0.0,0.0,0.0,0.0,0.0,0.0,0.0,0.0,0.0,0.0,0.0,0.0,0.0,0.0,0.0,0.0,0.0,0.0,0.0,0.0,0.0,0.0,0.0,0.0,0.0,-0.4415,-0.4912,-0.5845,-0.6622,-0.724,-0.8727,-0.9718,0.0,0.0,0.0,0.0,0.0,0.0,0.0,0.0,0.0,0.0,0.0,0.0,0.0,0.0,0.0,0.0,0.0,0.0,0.0,0.0,0.0,0.0,0.0,0.0,0.0,0.0,0.0,0.0,0.0,0.0,0.0,0.0,0.0,0.0,0.0,0.0,0.0,0.0,0.0,0.0,0.0,0.0,0.0,0.0,0.0,0.0,0.0,0.0,0.0,0.0,0.0,0.0,0.0,0.0,0.0,0.0,0.0,0.0,0.0,0.0,0.0,0.0,0.0,0.0,0.0,0.0,0.0,0.0,0.0,0.0,0.0,0.0,0.0,0.0,0.0,0.0,0.0,0.0,0.0,0.0,0.0,0.0,0.0,0.0,0.0,0.0,0.0,0.0,0.0,0.0,0.0,0.0,0.0,0.0,0.0,0.0,0.0,0.0,0.0,0.0,0.0,0.0,0.0,0.0,0.0,0.0,0.0,0.0,-0.427,-0.4418,-0.5405,-0.6132,-0.6664,-0.8228,-0.9465,0.0,0.0,0.0,0.0,0.0,0.0,0.0,0.0,0.0,0.0,0.0,0.0,0.0,0.0,0.0,0.0,0.0,0.0,0.0,0.0,0.0,0.0,0.0,0.0,0.0,0.0,0.0,0.0,0.0,0.0,0.0,0.0,0.0,0.0,0.0,0.0,0.0,0.0,0.0,0.0,0.0,0.0,0.0,0.0,0.0,0.0,0.0,0.0,0.0,0.0,0.0,0.0,0.0,0.0,0.0,0.0,0.0,0.0,0.0,0.0,0.0,0.0,0.0,0.0,0.0,0.0,0.0,0.0,0.0,0.0,0.0,0.0,0.0,0.0,0.0,0.0,0.0,0.0,0.0,0.0,0.0,0.0,0.0,0.0,0.0,0.0,0.0,0.0,0.0,0.0,0.0,0.0,0.0,0.0,0.0,0.0,0.0,0.0,0.0,0.0,0.0,0.0,0.0,0.0,0.0,0.0,0.0,0.0,-0.4368,-0.4638,-0.5491,-0.6236,-0.6839,-0.8059,-0.9093,0.0,0.0,0.0,0.0,0.0,0.0,0.0,0.0,0.0,0.0,0.0,0.0,0.0,0.0,0.0,0.0,0.0,0.0,0.0,0.0,0.0,0.0,0.0,0.0,0.0,0.0,0.0,0.0,0.0,0.0,0.0,0.0,0.0,0.0,0.0,0.0,0.0,0.0,0.0,0.0,0.0,0.0,0.0,0.0,0.0,0.0,0.0,0.0,-1.7775,0.0,0.0,0.0,0.0,0.0,0.0,0.0,0.0,0.0,0.0,0.0,0.0,0.0,0.0,0.0,0.0,0.0,0.0,0.0,0.0,0.0,0.0,0.0,0.0,0.0,0.0,0.0,0.0,0.0,0.0,0.0,0.0,0.0,0.0,0.0,0.0,0.0,0.0,0.0,0.0,0.0,0.0,0.0,0.0,0.0,0.0,0.0,0.0,0.0,0.0,0.0,0.0,0.0,0.0,0.0,0.0,0.0,0.0,0.0,-0.4249,-0.447,-0.5391,-0.615,-0.6686,-0.7706,-0.8771,0.0,0.0,0.0,0.0,0.0,0.0,0.0,0.0,0.0,0.0,0.0,0.0,0.0,0.0,0.0,0.0,0.0,0.0,0.0,0.0,0.0,0.0,0.0,0.0,0.0,0.0,0.0,0.0,0.0,0.0,0.0,0.0,0.0,0.0,0.0,0.0,0.0,0.0,0.0,0.0,0.0,0.0,0.0,0.0,0.0,0.0,0.0,0.0,0.0,0.0,0.0,0.0,0.0,0.0,0.0,0.0,0.0,0.0,0.0,0.0,0.0,0.0,0.0,0.0,0.0,0.0,0.0,0.0,0.0,0.0,0.0,0.0,0.0,0.0,0.0,0.0,0.0,0.0,0.0,0.0,0.0,0.0,0.0,0.0,0.0,0.0,0.0,0.0,0.0,0.0,0.0,0.0,0.0,0.0,0.0,0.0,0.0,0.0,0.0,0.0,0.0,0.0,0.0,0.0,0.0,0.0,0.0,-0.3858,-0.4021,-0.4249,-0.5175,-0.5932,-0.6416,-0.7331,-0.8501,-0.9865,0.0,0.0,0.0,0.0,0.0,0.0,0.0,0.0,0.0,0.0,0.0,0.0,0.0,0.0,0.0,0.0,0.0,0.0,0.0,0.0,0.0,0.0,0.0,0.0,0.0,0.0,0.0,0.0,0.0,0.0,0.0,0.0,0.0,0.0,0.0,0.0,0.0,0.0,-1.3315,-1.3507,0.0,0.0,0.0,0.0,0.0,0.0,0.0,0.0,-1.7448,0.0,0.0,0.0,0.0,0.0,0.0,0.0,0.0,0.0,0.0,0.0,0.0,0.0,0.0,0.0,0.0,0.0,0.0,0.0,0.0,0.0,0.0,0.0,0.0,0.0,0.0,0.0,0.0,0.0,0.0,0.0,0.0,0.0,0.0,0.0,0.0,0.0,0.0,0.0,0.0,0.0,0.0,0.0,0.0,0.0,0.0,0.0,0.0,0.0,0.0,0.0,0.0,0.0,0.0,0.0,0.0,-0.3585,-0.3744,-0.3965,-0.4193,-0.4956,-0.5714,-0.6411,-0.7128,-0.8203,-0.9406,0.0,0.0,0.0,0.0,0.0,0.0,0.0,0.0,0.0,0.0,0.0,0.0,0.0,0.0,0.0,0.0,0.0,0.0,0.0,0.0,0.0,0.0,0.0,0.0,0.0,0.0,0.0,0.0,0.0,0.0,0.0,0.0,0.0,0.0,0.0,0.0,0.0,0.0,0.0,-1.233,-1.2318,0.0,0.0,0.0,0.0,0.0,0.0,0.0,0.0,-1.5421,0.0,0.0,0.0,0.0,0.0,0.0,0.0,0.0,0.0,0.0,0.0,0.0,0.0,0.0,0.0,0.0,0.0,0.0,0.0,0.0,0.0,0.0,0.0,0.0,0.0,0.0,0.0,0.0,0.0,0.0,0.0,0.0,0.0,0.0,0.0,0.0,0.0,0.0,0.0,0.0,0.0,0.0,0.0,0.0,0.0,0.0,0.0,0.0,0.0,0.0,0.0,0.0,0.0,0.0,0.0,-0.3244,-0.3524,-0.3855,-0.4079,-0.4842,-0.5492,-0.6095,-0.7015,-0.7978,0.0,0.0,0.0,0.0,0.0,0.0,0.0,0.0,0.0,0.0,0.0,0.0,0.0,0.0,0.0,0.0,0.0,0.0,0.0,0.0,0.0,0.0,0.0,0.0,0.0,0.0,0.0,0.0,0.0,0.0,0.0,0.0,0.0,0.0,0.0,0.0,0.0,0.0,0.0,0.0,-1.1764,-1.1623,-1.1457,0.0,0.0,0.0,0.0,0.0,0.0,-1.4764,-1.4964,0.0,0.0,0.0,0.0,0.0,0.0,0.0,0.0,0.0,0.0,0.0,0.0,0.0,0.0,0.0,0.0,0.0,0.0,0.0,0.0,0.0,0.0,0.0,0.0,0.0,0.0,0.0,0.0,0.0,0.0,0.0,0.0,0.0,0.0,0.0,0.0,0.0,0.0,0.0,0.0,0.0,0.0,0.0,0.0,0.0,0.0,0.0,0.0,0.0,0.0,0.0,0.0,0.0,0.0,0.0,-0.2852,-0.3246,-0.3633,-0.4021,-0.4732,-0.5332,-0.5882,-0.6902,-0.7865,0.0,0.0,0.0,0.0,0.0,0.0,0.0,0.0,0.0,0.0,0.0,0.0,0.0,0.0,0.0,0.0,0.0,0.0,0.0,0.0,0.0,0.0,0.0,0.0,0.0,0.0,0.0,0.0,0.0,0.0,0.0,0.0,0.0,0.0,0.0,0.0,0.0,0.0,0.0,0.0,0.0,-1.0819,-1.0552,-1.0743,0.0,0.0,0.0,0.0,-1.3511,-1.3937,0.0,0.0,0.0,0.0,0.0,0.0,0.0,0.0,0.0,0.0,0.0,0.0,0.0,0.0,0.0,0.0,0.0,0.0,0.0,0.0,0.0,0.0,0.0,0.0,0.0,0.0,0.0,0.0,0.0,0.0,0.0,0.0,0.0,0.0,0.0,0.0,0.0,0.0,0.0,0.0,0.0,0.0,0.0,0.0,0.0,0.0,0.0,0.0,0.0,0.0,0.0,0.0,0.0,0.0,0.0,0.0,-0.2689,-0.2794,-0.3239,-0.4122,-0.4791,-0.5449,-0.6154,-0.6907,-0.7818,0.0,0.0,0.0,0.0,0.0,0.0,0.0,0.0,0.0,0.0,0.0,0.0,0.0,0.0,0.0,0.0,0.0,0.0,0.0,0.0,0.0,0.0,0.0,0.0,0.0,0.0,0.0,0.0,0.0,0.0,0.0,0.0,0.0,0.0,0.0,0.0,0.0,0.0,0.0,0.0,0.0,-0.9332,-0.9439,-1.0218,-1.0855,0.0,0.0,-1.153,-1.1906,-1.1584,0.0,0.0,0.0,0.0,0.0,0.0,0.0,0.0,0.0,0.0,0.0,0.0,0.0,0.0,0.0,0.0,0.0,0.0,0.0,0.0,0.0,0.0,0.0,0.0,0.0,0.0,0.0,0.0,0.0,0.0,0.0,0.0,0.0,0.0,0.0,0.0,0.0,0.0,0.0,0.0,0.0,0.0,0.0,0.0,0.0,0.0,0.0,0.0,0.0,0.0,0.0,0.0,0.0,0.0,0.0,-0.1177,-0.2184,-0.2519,-0.313,-0.3959,-0.446,-0.512,-0.5837,-0.6642,-0.7551,0.0,0.0,0.0,0.0,0.0,0.0,0.0,0.0,0.0,0.0,0.0,0.0,0.0,0.0,0.0,0.0,0.0,0.0,0.0,0.0,0.0,0.0,0.0,0.0,0.0,0.0,0.0,0.0,0.0,0.0,0.0,0.0,0.0,0.0,0.0,0.0,0.0,0.0,0.0,0.0,0.0,0.0,-0.8463,-0.8997,0.0,0.0,0.0,-1.0368,-1.0736,0.0,0.0,0.0,0.0,0.0,0.0,0.0,0.0,0.0,0.0,0.0,0.0,0.0,0.0,0.0,0.0,0.0,0.0,0.0,0.0,0.0,0.0,0.0,0.0,0.0,0.0,0.0,0.0,0.0,0.0,0.0,0.0,0.0,0.0,0.0,0.0,0.0,0.0,0.0,0.0,0.0,0.0,0.0,0.0,0.0,0.0,0.0,0.0,0.0,0.0,0.0,0.0,0.0,0.0,0.0,0.0,0.0,-0.1734,-0.2184,-0.291,-0.3799,-0.4294,-0.4901,-0.5677,-0.6426,0.0,0.0,0.0,0.0,0.0,0.0,0.0,0.0,0.0,0.0,0.0,0.0,0.0,0.0,0.0,0.0,0.0,0.0,0.0,0.0,0.0,0.0,0.0,0.0,0.0,0.0,0.0,-1.2076,0.0,0.0,0.0,0.0,0.0,0.0,0.0,0.0,0.0,0.0,0.0,0.0,0.0,0.0,-0.8344,-0.751,-0.7807,-0.8258,0.0,0.0,-0.9502,-0.9963,-1.0222,-1.0489,0.0,0.0,0.0,0.0,0.0,0.0,0.0,0.0,0.0,0.0,0.0,0.0,0.0,0.0,0.0,0.0,0.0,0.0,0.0,0.0,0.0,0.0,0.0,0.0,0.0,0.0,0.0,0.0,0.0,0.0,0.0,0.0,0.0,0.0,0.0,0.0,0.0,0.0,0.0,0.0,0.0,0.0,0.0,0.0,0.0,0.0,0.0,0.0,0.0,0.0,0.0,0.0,0.0,0.0,0.0112,-0.151,-0.1623,-0.2402,-0.391,-0.4298,-0.4959,-0.5946,-0.6273,-0.6966,0.0,0.0,0.0,0.0,0.0,0.0,0.0,0.0,0.0,0.0,0.0,0.0,0.0,0.0,0.0,0.0,0.0,0.0,0.0,0.0,0.0,0.0,0.0,0.0,0.0,0.0,0.0,0.0,0.0,0.0,0.0,0.0,0.0,0.0,0.0,0.0,0.0,0.0,0.0,0.0,0.0,-0.7005,-0.6647,-0.6852,-0.7454,0.0,-0.8783,-0.9179,-0.9835,-0.9929,-1.0173,-1.0889,0.0,0.0,0.0,0.0,0.0,0.0,0.0,0.0,0.0,0.0,0.0,0.0,0.0,0.0,0.0,0.0,0.0,0.0,0.0,0.0,0.0,0.0,0.0,0.0,0.0,0.0,0.0,0.0,0.0,0.0,0.0,0.0,0.0,0.0,0.0,0.0,0.0,0.0,0.0,0.0,0.0,0.0,0.0,0.0,0.0,0.0,0.0,0.0,0.0,0.0,0.0,0.0,0.0,0.0393,-0.0728,-0.1398,-0.2237,-0.3294,-0.4073,-0.4794,-0.5458,-0.5891,-0.6593,0.0,0.0,0.0,0.0,0.0,0.0,0.0,0.0,0.0,0.0,0.0,0.0,0.0,0.0,0.0,0.0,0.0,0.0,0.0,0.0,0.0,0.0,0.0,0.0,0.0,0.0,0.0,0.0,-1.0592,-1.0506,-1.0368,0.0,0.0,0.0,0.0,0.0,0.0,0.0,0.0,0.0,0.0,-0.6392,-0.6062,-0.6568,0.0,0.0,-0.8336,-0.8958,-0.9139,-0.9511,-0.9809,-0.9921,-1.0314,0.0,0.0,0.0,0.0,0.0,0.0,0.0,0.0,0.0,0.0,0.0,0.0,0.0,0.0,0.0,0.0,0.0,0.0,0.0,0.0,0.0,0.0,0.0,0.0,0.0,0.0,0.0,0.0,0.0,0.0,0.0,0.0,0.0,0.0,0.0,0.0,0.0,0.0,0.0,0.0,0.0,0.0,0.0,0.0,0.0,0.0,0.0,0.0,0.0,0.0,0.0,0.0,0.0617,-0.0168,-0.1008,-0.1845,-0.285,-0.3685,-0.4405,-0.5069,-0.5559,-0.6154,0.0,0.0,0.0,0.0,0.0,0.0,0.0,0.0,0.0,0.0,0.0,0.0,0.0,0.0,0.0,0.0,0.0,0.0,0.0,0.0,0.0,0.0,0.0,0.0,0.0,0.0,0.0,0.0,-0.9725,-0.9725,-0.9636,0.0,0.0,0.0,0.0,0.0,0.0,0.0,0.0,0.0,0.0,-0.5793,-0.5501,-0.6062,-0.671,-0.7255,-0.8114,-0.8837,-0.9195,-0.9621,-0.9917,-0.9887,0.0,0.0,0.0,0.0,0.0,0.0,0.0,0.0,0.0,0.0,0.0,0.0,0.0,0.0,0.0,0.0,0.0,0.0,0.0,0.0,0.0,0.0,0.0,0.0,0.0,0.0,0.0,0.5957,0.0,0.0,0.5967,0.0,0.0,0.0,0.0,0.0,0.0,0.0,0.0,0.0,0.0,0.0,0.0,0.0,0.0,0.0,0.0,0.0,0.0,0.0,0.0,0.0,0.0,0.0785,-0.0168,-0.0393,-0.1231,-0.2794,-0.3074,-0.3738,-0.5014,-0.523,-0.5655,-0.6411,0.0,0.0,0.0,0.0,0.0,0.0,0.0,0.0,0.0,0.0,0.0,0.0,0.0,0.0,0.0,0.0,0.0,0.0,0.0,0.0,0.0,0.0,0.0,0.0,0.0,0.0,-0.8679,-0.8778,-0.8935,0.0,0.0,0.0,0.0,0.0,0.0,0.0,0.0,0.0,-0.4888,-0.5096,-0.5226,-0.4888,-0.5328,-0.6267,-0.7756,-0.8238,-0.8877,-1.0186,-1.0429,-1.0646,0.0,0.0,0.0,0.0,0.0,0.0,0.0,0.0,0.0,0.0,0.0,0.0,0.0,0.0,0.0,0.0,0.0,0.0,0.0,0.0,0.0,0.0,0.0,0.0,0.0,0.0,0.0,0.6538,0.6608,0.0,0.0,0.0,0.0,0.0,0.0,0.0,0.0,0.0,0.0,0.0,0.5786,0.5677,0.0,0.0,0.0,0.0,0.0,0.0,0.0,0.0,0.0,0.0,0.0,0.0,0.0954,0.0224,-0.0168,-0.0952,-0.2125,-0.2794,-0.3522,-0.4353,-0.4787,-0.5441,-0.6258,0.0,0.0,0.0,0.0,0.0,0.0,0.0,0.0,0.0,0.0,0.0,0.0,0.0,0.0,0.0,0.0,0.0,0.0,0.0,0.0,0.0,0.0,0.0,0.0,0.0,-0.8103,0.0,0.0,0.0,0.0,0.0,0.0,0.0,0.0,0.0,0.0,-0.5365,-0.4932,-0.4801,-0.4836,-0.4792,-0.4661,-0.5188,-0.581,0.0,0.0,0.0,0.0,0.0,0.0,0.0,0.0,0.0,0.0,0.0,0.0,0.0,0.0,-1.1812,-1.291,-1.3364,-1.4004,-1.5497,0.0,0.0,0.0,0.0,0.0,0.0,0.0,0.0,0.0,0.0,0.0,0.0,0.0,0.0,0.682,0.6933,0.7031,0.0,0.0,0.0,0.0,0.0,0.0,0.0,0.0,0.681,0.6598,0.6173,0.5955,0.5681,0.5348,0.5128,0.4632,0.0,0.0,0.0,0.0,0.0,0.0,0.0,0.0,0.101,0.0561,0.0056,-0.0669,-0.1595,-0.2334,-0.3056,-0.379,-0.4436,-0.5139,-0.5944,-0.6108,-0.6399,0.0,0.0,0.0,0.0,0.0,0.0,0.0,0.0,0.0,0.0,0.0,0.0,0.0,0.0,0.0,0.0,0.0,0.0,0.0,0.0,0.0,0.0,0.0,-0.73,0.0,0.0,0.0,0.0,0.0,0.0,0.0,0.0,0.0,-0.5826,-0.5103,-0.4626,-0.4626,-0.4578,-0.4487,-0.4487,0.0,0.0,0.0,0.0,0.0,0.0,0.0,-0.9962,-0.9728,-1.0217,-1.0623,-1.0578,-1.0487,-1.047,-1.054,0.0,0.0,-1.1894,-1.2245,-1.2811,-1.4529,-1.4672,-1.475,-1.566,-1.6069,-1.6183,0.0,0.0,0.0,0.0,0.6933,0.0,0.0,0.0,0.6874,0.6933,0.0,0.7036,0.0,0.0,0.0,0.0,0.7139,0.7408,0.0,0.0,0.6977,0.682,0.6232,0.6059,0.595,0.5791,0.5677,0.5293,0.4688,0.4242,0.0,0.0,0.0,0.0,0.0,0.0,0.1064,0.0895,0.0447,-0.0275,-0.1278,-0.1753,-0.2468,-0.35,-0.4233,-0.4863,-0.5436,-0.5603,-0.578,-0.6083,-0.6353,0.0,0.0,0.0,0.0,0.0,0.0,0.0,0.0,0.0,0.0,0.0,0.0,0.0,0.0,0.0,0.0,0.0,0.0,0.0,0.0,-0.6485,0.0,0.0,0.0,0.0,0.0,0.0,0.0,0.0,0.0,-0.6397,-0.5442,-0.4758,-0.4324,-0.432,0.0,0.0,0.0,0.0,-0.5272,-0.605,-0.6554,-0.7289,-0.8382,-0.9041,-0.9614,-1.01,0.0,0.0,-1.1134,-1.0392,-1.0101,-1.1204,-1.0281,-0.9734,-1.1145,-1.1531,-1.2151,-1.3661,-1.3507,-1.3341,-1.4138,-1.4689,-1.4891,0.819,0.0,0.0,0.0,0.0,0.7456,0.7295,0.6972,0.7133,0.709,0.6879,0.7036,0.0,0.0,0.0,0.0,0.0,0.0,0.767,0.7402,0.7408,0.7241,0.6966,0.6426,0.61,0.605,0.5622,0.5297,0.5132,0.4908,0.4187,0.313,0.0,0.0,0.0,0.0,0.1567,0.0864,0.0633,0.0,-0.1011,-0.1518,-0.2505,-0.3909,-0.4032,-0.4441,-0.5176,-0.498,-0.5109,-0.5643,-0.5586,0.0,0.0,0.0,0.0,0.0,0.0,0.0,0.0,0.0,0.0,0.0,0.0,0.0,0.0,0.0,0.0,0.0,0.0,0.0,-0.6332,-0.5887,-0.5937,0.0,0.0,0.0,0.0,0.0,0.0,0.0,0.0,0.0,-0.5683,-0.5139,-0.469,0.0,0.0,-0.432,-0.432,-0.4539,-0.4863,-0.5277,-0.5956,0.0,-0.7478,-0.825,-0.8929,-0.9557,-0.9976,-1.0254,-1.0429,-1.0165,-1.0097,-1.0458,-0.9961,-0.9802,-1.0668,-1.1248,-1.191,-1.2916,-1.3446,-1.382,-1.436,-1.4699,-1.4944,0.883,0.8402,0.8031,0.7824,0.7723,0.767,0.7509,0.7246,0.7402,0.7348,0.7246,0.7348,0.7402,0.7402,0.7396,0.0,0.0,0.0,0.799,0.767,0.767,0.7509,0.7289,0.6701,0.6431,0.6376,0.5837,0.5572,0.5517,0.5179,0.4602,0.3723,0.0,0.3101,0.2324,0.2211,0.1795,0.1147,0.0765,0.0202,-0.051,-0.1344,-0.2349,-0.3568,-0.3655,-0.3968,-0.4553,-0.4353,-0.4491,-0.5016,-0.491,-0.5034,0.0,0.0,0.0,0.0,0.0,0.0,0.0,0.0,0.0,0.0,0.0,-0.5887,-0.5887,0.0,0.0,0.0,-0.5333,-0.5591,-0.5727,-0.5268,0.0,0.0,0.0,0.0,0.0,0.0,0.0,-0.6243,-0.6171,-0.5957,-0.55,-0.518,-0.4846,-0.4389,-0.432,-0.432,-0.432,0.0,-0.4661,-0.4801,-0.5395,-0.5968,-0.6546,-0.7257,-0.8027,-0.9005,-0.9711,-1.0128,-1.0128,-1.0111,-1.0152,-1.0203,-0.9829,-0.9571,-1.0162,-1.0671,-1.1228,-1.2089,-1.2894,-1.3584,-1.386,-1.4404,-1.4937,0.9465,0.9159,0.8349,0.7931,0.7771,0.7771,0.767,0.7515,0.767,0.7717,0.7723,0.7877,0.7931,0.7931,0.7978,0.0,0.7978,0.8315,0.8209,0.7777,0.7877,0.7765,0.7396,0.709,0.6874,0.6756,0.6273,0.5946,0.5823,0.5206,0.4796,0.4543,0.4196,0.3704,0.3006,0.2316,0.192,0.1709,0.095,0.0344,-0.0047,-0.1134,-0.2067,-0.2846,-0.3088,-0.3407,-0.3741,-0.3833,-0.3968,-0.4184,-0.4228,-0.4276,-0.4412,0.0,0.0,0.0,0.0,0.0,0.0,0.0,0.0,0.0,0.0,0.0,0.0,0.0,0.0,0.0,-0.4698,0.0,-0.5058,-0.4684,0.0,0.0,0.0,-0.5566,-0.5661,-0.5812,-0.5831,-0.5524,0.0,0.0,-0.5036,-0.4967,-0.4805,-0.43,-0.4276,-0.432,-0.432,-0.4447,-0.457,-0.4613,-0.4845,-0.5159,-0.5734,-0.6402,-0.7276,-0.85,-0.9518,-1.0083,-1.0123,-1.0089,-1.0216,-1.0518,-0.9795,-0.9187,-0.9538,-1.0,-1.0404,-1.1041,-1.1965,-1.2752,-1.3097,-1.3895,-1.4674,0.9681,0.9458,0.9145,0.8778,0.8415,0.848,0.8262,0.7824,0.8096,0.8043,0.7723,0.799,0.8115,0.8156,0.8362,0.8362,0.8315,0.8586,0.8646,0.8533,0.8368,0.8203,0.8096,0.7503,0.7187,0.7128,0.6598,0.6187,0.6034,0.5606,0.525,0.4935,0.4766,0.4146,0.3126,0.2978,0.2578,0.1787,0.136,0.055,-0.05,-0.0817,-0.148,-0.2501,-0.2548,-0.2807,-0.341,-0.3375,-0.3391,-0.348,-0.3653,-0.3785,-0.3829,-0.406,0.0,0.0,0.0,0.0,0.0,0.0,0.0,0.0,0.0,-0.4711,-0.4869,0.0,-0.4522,0.0,-0.371,-0.3923,-0.4838,-0.4341,0.0,0.0,-0.5082,-0.523,-0.5257,-0.5444,-0.5575,-0.5529,-0.5594,-0.5418,-0.4662,-0.4828,-0.4709,-0.3991,-0.4092,-0.432,-0.432,-0.436,-0.4403,-0.4574,-0.4661,-0.4879,-0.5404,-0.6466,-0.7379,-0.7999,-0.8883,-0.9572,-0.9766,-0.9839,-0.9952,-1.0148,-0.9855,-0.9547,-0.9581,-0.9931,-1.0058,-1.0091,-1.1315,-1.2741,-1.3429,-1.3878,-1.4291,1.0249,1.0182,0.988,0.9614,0.9392,0.9106,0.8791,0.8514,0.8685,0.8626,0.8461,0.8738,0.8784,0.8738,0.8844,0.8791,0.8685,0.8752,0.8804,0.8804,0.8533,0.8368,0.8368,0.783,0.7509,0.7456,0.6977,0.6589,0.6267,0.5789,0.5442,0.5112,0.4921,0.4399,0.3563,0.3416,0.2921,0.2039,0.1404,0.0672,-0.0268,-0.0448,-0.0951,-0.1801,-0.1948,-0.226,-0.282,-0.2988,-0.3084,-0.3214,-0.3347,-0.3432,-0.3432,-0.3612,-0.3707,0.0,0.0,0.0,0.0,0.0,0.0,0.0,0.0,0.0,0.0,0.0,-0.4142,-0.4069,-0.3542,-0.3572,-0.4401,-0.3854,-0.3672,-0.4333,-0.4729,-0.4896,-0.488,-0.5115,-0.5209,-0.4982,-0.5041,-0.4853,-0.4207,-0.4426,-0.4431,-0.3796,-0.4052,-0.432,-0.432,-0.432,-0.432,-0.4443,-0.4443,-0.4618,-0.5091,-0.6066,-0.6874,-0.7288,-0.8098,-0.8867,-0.9093,-0.9408,-0.9595,-0.9695,-0.9503,-0.9341,-0.9341,-0.9499,-0.9694,-1.0123,-1.087,-1.1846,-1.2624,-1.321,-1.3661,1.1074,1.1057,1.0557,1.0438,1.0466,0.9769,0.942,0.9316,0.9263,0.9316,0.9465,0.9569,0.9569,0.9472,0.9316,0.9159,0.9008,0.8857,0.8811,0.8804,0.8533,0.8421,0.8368,0.8115,0.7842,0.7723,0.7354,0.6956,0.6576,0.6022,0.5553,0.5171,0.4927,0.4554,0.4144,0.3721,0.3104,0.2326,0.1432,0.0716,0.0224,-0.0179,-0.0584,-0.103,-0.1389,-0.1746,-0.219,-0.2598,-0.2909,-0.304,-0.3081,-0.3129,-0.3081,-0.317,-0.317,0.0,-0.3214,0.0,0.0,0.0,0.0,0.0,0.0,0.0,0.0,-0.3783,-0.3909,-0.4336,-0.3752,-0.352,-0.3901,-0.3384,-0.324,-0.3877,-0.4298,-0.4573,-0.4546,-0.4717,-0.4722,-0.4361,-0.4276,-0.4096,-0.3707,-0.3965,-0.4008,-0.3653,-0.3917,-0.4188,-0.4228,-0.4276,-0.432,-0.432,-0.432,-0.4535,-0.4966,-0.5539,-0.6073,-0.6465,-0.7285,-0.799,-0.826,-0.8739,-0.917,-0.9231,-0.9139,-0.9001,-0.9016,-0.9148,-0.9523,-1.0242,-1.065,-1.1025,-1.1644,-1.2435,-1.3045,1.1578,1.1519,1.1368,1.1267,1.1267,1.0913,1.0395,0.9814,0.9614,0.9629,0.974,0.974,0.974,0.9688,0.9569,0.9413,0.9159,0.9008,0.8903,0.8804,0.8633,0.8527,0.8368,0.8221,0.8062,0.7848,0.7676,0.7389,0.7047,0.664,0.6133,0.5577,0.5321,0.486,0.428,0.0,0.0,0.0,0.1657,0.094,0.0224,0.0045,-0.0315,-0.0763,-0.1211,0.0,-0.1567,-0.2062,-0.2377,-0.2377,-0.2551,0.0,0.0,0.0,0.0,0.0,0.0,0.0,0.0,0.0,0.0,0.0,-0.3197,-0.3207,-0.3192,-0.3097,-0.3294,-0.388,-0.3442,-0.3277,-0.3463,-0.3262,-0.3197,-0.3514,-0.3776,-0.3993,-0.4009,-0.4221,-0.4341,-0.4321,-0.4008,-0.3697,-0.3391,-0.3391,-0.3258,-0.304,-0.3435,-0.3785,-0.3829,-0.4096,-0.4276,-0.432,-0.4368,-0.4587,-0.4966,-0.527,-0.5658,-0.6184,-0.6728,-0.7249,-0.7638,-0.801,-0.8468,-0.8857,-0.8962,-0.8984,-0.9217,-0.9749,-1.0031,-0.999,-1.0603,-1.1357,-1.2005,-1.2573,-1.3019,1.2369,1.2452,1.2,1.1868,0.0,1.1719,1.136,1.099,1.049,1.03,1.0462,1.0514,1.0514,1.0411,1.0293,0.9995,0.9582,0.9445,0.9275,0.9001,0.8829,0.8738,0.8586,0.8374,0.8268,0.8162,0.7895,0.7606,0.7302,0.6892,0.6404,0.58,0.5444,0.5067,0.4631,0.4228,0.3565,0.2679,0.2014,0.1435,0.0895,0.0538,0.0135,-0.0224,-0.0672,0.0,0.0,0.0,0.0,0.0,0.0,0.0,0.0,-0.2326,0.0,-0.2593,-0.2684,-0.2687,-0.2687,-0.2687,-0.2684,-0.264,-0.2593,-0.2664,-0.2873,-0.3039,-0.3229,-0.3445,-0.3241,-0.319,-0.3471,-0.3246,-0.319,-0.3469,-0.369,-0.3782,-0.3805,-0.4052,-0.4102,-0.3891,-0.3744,-0.352,-0.304,-0.3084,-0.3084,-0.2865,-0.3303,-0.37,-0.3836,-0.4096,-0.432,-0.4368,-0.446,-0.4587,-0.4845,-0.5053,-0.5351,-0.5873,-0.6392,-0.6781,-0.716,-0.7614,-0.807,-0.8381,-0.8545,-0.8741,-0.9073,-0.9441,-0.9749,-0.9818,-1.0181,-1.0775,-1.1368,-1.1975,-1.2445,1.3307,1.3375,1.2667,1.2438,1.2578,1.2323,1.2175,1.2126,1.1368,0.0,0.0,1.1276,1.1267,1.1124,1.1023,1.0647,1.0173,0.993,0.967,0.9283,0.9088,0.896,0.8804,0.8593,0.8427,0.8421,0.8109,0.784,0.7514,0.7148,0.6656,0.6053,0.5634,0.5281,0.4898,0.4184,0.3609,0.3123,0.2417,0.1927,0.1657,0.1122,0.0673,0.0358,-0.0045,-0.0403,-0.0761,-0.103,-0.121,-0.1299,-0.1299,-0.1435,-0.1705,-0.1705,-0.1839,-0.202,-0.2064,-0.2064,-0.2064,-0.2064,-0.2064,-0.2064,-0.2064,-0.2267,-0.2684,-0.3044,-0.3151,-0.3042,-0.3007,-0.3188,-0.3471,-0.3302,-0.3234,-0.3553,-0.3672,-0.3709,-0.3658,-0.3873,-0.3926,-0.3557,-0.352,-0.3391,-0.2818,-0.2907,-0.2993,-0.2907,-0.3214,-0.3656,-0.3836,-0.406,-0.4188,-0.4236,-0.4324,-0.4495,-0.4714,-0.4927,-0.5231,-0.5572,-0.6044,-0.6435,-0.6738,-0.7286,-0.7704,-0.787,-0.8126,-0.8488,-0.8822,-0.9009,-0.9154,-0.9664,-0.9823,-0.9971,-1.0457,-1.1164,-1.173,1.4254,1.4063,1.3488,1.3213,1.2978,1.2735,1.2539,1.2431,1.1828,1.1528,1.1427,1.1469,1.1377,1.1267,1.1124,1.0939,1.0772,1.0204,0.9864,0.968,0.9307,0.9112,0.8949,0.8804,0.8692,0.8573,0.8421,0.8249,0.8081,0.7815,0.7246,0.6518,0.6141,0.5555,0.4679,0.436,0.4052,0.3748,0.2771,0.2146,0.1966,0.1612,0.1254,0.0806,0.0492,0.0089,-0.0268,-0.0582,-0.0851,-0.094,-0.0985,-0.1074,-0.1344,-0.1344,-0.1389,-0.1524,-0.1524,-0.1524,-0.1524,-0.1479,-0.1524,-0.1524,-0.1524,-0.1737,-0.2338,-0.2484,-0.2577,-0.2671,-0.2692,-0.2856,-0.3132,-0.3125,-0.3142,-0.3393,-0.3462,-0.3468,-0.3585,-0.3623,-0.3642,-0.3496,-0.3296,-0.3081,-0.2821,-0.264,-0.2504,-0.2595,-0.2946,-0.3258,-0.3575,-0.384,-0.3884,-0.384,-0.406,-0.432,-0.4408,-0.4762,-0.5024,-0.5285,-0.5615,-0.591,-0.6124,-0.6689,-0.716,-0.7489,-0.7821,-0.8308,-0.8935,-0.9145,-0.9306,-0.9634,-0.9783,-0.998,-1.0166,-1.0715,-1.1287,1.5065,1.484,1.4175,1.3741,1.3491,1.3076,1.2832,1.2686,1.248,1.2224,1.2036,1.2026,1.1977,1.1828,1.1778,1.1554,1.1212,1.0731,1.0341,1.0043,0.9573,0.93,0.9144,0.8961,0.8848,0.8743,0.8601,0.8452,0.8227,0.8003,0.7515,0.6777,0.6175,0.5556,0.4888,0.4574,0.436,0.4096,0.3258,0.2679,0.2504,0.2101,0.1744,0.1479,0.121,0.0851,0.0403,0.0179,-0.0089,-0.0404,-0.0403,-0.0538,-0.0851,-0.0896,-0.0942,-0.112,-0.112,-0.112,-0.103,-0.103,-0.103,-0.103,-0.103,-0.1172,-0.1516,-0.1816,-0.1988,-0.2113,-0.2155,-0.2351,-0.2767,-0.2784,-0.2963,-0.335,-0.334,-0.3308,-0.3343,-0.3112,-0.3007,-0.2957,-0.2632,-0.2366,-0.2511,-0.2375,-0.2328,-0.246,-0.2768,-0.3078,-0.3258,-0.3391,-0.3571,-0.366,-0.3836,-0.3968,-0.4056,-0.4412,-0.4675,-0.4801,-0.5275,-0.5572,-0.5787,-0.6307,-0.6816,-0.7063,-0.7482,-0.8028,-0.8594,-0.8846,-0.9096,-0.9417,-0.9664,-0.9862,-1.0088,-1.0677,-1.1383,1.606,1.575,1.4852,1.4285,1.382,1.335,1.3123,1.3017,1.2968,1.2861,1.2627,1.2578,1.2471,1.2323,1.2323,1.2057,1.1693,1.1241,1.0845,1.0533,0.9948,0.963,0.9462,0.9159,0.8974,0.8935,0.8788,0.8648,0.8418,0.8263,0.7792,0.7039,0.622,0.562,0.5231,0.4927,0.4618,0.436,0.3785,0.3347,0.3043,0.2549,0.2237,0.2105,0.1882,0.1567,0.112,0.0985,0.0716,0.0269,0.0225,0.0045,-0.0314,-0.0359,-0.0449,-0.0672,-0.0717,-0.0672,-0.0537,-0.0537,-0.0538,-0.0537,-0.0582,-0.0627,-0.0763,-0.1108,-0.1435,-0.1585,-0.1661,-0.1893,-0.2347,-0.2413,-0.2589,-0.3097,-0.3058,-0.2939,-0.2853,-0.259,-0.2319,-0.2235,-0.1921,-0.1789,-0.1973,-0.2064,-0.2243,-0.2462,-0.2726,-0.2851,-0.2827,-0.2863,-0.3037,-0.3262,-0.35,-0.3656,-0.3792,-0.406,-0.428,-0.4276,-0.4801,-0.5101,-0.5356,-0.5916,-0.6428,-0.6592,-0.7105,-0.7697,-0.8103,-0.8472,-0.8846,-0.9248,-0.9496,-0.9704,-1.0088,-1.0764,-1.1568,1.745,1.6746,1.5832,1.4768,1.3666,1.344,1.3372,1.3324,1.3228,1.3142,1.3027,1.2783,1.2627,1.248,1.2323,1.2246,1.2171,1.1693,1.1396,1.1265,1.0585,1.0178,0.9987,0.9502,0.9183,0.9082,0.8966,0.8882,0.8821,0.8667,0.8215,0.7455,0.6644,0.6039,0.5696,0.541,0.5019,0.457,0.4487,0.4184,0.3578,0.3126,0.2768,0.2462,0.2324,0.2059,0.1748,0.1569,0.1344,0.103,0.0898,0.0629,0.0225,0.0135,0.009,-0.0045,-0.0045,-0.009,-0.009,-0.0045,-0.0045,-0.009,-0.018,-0.0269,-0.0269,-0.0406,-0.0781,-0.1239,-0.1482,-0.1659,-0.2074,-0.2111,-0.2228,-0.243,-0.2485,-0.2248,-0.2041,-0.2014,-0.1876,-0.1433,-0.1433,-0.1433,-0.1429,-0.1695,-0.201,-0.2355,-0.2485,-0.2461,-0.2226,-0.2158,-0.2198,-0.2338,-0.2827,-0.3341,-0.3483,-0.3751,-0.3928,-0.3968,-0.4276,-0.4539,-0.4757,-0.5188,-0.5707,-0.6258,-0.6719,-0.7356,-0.7938,-0.839,-0.8724,-0.9079,-0.9319,-0.9518,-1.0108,-1.0715,-1.1435,1.8163,1.7684,1.6615,1.5312,1.4041,1.3763,1.3573,1.3515,1.3647,1.3658,1.3621,1.343,1.3104,1.2637,1.2578,1.2471,1.2393,1.1864,1.1619,1.1577,1.0894,1.0488,1.0418,1.0169,0.9846,0.9512,0.9443,0.9248,0.8904,0.8484,0.8105,0.7759,0.7068,0.6598,0.6386,0.6013,0.5701,0.5432,0.5226,0.4966,0.4574,0.3917,0.3391,0.3167,0.2946,0.2637,0.2237,0.2103,0.1835,0.1433,0.1348,0.1168,0.0852,0.0852,0.0807,0.0762,0.0807,0.0852,0.0807,0.0627,0.0538,0.0538,0.0314,0.0135,0.0045,0.009,-0.0091,-0.0598,-0.0842,-0.1141,-0.1599,-0.167,-0.1839,-0.2221,-0.2375,-0.2277,-0.1969,-0.1697,-0.1477,-0.1299,-0.0941,-0.0842,-0.1173,-0.1554,-0.1855,-0.207,-0.207,-0.2009,-0.1891,-0.1767,-0.1654,-0.1744,-0.2178,-0.2654,-0.2929,-0.335,-0.3571,-0.3707,-0.406,-0.4412,-0.4499,-0.5067,-0.5717,-0.589,-0.652,-0.707,-0.7614,-0.8152,-0.857,-0.891,-0.931,-0.9597,-1.0196,-1.0867,-1.1594,1.8827,1.8384,1.7166,1.5822,1.4466,1.4233,1.4093,1.4035,1.4165,1.4258,1.4165,1.4046,1.3668,1.3152,1.291,1.2725,1.2579,1.2215,1.1988,1.1884,1.1361,1.1022,1.0922,1.0714,1.0392,1.0004,0.9838,0.9468,0.8913,0.8496,0.8193,0.807,0.7565,0.7196,0.6992,0.6611,0.6301,0.6081,0.583,0.5653,0.5394,0.4753,0.4184,0.3829,0.3568,0.3214,0.2771,0.2593,0.2324,0.1882,0.1796,0.1617,0.1389,0.1344,0.1299,0.1344,0.1389,0.1389,0.1389,0.1165,0.103,0.103,0.0763,0.0538,0.0494,0.0539,0.0405,0.009,-0.0135,-0.0502,-0.1114,-0.1233,-0.1455,-0.1953,-0.2092,-0.1917,-0.1538,-0.1188,-0.0831,-0.0651,-0.0258,-0.0257,-0.0831,-0.1195,-0.1444,-0.1566,-0.1618,-0.1524,-0.1462,-0.1259,-0.1157,-0.1153,-0.1427,-0.1861,-0.2433,-0.289,-0.3164,-0.3439,-0.3836,-0.428,-0.4412,-0.5067,-0.5636,-0.5809,-0.6441,-0.693,-0.7335,-0.7833,-0.8246,-0.8606,-0.9042,-0.9566,-1.0205,-1.0971,-1.1579,1.9617,1.8964,1.747,1.6111,1.5062,1.5017,1.5017,1.4915,1.4915,1.4801,1.4663,1.4536,1.4351,1.4165,1.343,1.3017,1.2958,1.2832,1.2716,1.257,1.2166,1.1845,1.1444,1.1085,1.074,1.0427,1.0089,0.9593,0.8977,0.8871,0.8708,0.8414,0.807,0.7739,0.7412,0.7112,0.6761,0.6422,0.6331,0.6173,0.5976,0.5761,0.5193,0.4403,0.4136,0.3829,0.3394,0.3217,0.2948,0.2462,0.2241,0.1928,0.1658,0.1523,0.1429,0.1431,0.1429,0.1429,0.1429,0.1383,0.1386,0.1344,0.1165,0.1031,0.0941,0.0808,0.0674,0.0629,0.0494,0.009,-0.0542,-0.0721,-0.0896,-0.13,-0.1165,-0.0832,-0.0464,-0.0295,0.0207,0.0563,0.0478,0.0119,-0.0434,-0.0552,-0.0827,-0.1026,-0.1127,-0.1043,-0.0757,-0.0596,-0.0555,-0.0588,-0.0777,-0.11,-0.1937,-0.2464,-0.2744,-0.3084,-0.3483,-0.3993,-0.4364,-0.481,-0.5236,-0.5637,-0.5995,-0.6425,-0.6969,-0.7411,-0.7765,-0.818,-0.8735,-0.9318,-0.9992,-1.0816,-1.1468,1.951,1.8536,1.7715,1.661,1.5459,1.5289,1.521,1.521,1.5322,1.5367,1.5367,1.5232,1.5096,1.504,1.4387,1.3894,1.3478,1.3104,1.292,1.2861,1.2516,1.2253,1.2122,1.1802,1.1353,1.087,1.0624,1.0196,0.9502,0.9266,0.9056,0.8854,0.8447,0.8201,0.8002,0.7663,0.737,0.7196,0.7063,0.6901,0.6647,0.6562,0.6179,0.541,0.4923,0.4487,0.4012,0.3781,0.3432,0.2951,0.2768,0.2593,0.2455,0.2223,0.206,0.197,0.1884,0.1878,0.1922,0.1805,0.1611,0.1518,0.1254,0.1031,0.0897,0.0898,0.0897,0.0763,0.0852,0.0583,0.0135,-0.0135,-0.031,-0.0475,-0.0515,-0.0337,0.0,0.0201,0.0399,0.0706,0.0613,0.03,0.0075,-0.0262,-0.0562,-0.0675,-0.0572,-0.0492,-0.0441,-0.0214,0.0,-0.0175,-0.0428,-0.0738,-0.1213,-0.1892,-0.2375,-0.2744,-0.3161,-0.3512,-0.3914,-0.44,-0.4883,-0.5092,-0.5409,-0.5863,-0.6428,-0.6922,-0.7278,-0.7735,-0.8278,-0.905,-0.9638,-1.066,-1.1413,1.9419,1.8289,1.7941,1.7078,1.5828,1.5703,1.5614,1.5614,1.5768,1.5913,1.5881,1.578,1.5736,1.5647,1.5175,1.4766,1.4316,1.3705,1.3311,1.3148,1.2853,1.2594,1.2432,1.2269,1.1887,1.1364,1.1163,1.0684,1.0009,0.9725,0.9567,0.9408,0.8967,0.8651,0.8488,0.8118,0.7919,0.7829,0.7628,0.7412,0.728,0.7112,0.681,0.6307,0.5787,0.5183,0.4578,0.4351,0.401,0.3543,0.332,0.3107,0.2838,0.2607,0.2434,0.2289,0.2174,0.2146,0.2208,0.204,0.1874,0.1797,0.1557,0.13,0.1077,0.1165,0.1121,0.1032,0.1031,0.1028,0.0838,0.0614,0.0346,0.0126,0.0041,0.0201,0.0502,0.0574,0.0721,0.0856,0.0834,0.0677,0.0497,0.0071,-0.0142,-0.0213,-0.0036,-0.0036,-0.0071,0.0173,0.0403,0.0135,-0.0069,-0.0428,-0.0843,-0.136,-0.1946,-0.2374,-0.2687,-0.3092,-0.3385,-0.3931,-0.4352,-0.4565,-0.4906,-0.534,-0.5834,-0.6385,-0.6833,-0.7263,-0.8043,-0.8856,-0.9685,-1.0662,-1.1315,1.9419,1.8349,1.8213,1.7426,1.6323,1.6287,1.6318,1.6188,1.6306,1.6262,1.6188,1.62,1.6144,1.61,1.5691,1.5468,1.5289,1.4593,1.4017,1.3626,1.3252,1.2845,1.2456,1.2299,1.2173,1.1932,1.147,1.0905,1.0371,1.0283,1.0166,0.9971,0.9646,0.9239,0.8829,0.8602,0.8365,0.8226,0.7995,0.7829,0.7829,0.7398,0.7105,0.6985,0.6647,0.6002,0.5096,0.5005,0.4667,0.4094,0.3859,0.3475,0.2876,0.2646,0.2468,0.2369,0.2195,0.2114,0.2165,0.2197,0.2238,0.2156,0.2053,0.1871,0.1734,0.1609,0.1479,0.1344,0.1381,0.1407,0.1529,0.1463,0.1121,0.0374,0.0639,0.0882,0.0958,0.1091,0.1182,0.1205,0.1155,0.108,0.0843,0.0509,0.034,0.034,0.0409,0.041,0.0375,0.0575,0.0607,0.0403,0.0272,0.0035,-0.0391,-0.0877,-0.1428,-0.1967,-0.2295,-0.2623,-0.2778,-0.3186,-0.3667,-0.398,-0.454,-0.495,-0.5393,-0.5882,-0.6248,-0.6765,-0.7731,-0.8482,-0.9162,-0.9945,-1.109,1.9909,1.914,1.8567,1.7823,1.6998,1.6579,1.6362,1.6362,1.6392,1.6392,1.6392,1.6349,1.6362,1.6275,1.61,1.5969,1.5925,1.5367,1.4824,1.4362,1.3727,1.3306,1.2987,1.248,1.2119,1.1866,1.1583,1.1253,1.0947,1.0774,1.0621,1.039,1.0079,0.9813,0.9607,0.9359,0.9151,0.8958,0.8805,0.8683,0.8504,0.8177,0.7855,0.7516,0.7238,0.6732,0.6013,0.5577,0.5148,0.4683,0.4232,0.3785,0.3342,0.3087,0.2917,0.2785,0.2612,0.2555,0.2637,0.265,0.2642,0.2521,0.2379,0.222,0.1982,0.1762,0.1561,0.147,0.1658,0.1782,0.1627,0.2047,0.2026,0.1524,0.15,0.1533,0.1572,0.1623,0.1643,0.1554,0.1378,0.1246,0.1078,0.084,0.0673,0.0707,0.0808,0.0875,0.0774,0.0908,0.0977,0.0707,0.0641,0.0472,0.0035,-0.0245,-0.0533,-0.1058,-0.1456,-0.1811,-0.2036,-0.2363,-0.2867,-0.3454,-0.4038,-0.4524,-0.4943,-0.534,-0.5711,-0.6199,-0.695,-0.7567,-0.8139,-0.9219,-1.0609,2.0309,1.9625,1.8879,1.8155,1.7415,1.6729,1.6436,1.6392,1.6436,1.6436,1.6436,1.6436,1.6436,1.6392,1.6318,1.6275,1.6231,1.5925,1.5591,1.5149,1.4281,1.3799,1.3535,1.2842,1.2401,1.217,1.1812,1.1564,1.1415,1.1266,1.1115,1.0899,1.0572,1.0341,1.0205,0.9913,0.9686,0.9607,0.9408,0.9248,0.9062,0.8829,0.8504,0.8095,0.7773,0.7405,0.6985,0.6337,0.5691,0.5173,0.4583,0.4086,0.3712,0.3517,0.3255,0.3004,0.2846,0.2764,0.2815,0.2779,0.2795,0.2671,0.2587,0.2409,0.222,0.1983,0.1831,0.1741,0.1953,0.2107,0.2052,0.2457,0.2701,0.2434,0.2118,0.1984,0.1991,0.1911,0.1911,0.1842,0.1678,0.1579,0.1544,0.1209,0.1009,0.101,0.1111,0.1179,0.1078,0.1211,0.1177,0.1075,0.0942,0.074,0.0438,0.0304,0.0304,-0.0069,-0.0461,-0.0818,-0.1102,-0.1487,-0.1938,-0.2744,-0.3407,-0.3722,-0.4155,-0.4669,-0.5132,-0.5688,-0.6288,-0.7372,-0.8268,-0.9288,-1.0549,2.0554,1.9808,1.9152,1.8461,1.7728,1.6979,1.6627,1.6479,1.6522,1.6522,1.6479,1.6522,1.6522,1.6479,1.6436,1.6392,1.6362,1.6231,1.6144,1.5847,1.5057,1.4355,1.395,1.3361,1.3047,1.2877,1.2335,1.1982,1.1905,1.1778,1.1719,1.1448,1.1153,1.0916,1.0659,1.0283,1.0166,1.0118,0.9804,0.9667,0.9658,0.9301,0.8981,0.8756,0.8349,0.8021,0.7811,0.7131,0.6303,0.55,0.4946,0.4485,0.4118,0.3853,0.3554,0.3201,0.2955,0.2863,0.2784,0.2798,0.2769,0.2789,0.2725,0.2611,0.2457,0.2329,0.2191,0.2069,0.2273,0.2484,0.2692,0.2983,0.302,0.287,0.2502,0.2195,0.1981,0.1945,0.2045,0.2172,0.2075,0.2011,0.2172,0.1676,0.1445,0.1346,0.1346,0.1346,0.1445,0.1575,0.1573,0.1509,0.1408,0.1141,0.0873,0.094,0.0873,0.0576,0.0276,0.0103,-0.0342,-0.0783,-0.1321,-0.2109,-0.2662,-0.2987,-0.3412,-0.3995,-0.4483,-0.4947,-0.5967,-0.7356,-0.8155,-0.8711,-0.9772,2.1037,2.074,1.9991,1.9317,1.8636,1.7974,1.7394,1.7015,1.6918,1.682,1.6748,1.6705,1.6607,1.6522,1.6479,1.6479,1.6479,1.6405,1.6362,1.6306,1.5978,1.5108,1.4356,1.3911,1.3721,1.3595,1.3062,1.2663,1.2575,1.217,1.1889,1.1708,1.1634,1.1463,1.125,1.1099,1.1012,1.085,1.0649,1.0485,1.0331,1.0021,0.9667,0.9341,0.8958,0.8586,0.822,0.744,0.6567,0.5636,0.5327,0.502,0.4666,0.4394,0.4122,0.3927,0.361,0.3372,0.3315,0.3152,0.3079,0.3022,0.2879,0.2744,0.2707,0.2411,0.2219,0.2217,0.2616,0.2934,0.2912,0.3312,0.349,0.3121,0.2646,0.2284,0.2147,0.2245,0.2374,0.2371,0.2504,0.2471,0.2338,0.2172,0.1973,0.1807,0.1776,0.1802,0.1958,0.2006,0.204,0.2073,0.1973,0.164,0.144,0.1509,0.141,0.1142,0.098,0.1016,0.0405,-0.0236,-0.0906,-0.1671,-0.1968,-0.2263,-0.282,-0.3403,-0.3829,-0.4253,-0.5004,-0.5989,-0.6376,-0.6918,-0.835,2.141,2.1307,2.0549,1.9967,1.9462,1.8565,1.7938,1.7552,1.7206,1.7073,1.6989,1.696,1.6833,1.6723,1.6693,1.6705,1.665,1.6577,1.6534,1.6577,1.638,1.583,1.5139,1.4718,1.4456,1.4393,1.3773,1.3451,1.3256,1.2663,1.237,1.2212,1.1982,1.1756,1.1634,1.1522,1.1448,1.125,1.1115,1.0964,1.0764,1.0582,1.0302,0.9942,0.9588,0.9156,0.8515,0.7998,0.7191,0.6318,0.583,0.5496,0.5135,0.4913,0.4678,0.4479,0.4053,0.3793,0.3626,0.3467,0.3372,0.3286,0.3113,0.3009,0.2926,0.2642,0.2427,0.2444,0.2877,0.3051,0.3201,0.3586,0.3667,0.3397,0.2907,0.2543,0.2444,0.2573,0.2706,0.2772,0.2805,0.2867,0.2706,0.26,0.2469,0.2353,0.2279,0.2353,0.2495,0.2534,0.2527,0.255,0.2527,0.2233,0.2027,0.2024,0.1908,0.1615,0.1374,0.148,0.0991,0.0265,-0.0335,-0.0937,-0.1238,-0.1605,-0.2128,-0.2652,-0.3078,-0.3533,-0.4023,-0.4716,-0.5377,-0.5777,-0.7188,2.1759,2.1609,2.098,2.0549,2.012,1.9079,1.8542,1.8117,1.7666,1.7374,1.7253,1.724,1.7115,1.7044,1.7002,1.6989,1.6918,1.6791,1.6803,1.6803,1.6663,1.6353,1.6095,1.5471,1.5253,1.509,1.4475,1.4151,1.3945,1.3416,1.3078,1.2919,1.245,1.2087,1.2035,1.1793,1.1663,1.1533,1.1325,1.1174,1.104,1.0926,1.0687,1.0418,1.0127,0.9635,0.905,0.8607,0.8051,0.7044,0.6428,0.5916,0.5557,0.5423,0.5132,0.4724,0.443,0.414,0.3881,0.3826,0.37,0.3569,0.3442,0.3311,0.3203,0.2996,0.2801,0.2666,0.2874,0.3224,0.355,0.3709,0.3755,0.3672,0.3294,0.3097,0.3032,0.297,0.3039,0.3237,0.3064,0.311,0.311,0.305,0.2821,0.2593,0.2632,0.2804,0.2903,0.2932,0.2952,0.2926,0.2884,0.2852,0.2675,0.2531,0.2331,0.2084,0.1771,0.1643,0.131,0.071,0.0266,-0.0168,-0.0536,-0.0871,-0.1274,-0.1769,-0.2227,-0.2688,-0.3143,-0.4198,-0.5195,-0.5404,-0.6334,2.1949,2.1888,2.1655,2.123,2.0758,2.0425,1.9751,1.8833,1.8557,1.8066,1.7581,1.7404,1.7308,1.717,1.717,1.717,1.7115,1.6989,1.6931,1.6876,1.6918,1.6833,1.665,1.6175,1.5991,1.5746,1.5187,1.4886,1.4701,1.4192,1.3788,1.3713,1.3509,1.3256,1.2705,1.2582,1.2302,1.1834,1.1544,1.1432,1.1325,1.1153,1.1002,1.0774,1.0428,1.006,0.9607,0.9186,0.8723,0.8077,0.7229,0.6543,0.6121,0.5775,0.5554,0.5327,0.4941,0.4616,0.452,0.4269,0.4021,0.3896,0.3793,0.3695,0.3504,0.3307,0.3109,0.3006,0.3266,0.3542,0.3805,0.3874,0.3874,0.3856,0.3901,0.3879,0.3876,0.3523,0.329,0.3302,0.3294,0.3234,0.3142,0.3165,0.2999,0.2849,0.2966,0.3171,0.3294,0.3384,0.3301,0.326,0.3189,0.3139,0.3028,0.2889,0.2713,0.2476,0.2178,0.1954,0.1613,0.1187,0.0737,0.0428,0.0134,-0.0235,-0.0672,-0.0839,-0.1268,-0.1767,-0.223,-0.2977,-0.3728,-0.4383,-0.5209,2.2091,2.2077,2.2044,2.1755,2.1389,2.1097,2.0581,1.9913,1.9496,1.8917,1.8329,1.8178,1.7892,1.7419,1.7419,1.7419,1.7323,1.7282,1.7128,1.7002,1.7044,1.7044,1.696,1.6705,1.6522,1.633,1.5948,1.5715,1.5441,1.4923,1.4511,1.4434,1.4239,1.3759,1.347,1.3372,1.2938,1.2431,1.2155,1.1914,1.1603,1.14,1.1228,1.1067,1.0802,1.0495,1.0225,0.981,0.9318,0.8745,0.8057,0.7279,0.661,0.6176,0.5936,0.5679,0.539,0.5004,0.4845,0.466,0.4403,0.4188,0.4086,0.3983,0.3788,0.3565,0.3368,0.3216,0.3255,0.3371,0.3545,0.3628,0.3682,0.3782,0.3895,0.3968,0.399,0.3766,0.3654,0.3642,0.3546,0.3562,0.3516,0.3451,0.3539,0.352,0.3548,0.3752,0.3733,0.3784,0.3605,0.3508,0.3467,0.3418,0.3346,0.3222,0.309,0.2846,0.2548,0.2395,0.2179,0.1723,0.1263,0.095,0.062,0.0168,-0.0235,-0.0302,-0.0435,-0.0972,-0.1403,-0.1667,-0.2126,-0.2918,-0.3751,2.2217,2.2231,2.2231,2.2137,2.196,2.1499,2.1115,2.083,2.0415,1.9747,1.9237,1.9154,1.8753,1.8234,1.7963,1.7786,1.7584,1.7488,1.7365,1.7157,1.724,1.7212,1.7128,1.7031,1.6905,1.6607,1.6471,1.6355,1.6102,1.5673,1.5344,1.5217,1.4737,1.4451,1.4251,1.4075,1.3719,1.3147,1.2785,1.2449,1.2009,1.1748,1.1564,1.1442,1.1244,1.1019,1.0753,1.0349,0.9897,0.9319,0.8928,0.8146,0.7306,0.6602,0.6293,0.5994,0.5698,0.5397,0.5144,0.4985,0.4826,0.4517,0.4409,0.4269,0.4108,0.3849,0.3626,0.3299,0.3133,0.2864,0.2991,0.3157,0.3338,0.3455,0.3499,0.3612,0.3769,0.3901,0.3923,0.4066,0.3833,0.3732,0.3863,0.3892,0.4079,0.4226,0.4216,0.4215,0.4217,0.413,0.3955,0.3826,0.375,0.3618,0.3537,0.3532,0.3394,0.3216,0.2932,0.2828,0.2707,0.2323,0.1875,0.1401,0.101,0.0646,0.0427,0.0393,0.0164,-0.0267,-0.0537,-0.0736,-0.113,-0.159,-0.2413,2.237,2.237,2.2231,2.217,2.2156,2.2058,2.1629,2.1119,2.0993,2.0501,1.9901,1.986,1.9747,1.9414,1.896,1.8425,1.7989,1.7921,1.7772,1.7608,1.7636,1.7595,1.7483,1.7391,1.7282,1.7073,1.696,1.6791,1.662,1.6361,1.6126,1.612,1.5966,1.5659,1.5174,1.4969,1.4605,1.3947,1.3396,1.295,1.264,1.2258,1.2041,1.192,1.1774,1.1505,1.1207,1.0829,1.0456,1.007,0.9413,0.8794,0.8166,0.7424,0.691,0.6513,0.6088,0.5749,0.5592,0.541,0.5182,0.4922,0.4788,0.4602,0.4409,0.4189,0.3857,0.3393,0.2939,0.2677,0.305,0.3067,0.3077,0.324,0.3404,0.3589,0.3849,0.3923,0.3917,0.4147,0.4012,0.3967,0.4117,0.4202,0.426,0.4354,0.4401,0.4418,0.4392,0.435,0.4252,0.4133,0.4063,0.3886,0.3719,0.3729,0.3687,0.359,0.3369,0.3284,0.3133,0.288,0.2489,0.2081,0.1718,0.1393,0.1232,0.1098,0.0857,0.0509,0.0326,0.02,-0.0231,-0.0652,-0.1357,2.2509,2.2523,2.2431,2.2417,2.2417,2.2417,2.2168,2.1823,2.178,2.1307,2.074,2.0543,2.0318,1.9998,1.9692,1.9249,1.8959,1.8876,1.882,1.8737,1.8422,1.8219,1.8013,1.7785,1.7569,1.7461,1.7419,1.7253,1.6947,1.6765,1.6735,1.665,1.6607,1.6328,1.6026,1.5867,1.5504,1.485,1.418,1.3554,1.3179,1.2672,1.2401,1.2401,1.2258,1.1993,1.1763,1.1468,1.1105,1.0761,1.0323,0.9928,0.9368,0.8611,0.7729,0.7051,0.6535,0.6214,0.6091,0.5905,0.5686,0.5232,0.5169,0.4947,0.4561,0.4249,0.3914,0.3454,0.3195,0.2953,0.3179,0.3092,0.3069,0.3104,0.3254,0.3429,0.3602,0.381,0.4016,0.4184,0.4094,0.4149,0.4431,0.4456,0.4432,0.4483,0.4584,0.4595,0.4615,0.4591,0.4538,0.4358,0.4256,0.4097,0.3951,0.3981,0.3978,0.3875,0.3779,0.3696,0.3527,0.3258,0.3104,0.2853,0.2508,0.2078,0.1843,0.1611,0.1429,0.1335,0.1239,0.1073,0.0705,0.0226,-0.0423,2.2615,2.2615,2.2615,2.2615,2.2615,2.2615,2.2555,2.2463,2.2402,2.2041,2.1451,2.138,2.1097,2.0631,2.0335,2.0152,2.0025,1.9943,1.9858,1.962,1.9138,1.8821,1.8629,1.818,1.7747,1.7788,1.7855,1.7774,1.7393,1.7173,1.7102,1.7073,1.6934,1.6765,1.6642,1.6604,1.6267,1.579,1.498,1.4256,1.3521,1.2998,1.2756,1.2931,1.2756,1.2603,1.2413,1.2162,1.1799,1.1494,1.1201,1.0935,1.0582,0.9874,0.8826,0.7717,0.7142,0.6742,0.6482,0.6329,0.6021,0.5571,0.5421,0.508,0.4606,0.4152,0.3755,0.3473,0.3288,0.3272,0.3277,0.3223,0.3181,0.315,0.3205,0.3281,0.346,0.3702,0.4075,0.4174,0.4175,0.4386,0.4653,0.4764,0.4742,0.4733,0.4812,0.4873,0.4893,0.4883,0.4793,0.4564,0.4399,0.4295,0.4216,0.4227,0.4211,0.4142,0.4068,0.4007,0.382,0.3597,0.3481,0.3329,0.3041,0.2646,0.2378,0.2235,0.2194,0.2157,0.2131,0.193,0.1586,0.1164,0.0624,2.2795,2.2764,2.2661,2.2615,2.2615,2.2615,2.2615,2.2555,2.2569,2.2526,2.2278,2.2366,2.2249,2.2005,2.1386,2.0745,2.0293,2.0251,2.0307,2.0194,1.9597,1.9168,1.8837,1.8262,1.8044,1.8029,1.8161,1.8108,1.7948,1.7666,1.7557,1.7598,1.7406,1.7267,1.7115,1.7086,1.7005,1.6539,1.5551,1.4536,1.3804,1.3523,1.348,1.3514,1.3446,1.3263,1.301,1.2754,1.2508,1.2187,1.1813,1.1383,1.0924,1.0559,1.0059,0.9101,0.8038,0.6867,0.6729,0.656,0.6291,0.5859,0.5547,0.5075,0.4564,0.4032,0.3682,0.385,0.3548,0.3406,0.3442,0.3338,0.3283,0.3361,0.3445,0.3508,0.3598,0.4014,0.4344,0.4429,0.4527,0.4697,0.4915,0.4991,0.5048,0.5039,0.5059,0.5146,0.5214,0.5242,0.5223,0.503,0.4864,0.4745,0.4587,0.4575,0.4483,0.4435,0.4342,0.4281,0.413,0.3958,0.3813,0.3634,0.3415,0.3365,0.3252,0.3159,0.3063,0.2932,0.279,0.2667,0.25,0.2034,0.1516,2.2992,2.2872,2.2812,2.2752,2.2752,2.2752,2.2766,2.2721,2.2689,2.2675,2.2615,2.2615,2.2615,2.2483,2.2136,2.1846,2.1516,2.1386,2.1428,2.1156,2.0622,2.0088,1.9571,1.8976,1.8535,1.8361,1.8436,1.8616,1.85,1.8383,1.8201,1.8016,1.7935,1.7747,1.7529,1.7502,1.7365,1.694,1.6075,1.5168,1.4515,1.4066,1.3868,1.3947,1.3769,1.3648,1.3501,1.3297,1.3079,1.2836,1.2602,1.2354,1.1873,1.1446,1.0957,1.0475,0.9424,0.8403,0.7642,0.7116,0.6646,0.6199,0.5798,0.5336,0.458,0.4019,0.3718,0.3877,0.3762,0.3738,0.3841,0.3855,0.3827,0.3827,0.3874,0.392,0.4075,0.444,0.4734,0.4797,0.4901,0.5121,0.533,0.5461,0.5577,0.5614,0.5665,0.5764,0.5782,0.5745,0.569,0.559,0.5451,0.5309,0.5098,0.4991,0.4783,0.4684,0.4552,0.4492,0.4435,0.4305,0.4053,0.42,0.4326,0.4276,0.4117,0.3912,0.3657,0.353,0.3403,0.3252,0.3079,0.2718,0.2259,2.3187,2.2978,2.2963,2.3023,2.2978,2.2947,2.2917,2.2872,2.2841,2.2781,2.2706,2.2706,2.2706,2.2661,2.2601,2.2515,2.2558,2.2615,2.2569,2.2204,2.1733,2.098,2.0345,1.9683,1.9105,1.8764,1.8898,1.9049,1.9147,1.9109,1.8912,1.8489,1.8436,1.824,1.8029,1.7962,1.7921,1.7487,1.6769,1.6014,1.5312,1.4768,1.4528,1.4341,1.4111,1.3947,1.3868,1.3769,1.3635,1.3433,1.3387,1.3144,1.2749,1.2492,1.2165,1.1768,1.1023,1.0204,0.9047,0.8121,0.7244,0.6609,0.5867,0.5204,0.4549,0.4082,0.397,0.4119,0.4146,0.4215,0.4333,0.4386,0.4426,0.4418,0.4498,0.4494,0.4588,0.5018,0.5383,0.5533,0.5614,0.5653,0.5843,0.5998,0.6116,0.6175,0.6273,0.6342,0.6298,0.6182,0.6142,0.6017,0.5841,0.5686,0.5518,0.5328,0.5137,0.4872,0.4722,0.4552,0.4435,0.4277,0.4045,0.4372,0.4807,0.4541,0.4017,0.4132,0.4232,0.4031,0.3866,0.3804,0.3605,0.3257,0.3023,2.3275,2.3275,2.3275,2.3275,2.3275,2.3171,2.3082,2.3037,2.2947,2.2888,2.2888,2.2857,2.2812,2.2781,2.2781,2.2735,2.2615,2.2615,2.2601,2.2355,2.1926,2.1441,2.0897,2.0347,1.9788,1.9463,1.9428,1.9457,1.9581,1.969,1.956,1.9325,1.8974,1.8745,1.8553,1.85,1.8327,1.7979,1.7514,1.6909,1.6273,1.5759,1.5538,1.5005,1.477,1.4588,1.4479,1.4501,1.4372,1.4173,1.4132,1.3984,1.3744,1.3659,1.3483,1.3204,1.2874,1.2073,1.1039,0.9114,0.784,0.704,0.6087,0.5142,0.4801,0.4395,0.4334,0.4568,0.4668,0.4673,0.4715,0.4744,0.4864,0.503,0.5145,0.5322,0.5436,0.5726,0.6038,0.6261,0.6364,0.6389,0.6442,0.6608,0.6229,0.6227,0.6417,0.649,0.6555,0.6498,0.6499,0.6416,0.6183,0.5986,0.5811,0.5582,0.5262,0.4893,0.4655,0.4446,0.4256,0.4106,0.4119,0.4139,0.4441,0.4187,0.4114,0.4366,0.4507,0.4423,0.4247,0.3851,0.3801,0.3625,0.3582,2.348,2.3494,2.348,2.3392,2.3275,2.3231,2.3246,2.3201,2.3142,2.3068,2.3023,2.2933,2.2902,2.2872,2.2857,2.2857,2.2797,2.2797,2.2752,2.2678,2.2419,2.2076,2.1555,2.0997,2.0479,2.0169,1.9944,1.9777,1.9848,1.999,1.9955,1.9726,1.9493,1.9236,1.9072,1.8907,1.8772,1.8607,1.8223,1.7675,1.7514,1.6963,1.6688,1.642,1.6198,1.6099,1.6047,1.5763,1.5593,1.5379,1.52,1.4985,1.4858,1.4855,1.4824,1.4739,1.4538,1.4136,1.2883,1.043,0.7886,0.6617,0.5874,0.5497,0.5417,0.5323,0.5263,0.5352,0.5332,0.5343,0.5271,0.5271,0.5318,0.5545,0.5789,0.6059,0.6348,0.6639,0.6896,0.7177,0.7153,0.7114,0.7169,0.7259,0.67,0.6232,0.6446,0.6627,0.6607,0.666,0.6642,0.6608,0.6384,0.6112,0.5914,0.5638,0.5328,0.4991,0.4618,0.4377,0.4216,0.4341,0.4341,0.426,0.4248,0.4377,0.4518,0.4726,0.4626,0.4252,0.3896,0.3507,0.3598,0.3832,0.3923,2.3595,2.3595,2.3595,2.3508,2.3392,2.3363,2.3363,2.3378,2.3319,2.3246,2.3157,2.3112,2.3068,2.3068,2.3112,2.3098,2.3142,2.3127,2.3068,2.3053,2.298,2.2761,2.2273,2.1717,2.1162,2.0872,2.0318,2.0025,2.0166,2.0166,2.015,2.015,2.003,1.9732,1.9391,1.9207,1.9169,1.9148,1.8928,1.8423,1.8332,1.7979,1.7504,1.7301,1.7016,1.692,1.6804,1.6604,1.6439,1.6319,1.6214,1.6099,1.605,1.6049,1.6079,1.62,1.6338,1.638,1.5045,1.1892,0.8193,0.6046,0.6143,0.6199,0.6391,0.6338,0.624,0.6349,0.6236,0.6118,0.6093,0.6082,0.6158,0.6415,0.6562,0.6815,0.7285,0.7628,0.7859,0.809,0.808,0.8092,0.765,0.7648,0.7269,0.6681,0.645,0.6501,0.6366,0.6477,0.6662,0.6624,0.6524,0.6246,0.5961,0.576,0.5537,0.5214,0.4835,0.4386,0.4264,0.4349,0.43,0.4106,0.4236,0.4637,0.4637,0.4426,0.4155,0.3896,0.3577,0.3277,0.3563,0.382,0.3965,2.3595,2.3595,2.3595,2.3595,2.3566,2.3553,2.3509,2.3451,2.3363,2.3334,2.3319,2.3422,2.3466,2.3509,2.3523,2.3566,2.3566,2.361,2.3566,2.3538,2.3566,2.3432,2.3041,2.2483,2.1912,2.1537,2.0957,2.0578,2.0475,2.0441,2.0475,2.046,2.0357,2.017,1.9788,1.9588,1.9566,1.9639,1.9522,1.9129,1.8787,1.8574,1.8244,1.7924,1.7685,1.7612,1.7592,1.7453,1.7291,1.7178,1.71,1.705,1.7051,1.7382,1.7588,1.7819,1.8865,1.9093,1.8332,1.3587,1.006,0.6996,0.755,0.7586,0.7303,0.7238,0.7406,0.7714,0.7484,0.7313,0.7213,0.708,0.7122,0.7179,0.7328,0.7561,0.801,0.8419,0.8618,0.8812,0.9109,0.9178,0.8474,0.7986,0.7748,0.7279,0.6725,0.643,0.6269,0.6164,0.6325,0.6276,0.6181,0.6061,0.5793,0.5882,0.5734,0.5404,0.4981,0.4486,0.4122,0.4032,0.3971,0.3896,0.4089,0.4414,0.4191,0.3896,0.3813,0.373,0.3416,0.3247,0.3535,0.3605,0.3577,2.3782,2.3595,2.3782,2.3739,2.3595,2.3566,2.3566,2.3523,2.3494,2.3451,2.3523,2.3625,2.3739,2.3809,2.3952,2.4078,2.4094,2.4094,2.4051,2.3952,2.4036,2.4085,2.3819,2.3351,2.2814,2.2393,2.1749,2.1004,2.061,2.0644,2.0577,2.0543,2.0561,2.0392,2.0185,2.001,1.994,1.9869,1.9747,1.9555,1.9325,1.9295,1.9185,1.8932,1.8841,1.88,1.88,1.8657,1.8484,1.8419,1.8418,1.8375,1.8521,1.8861,1.9353,1.9864,2.0753,2.0326,1.9316,1.6639,1.5086,1.2083,1.0031,1.0102,0.989,0.9824,0.9625,0.9236,0.9133,0.8787,0.8099,0.7859,0.7822,0.788,0.8017,0.8217,0.856,0.8935,0.9213,0.9443,0.9691,0.9763,0.9364,0.8799,0.8476,0.8017,0.747,0.6698,0.6377,0.5933,0.5825,0.57,0.5617,0.561,0.5573,0.5667,0.5586,0.5267,0.4875,0.4438,0.4114,0.3953,0.3896,0.3958,0.4035,0.4112,0.4035,0.3945,0.3772,0.3605,0.3374,0.3041,0.3015,0.2929,0.2702,2.4009,2.3867,2.4009,2.4009,2.3867,2.3782,2.3711,2.3595,2.3581,2.3668,2.3824,2.3952,2.412,2.423,2.441,2.4549,2.4564,2.4564,2.4549,2.441,2.4508,2.4599,2.4516,2.4092,2.3617,2.3163,2.2401,2.1603,2.1254,2.097,2.0892,2.0827,2.0761,2.0695,2.0527,2.0342,2.0166,2.0096,2.001,1.9975,1.9955,2.0091,2.0288,2.0298,2.0382,2.0504,2.0467,2.0326,2.0154,2.0124,2.0094,2.0072,2.0272,2.0609,2.1122,2.1701,2.2712,2.2528,2.1935,2.1692,1.9926,1.7048,1.4827,1.3161,1.2565,1.2331,1.1832,1.1418,1.1063,1.0454,0.9791,0.9439,0.9058,0.9152,0.8947,0.9148,0.9242,0.9618,0.9732,0.9963,0.9967,1.0066,1.0086,0.9768,0.9303,0.8768,0.8219,0.7439,0.6707,0.6333,0.5951,0.5793,0.5766,0.5913,0.5767,0.5464,0.5339,0.5108,0.4824,0.4509,0.4399,0.4262,0.4127,0.4027,0.4125,0.4194,0.4166,0.4055,0.3945,0.3751,0.3515,0.3132,0.2636,0.2434,0.2315,2.4317,2.4287,2.4317,2.4343,2.4302,2.4135,2.3867,2.3696,2.3797,2.3952,2.4162,2.4441,2.463,2.4815,2.495,2.5029,2.5029,2.4989,2.4989,2.5005,2.4966,2.5139,2.4971,2.4503,2.4271,2.3779,2.3093,2.2289,2.2015,2.1375,2.1167,2.1214,2.1119,2.1023,2.0811,2.0695,2.0519,2.0508,2.0685,2.0681,2.0753,2.1034,2.1218,2.1372,2.1618,2.1833,2.1842,2.1782,2.1728,2.1736,2.178,2.1925,2.2101,2.2278,2.2629,2.3608,2.5261,2.5543,2.5507,2.5357,2.4375,2.1411,1.8523,1.6406,1.5034,1.468,1.4085,1.3644,1.3257,1.2712,1.2138,1.1492,1.0857,1.0559,1.0142,1.0128,1.0119,1.0231,1.0257,1.0286,1.0191,1.0201,1.0173,0.9959,0.9778,0.9586,0.9099,0.8669,0.7952,0.7322,0.6932,0.6454,0.6454,0.649,0.621,0.5723,0.5293,0.511,0.504,0.4813,0.4696,0.4548,0.4412,0.4301,0.4277,0.4264,0.4207,0.4187,0.4166,0.3945,0.3709,0.3332,0.288,0.2555,0.2415,2.4492,2.4517,2.4679,2.4719,2.4679,2.4517,2.4395,2.4338,2.4379,2.4517,2.4831,2.5029,2.5185,2.5362,2.553,2.553,2.5513,2.5476,2.5378,2.5378,2.5355,2.5448,2.5389,2.5217,2.4972,2.4441,2.371,2.2879,2.2313,2.1681,2.1294,2.1294,2.1309,2.1246,2.1183,2.1103,2.1077,2.1151,2.1439,2.159,2.1729,2.2045,2.2222,2.2399,2.2645,2.2833,2.2795,2.2786,2.2613,2.22,2.2128,2.2128,2.2109,2.2754,2.3578,2.5563,2.6714,2.7289,2.7235,2.704,2.6188,2.4778,2.2421,2.037,1.8564,1.7141,1.6437,1.5871,1.5421,1.4883,1.3817,1.2987,1.2358,1.1857,1.1467,1.1314,1.132,1.1339,1.1302,1.0719,1.0624,1.0192,1.0181,1.0166,0.9997,1.0078,0.994,0.9537,0.9123,0.8463,0.7829,0.7336,0.7106,0.7146,0.6577,0.6043,0.5529,0.5135,0.511,0.507,0.4915,0.4788,0.4647,0.4492,0.4366,0.4277,0.4207,0.4207,0.4207,0.4117,0.3875,0.3521,0.3163,0.2799,0.2498,2.4791,2.4895,2.4997,2.5114,2.5153,2.5036,2.5036,2.5075,2.4784,2.4839,2.5146,2.5339,2.5567,2.568,2.5807,2.5807,2.5754,2.5754,2.568,2.5659,2.5675,2.5712,2.5733,2.5754,2.5546,2.5062,2.4472,2.3716,2.29,2.2001,2.1481,2.1526,2.1495,2.1466,2.15,2.1664,2.1843,2.1961,2.2153,2.2472,2.2739,2.3028,2.3264,2.338,2.3633,2.3792,2.3734,2.3792,2.361,2.341,2.3478,2.3574,2.3708,2.4359,2.5055,2.6737,2.736,2.7619,2.7548,2.7693,2.6906,2.5981,2.5059,2.3395,2.1744,2.0274,1.9051,1.8047,1.7574,1.6933,1.558,1.4341,1.3734,1.3123,1.2849,1.2594,1.2592,1.2629,1.2102,1.1386,1.0865,1.0345,1.0174,1.0205,1.0195,1.0172,1.0164,1.0037,0.9763,0.9394,0.8736,0.8126,0.7904,0.7751,0.7087,0.6481,0.6022,0.5592,0.5318,0.526,0.5116,0.4904,0.4678,0.4508,0.4338,0.4277,0.4236,0.4207,0.4187,0.4117,0.4048,0.382,0.3458,0.305,0.2757,2.5139,2.5317,2.5388,2.547,2.5605,2.5605,2.5696,2.5807,2.5169,2.5013,2.5262,2.5546,2.5754,2.5917,2.597,2.5917,2.5881,2.5881,2.5881,2.5881,2.586,2.586,2.5881,2.5917,2.5835,2.5639,2.5114,2.4262,2.3539,2.2767,2.2221,2.1963,2.2098,2.212,2.1979,2.2276,2.2524,2.2752,2.2781,2.2955,2.3519,2.4023,2.4531,2.4657,2.5049,2.5475,2.5341,2.5389,2.546,2.5491,2.5501,2.5501,2.5706,2.6065,2.6673,2.7144,2.7707,2.7888,2.7908,2.8035,2.7626,2.6756,2.5846,2.5007,2.3803,2.2294,2.0875,2.0068,1.9572,1.8652,1.7381,1.6361,1.5642,1.4934,1.443,1.4193,1.4061,1.3749,1.2928,1.2229,1.1657,1.1124,1.0583,1.0618,1.041,1.0321,1.0202,1.0222,1.0164,0.9961,0.9547,0.8891,0.8732,0.8419,0.7676,0.7087,0.6603,0.619,0.574,0.5398,0.5237,0.4953,0.4658,0.4508,0.437,0.4297,0.4236,0.4236,0.4236,0.4187,0.4138,0.4076,0.3772,0.3347,0.3008,2.5355,2.553,2.586,2.5934,2.5807,2.5844,2.577,2.568,2.5696,2.5733,2.5934,2.6007,2.6059,2.6079,2.6079,2.6043,2.599,2.599,2.5954,2.5917,2.5917,2.5954,2.5937,2.599,2.6043,2.5865,2.5388,2.4678,2.4067,2.3587,2.3389,2.3421,2.3353,2.3073,2.269,2.2973,2.3141,2.3504,2.3571,2.3753,2.4307,2.4652,2.5034,2.5497,2.6046,2.6082,2.5994,2.6066,2.5824,2.5612,2.5589,2.5747,2.5993,2.6683,2.721,2.7612,2.7897,2.8128,2.8294,2.8318,2.8014,2.7679,2.6983,2.6367,2.5342,2.3787,2.2672,2.2061,2.1304,2.0308,1.93,1.8386,1.7484,1.672,1.6025,1.5786,1.5518,1.4574,1.3705,1.3097,1.2517,1.1905,1.13,1.0961,1.0691,1.0492,1.0276,1.0202,1.0256,1.0154,1.0078,0.9604,0.9548,0.9141,0.8352,0.7619,0.7115,0.6519,0.5995,0.5657,0.5328,0.5072,0.481,0.4559,0.4394,0.433,0.4277,0.4285,0.4264,0.4228,0.4207,0.4145,0.4076,0.3751,0.3353,2.547,2.577,2.6151,2.6291,2.6187,2.6151,2.6115,2.6026,2.6046,2.6134,2.6222,2.6203,2.6203,2.6203,2.6203,2.6151,2.6079,2.6079,2.6079,2.6043,2.6043,2.6043,2.6063,2.6099,2.6134,2.604,2.5545,2.498,2.4647,2.4197,2.4047,2.4197,2.4147,2.4012,2.3577,2.3594,2.3792,2.4208,2.4275,2.4612,2.5112,2.5462,2.5744,2.628,2.6365,2.6365,2.633,2.6349,2.6183,2.6068,2.6151,2.6599,2.6895,2.7257,2.7624,2.7933,2.8183,2.8422,2.8651,2.8673,2.8461,2.8137,2.7979,2.7328,2.6747,2.5294,2.4237,2.3604,2.3052,2.2125,2.0953,1.9954,1.9021,1.8189,1.7669,1.7321,1.6196,1.4882,1.4198,1.3678,1.3059,1.2429,1.2003,1.1972,1.1745,1.1605,1.1267,1.0776,1.0692,1.0432,1.0331,1.0175,1.003,0.9705,0.8986,0.8237,0.7568,0.6942,0.6253,0.5661,0.5203,0.5133,0.4966,0.465,0.4435,0.4362,0.433,0.4297,0.4289,0.4281,0.4248,0.4236,0.4145,0.4055,0.3758,2.5637,2.6007,2.6345,2.6485,2.6485,2.6485,2.6485,2.6434,2.6382,2.633,2.6312,2.6274,2.6256,2.6203,2.6203,2.6203,2.6187,2.6187,2.6187,2.6203,2.6203,2.6239,2.6239,2.6256,2.631,2.6214,2.5814,2.5648,2.5514,2.5112,2.4828,2.4609,2.4574,2.4525,2.449,2.4456,2.4574,2.4654,2.4804,2.5152,2.571,2.6235,2.6337,2.6437,2.6555,2.6521,2.6469,2.6453,2.6453,2.6556,2.679,2.722,2.7566,2.7765,2.7982,2.8255,2.8414,2.8644,2.8868,2.9001,2.8788,2.8596,2.855,2.8184,2.7559,2.6813,2.5751,2.5164,2.4626,2.3673,2.2488,2.1529,2.0582,1.9599,1.914,1.8463,1.6894,1.5523,1.5047,1.4531,1.3969,1.3341,1.2961,1.295,1.2804,1.2703,1.2354,1.1902,1.1457,1.1002,1.0729,1.0464,1.0218,0.984,0.9354,0.8632,0.7828,0.714,0.6397,0.5662,0.5111,0.5008,0.4869,0.4642,0.4463,0.4394,0.4313,0.426,0.4273,0.4273,0.4179,0.4125,0.4145,0.4076,0.4076,2.6026,2.638,2.645,2.6485,2.6485,2.6485,2.6485,2.6485,2.6468,2.6485,2.645,2.645,2.638,2.6203,2.6203,2.6203,2.6239,2.6258,2.6277,2.6277,2.638,2.6415,2.6415,2.638,2.645,2.6368,2.6285,2.6319,2.6152,2.6051,2.605,2.5967,2.5983,2.5765,2.531,2.5293,2.5341,2.5406,2.5505,2.5824,2.6145,2.6435,2.6366,2.657,2.6909,2.6909,2.6892,2.694,2.6956,2.7053,2.7261,2.7647,2.7911,2.8109,2.8282,2.8466,2.8619,2.8743,2.8934,2.9093,2.8934,2.9015,2.8858,2.8484,2.7999,2.7633,2.6924,2.6657,2.595,2.476,2.3671,2.3037,2.2172,2.097,2.0195,1.9029,1.7667,1.7115,1.6728,1.6301,1.585,1.5012,1.412,1.3985,1.3745,1.352,1.3074,1.2641,1.2389,1.1815,1.1199,1.0821,1.0526,0.9854,0.9311,0.8689,0.7934,0.7243,0.66,0.5948,0.5371,0.4896,0.4715,0.4675,0.4555,0.4495,0.4394,0.4281,0.4171,0.415,0.4027,0.3973,0.4035,0.4097,0.4097]}]]